     2.11           OBSERVATION DATA    G (GPS)             RINEX VERSION / TYPE
teqc 2010Oct21 OPUS Account 20111027 16:38:50UTC            PGM / RUN BY / DATE
S 1524                                                      MARKER NAME
1221                                                        MARKER NUMBER
CSMIDDLETON NGS                                             OBSERVER / AGENCY
4624K01590 TRIMBLE NETR5 4.41                               REC # / TYPE / VERS
12236910 TRM41249.00 NONE                                   ANT # / TYPE
  -761595.3903 -5534138.0946  3067771.9662                  APPROX POSITION XYZ
        2.0010        0.0000        0.0000                  ANTENNA: DELTA H/E/N
     1     1                                                WAVELENGTH FACT L1/2
     5    L1    L2    C1    P1    P2                        # / TYPES OF OBSERV
    15                                                      LEAP SECONDS
  2011     8    16     0     0    0.0000000     GPS         TIME OF FIRST OBS
                                                            END OF HEADER
 11  8 16  0  0  0.0000000  0  9G10G28G17G02G12G05G04G09G27
 111575510.560 8  86942088.57946  21232089.469                    21232097.480
 125957600.215 6  98148852.50843  23968955.125                    23968966.719
 118220165.047 7  92119701.425 7  22496540.484                    22496548.121
 109186182.511 8  85080285.20746  20777418.828                    20777424.207
 117926259.046 7  91890632.032 7  22440620.094                    22440627.668
 122986379.867 7  95833671.991 6  23403523.883                    23403535.102
 108809174.257 8  84786481.81446  20705675.063                    20705682.895
 119268529.326 7  92936425.88944  22696010.430                    22696020.051
 121194859.840 7  94437630.44044  23062619.016                    23062628.879
 11  8 16  0  0 30.0000000  0  9G10G28G17G02G12G05G04G09G27
 111530518.191 8  86907029.62746  21223528.000                    21223535.973
 126056000.783 6  98225528.12143  23987680.141                    23987691.590
 118263570.976 7  92153524.185 7  22504800.313                    22504808.105
 109161392.732 8  85060968.51946  20772701.523                    20772707.266
 117841992.210 7  91824969.591 7  22424584.391                    22424592.324
 122881913.091 7  95752269.515 6  23383644.766                    23383655.168
 108869443.204 8  84833444.61146  20717143.867                    20717152.082
 119326361.808 7  92981490.11445  22707016.133                    22707025.367
 121245964.162 7  94477451.93444  23072342.805                    23072353.695
 11  8 16  0  1  0.0000000  0  9G10G28G17G02G12G05G04G09G27
 111486058.992 8  86872386.13746  21215067.594                    21215075.746
 126154626.609 6  98302379.25743  24006448.656                    24006459.387
 118307089.824 7  92187434.933 7  22513081.430                    22513088.953
 109136959.649 8  85041929.78446  20768051.953                    20768057.547
 117757972.947 7  91759500.058 7  22408596.023                    22408603.641
 122777529.567 7  95670931.901 6  23363780.953                    23363791.152
 108930019.218 8  84880646.68146  20728671.070                    20728679.070
 119384602.854 7  93026872.71245  22718098.555                    22718107.934
 121297334.987 7  94517481.09644  23082118.805                    23082129.020
 11  8 16  0  1 30.0000000  0  9G10G28G17G02G12G05G04G09G27
 111442135.000 8  86838159.68846  21206709.156                    21206717.313
 126253475.667 6  98379404.39743  24025258.492                    24025269.836
 118350721.976 7  92221433.995 7  22521384.258                    22521392.852
 109112882.207 8  85023168.16346  20763470.125                    20763475.570
 117674203.349 7  91694225.085 7  22392655.266                    22392662.875
 122673231.915 7  95589661.211 6  23343932.805                    23343944.496
 108990899.359 8  84928085.73246  20740256.516                    20740264.313
 119443249.151 7  93072571.08745  22729258.563                    22729268.188
 121348969.424 7  94557715.66144  23091944.773                    23091955.039
 11  8 16  0  2  0.0000000  0  9G10G28G17G02G12G05G04G09G27
 111398748.493 8  86804352.06146  21198452.930                    21198461.266
 126352546.115 6  98456602.00543  24044110.969                    24044122.875
 118394467.912 7  92255521.694 7  22529708.875                    22529717.039
 109089160.158 8  85004683.47646  20758956.281                    20758962.141
 117590686.478 8  91629147.030 7  22376762.555                    22376770.285
 122569022.823 7  95508459.530 7  23324102.906                    23324114.195
 109052081.406 8  84975760.03946  20751898.828                    20751906.477
 119502297.705 6  93118582.91344  22740495.305                    22740504.820
 121400864.814 7  94598153.57744  23101820.578                    23101830.598
 11  8 16  0  2 30.0000000  0  9G10G28G17G02G12G05G04G09G27
 111355901.746 8  86770965.02546  21190299.406                    21190307.652
 126451835.891 5  98533970.51942  24063004.719                    24063016.832
 118438328.235 7  92289698.558 7  22538055.086                    22538063.418
 109065792.695 8  84986475.09146  20754509.398                    20754515.301
 117507424.570 8  91564267.652 7  22360918.367                    22360925.855
 122464905.446 7  95427329.307 7  23304290.156                    23304300.980
 109113562.776 8  85023667.58546  20763598.695                    20763606.430
 119561745.580 7  93164905.89845  22751807.492                    22751817.250
 121453018.875 7  94638793.04644  23111745.109                    23111754.961
 11  8 16  0  3  0.0000000  0  9G10G28G17G02G12G05G04G09G27
 111313597.211 8  86738000.49346  21182249.039                    21182257.426
 126551343.497 5  98611508.74342  24081940.563                    24081952.266
 118482303.648 7  92323965.079 7  22546423.273                    22546431.590
 109042779.593 8  84968542.83146  20750129.930                    20750135.641
 117424420.311 7  91499589.034 7  22345123.172                    22345130.828
 122360882.782 7  95346272.888 7  23284494.930                    23284505.871
 109175341.488 8  85071806.82546  20775354.344                    20775362.367
 119621589.815 7  93211537.73445  22763195.781                    22763205.426
 121505429.360 7  94679632.33344  23121718.117                    23121728.457
 11  8 16  0  3 30.0000000  0  9G10G28G17G02G12G05G04G09G27
 111271836.643 8  86705459.82946  21174301.961                    21174310.422
 126651066.337 5  98689214.71342  24100918.117                    24100928.645
 118526394.565 7  92358321.617 7  22554813.539                    22554821.855
 109020119.804 8  84950885.87346  20745818.195                    20745823.563
 117341676.098 8  91435113.059 7  22329377.172                    22329385.039
 122256957.238 7  95265292.146 7  23264718.164                    23264729.090
 109237414.905 8  85120175.70446  20787166.977                    20787174.934
 119681826.668 7  93258475.51045  22774658.859                    22774668.316
 121558093.099 7  94720668.94744  23131740.453                    23131749.980
 11  8 16  0  4  0.0000000  0  9G10G28G17G02G12G05G04G09G27
 111230621.739 8  86673344.35546  21166459.523                    21166467.602
 126751002.442 5  98767086.85842  24119934.766                    24119945.461
 118570601.401 7  92392768.470 7  22563225.820                    22563234.289
 108997812.546 8  84933503.62146  20741572.898                    20741578.559
 117259194.538 7  91370841.751 7  22313681.688                    22313689.012
 122153132.225 7  95184389.754 7  23244961.078                    23244971.508
 109299780.363 8  85168772.14846  20799034.570                    20799042.473
 119742452.794 7  93305716.61444  22786195.242                    22786205.039
 121611007.434 7  94761900.85244  23141808.766                    23141819.063
 11  8 16  0  4 30.0000000  0  9G10G28G17G02G12G05G04G09G27
 111189955.293 8  86641656.26646  21158720.422                    21158728.582
 126851150.125 6  98845123.97242  24138992.461                    24139004.043
 118614925.128 7  92427306.419 7  22571660.281                    22571668.715
 108975857.611 8  84916395.90346  20737395.313                    20737400.695
 117176978.568 8  91306777.388 7  22298036.422                    22298044.109
 122049410.422 7  95103567.773 7  23225223.242                    23225234.051
 109362435.774 8  85217594.53346  20810957.406                    20810965.207
 119803465.276 7  93353258.77644  22797805.813                    22797815.039
 121664170.047 7  94803326.19244  23151926.063                    23151936.051
 11  8 16  0  5  0.0000000  0  9G10G28G17G02G12G05G04G09G27
 111149839.334 8  86610397.11846  21151086.594                    21151095.199
 126951507.210 6  98923324.22543  24158090.055                    24158101.539
 118659366.155 7  92461935.777 7  22580117.453                    22580125.348
 108954254.402 8  84899562.25946  20733284.336                    20733289.563
 117095030.433 8  91242921.723 7  22282442.680                    22282449.457
 121945795.059 7  95022828.724 7  23205504.875                    23205516.172
 109425378.775 8  85266641.00646  20822935.211                    20822943.063
 119864861.339 7  93401099.82844  22809488.172                    22809498.188
 121717578.442 7  94844943.04944  23162089.148                    23162099.074
 11  8 16  0  5 30.0000000  0  9G10G28G17G02G12G05G04G09G27
 111110275.624 8  86579568.29646  21143558.117                    21143566.004
 127052071.757 6  99001686.10843  24177226.914                    24177238.449
 118703925.146 7  92496657.060 7  22588596.828                    22588604.457
 108933002.002 8  84883001.96546  20729239.813                    20729245.648
 117013352.580 7  91179276.673 7  22266899.211                    22266906.848
 121842288.940 7  94942174.822 7  23185809.102                    23185819.676
 109488606.900 8  85315909.65746  20834967.086                    20834974.820
 119926637.551 7  93449237.11444  22821244.477                    22821253.770
 121771229.590 7  94886749.07644  23172298.570                    23172309.141
 11  8 16  0  6  0.0000000  0  9G10G28G17G02G12G05G04G09G27
 111071266.652 8  86549171.73646  21136134.711                    21136142.867
 127152842.055 6  99080208.30743  24196403.086                    24196414.848
 118748602.538 7  92531470.594 7  22597099.250                    22597106.805
 108912099.970 8  84866714.70046  20725262.555                    20725267.719
 116931947.904 7  91115844.494 7  22251408.664                    22251416.359
 121738894.923 7  94861608.252 7  23166133.922                    23166144.527
 109552118.025 8  85365398.83346  20847052.898                    20847060.477
 119988790.813 7  93497668.18544  22833072.023                    22833081.070
 121825121.176 7  94928742.45144  23182553.719                    23182564.281
 11  8 16  0  6 30.0000000  0  9G10G28G17G02G12G05G04G09G27
 111032814.217 8  86519208.84646  21128817.727                    21128825.922
 127253815.927 6  99158889.15643  24215618.297                    24215628.691
 118793399.157 7  92566377.043 7  22605623.117                    22605631.051
 108891547.701 8  84850699.97046  20721351.523                    20721356.895
 116850819.030 7  91052627.227 7  22235970.375                    22235977.855
 121635616.392 7  94781131.658 7  23146480.539                    23146491.063
 109615909.651 8  85415106.57246  20859191.938                    20859200.023
 120051317.814 7  93546390.49144  22844970.594                    22844979.867
 121879250.628 7  94970921.16944  23192854.656                    23192864.781
 11  8 16  0  7  0.0000000  0  9G10G28G17G02G12G05G04G09G27
 110994920.409 8  86489681.24746  21121606.570                    21121614.707
 127354991.559 6  99237727.18343  24234871.180                    24234882.523
 118838315.611 7  92601376.848 7  22614170.469                    22614178.520
 108871344.860 8  84834957.51546  20717506.977                    20717512.691
 116769968.504 7  90989626.852 7  22220584.578                    22220592.293
 121532456.159 7  94700747.259 7  23126849.281                    23126859.875
 109679979.441 8  85465031.06946  20871384.086                    20871391.980
 120114215.409 7  93595401.57344  22856938.953                    22856948.813
 121933615.382 7  95013283.23944  23203199.727                    23203210.020
 11  8 16  0  7 30.0000000  0  9G10G28G17G02G12G05G04G09G27
 110957586.609 8  86460590.01246  21114502.117                    21114510.070
 127456366.405 6  99316720.45343  24254162.352                    24254174.105
 118883351.985 7  92636470.101 7  22622740.484                    22622748.539
 108851489.938 8  84819486.17546  20713728.523                    20713733.883
 116689398.811 7  90926845.321 7  22205252.914                    22205260.535
 121429416.465 7  94620456.776 7  23107241.375                    23107251.910
 109744324.840 8  85515170.32646  20883628.500                    20883636.277
 120177480.078 7  93644698.69544  22868977.961                    22868988.137
 121988212.266 7  95055826.18144  23213588.945                    23213599.797
 11  8 16  0  8  0.0000000  0  9G10G28G17G02G12G05G04G09G27
 110920815.261 8  86431937.05146  21107505.023                    21107512.930
 127557938.733 6  99395867.61843  24273490.875                    24273502.641
 118928509.438 7  92671657.692 7  22631333.914                    22631341.711
 108831982.750 8  84804285.79146  20710016.781                    20710022.273
 116609112.478 7  90864284.571 7  22189974.672                    22189982.684
 121326500.848 7  94540262.962 6  23087656.977                    23087667.207
 109808943.737 8  85565522.70146  20895924.891                    20895933.043
 120241109.130 7  93694279.72844  22881086.305                    22881096.172
 122043039.130 7  95098548.33844  23224022.727                    23224033.410
 11  8 16  0  8 30.0000000  0  9G10G28G17G02G12G05G04G09G27
 110884608.272 8  86403723.84346  21100614.680                    21100622.762
 127659706.799 6  99475167.25543  24292856.375                    24292868.395
 118973788.411 7  92706939.987 7  22639949.766                    22639958.422
 108812822.470 8  84789355.72846  20706370.375                    20706375.719
 116529112.035 8  90801946.601 7  22174751.555                    22174758.973
 121223711.957 7  94460167.893 6  23068097.125                    23068106.602
 109873833.707 8  85616086.28946  20908273.094                    20908281.238
 120305098.888 7  93744141.83644  22893263.531                    22893272.941
 122098093.202 7  95141447.53844  23234499.273                    23234509.832
 11  8 16  0  9  0.0000000  0  9G10G28G17G02G12G05G04G09G27
 110848967.312 8  86375951.70246  21093832.602                    21093840.473
 127761668.303 6  99554617.61843  24312258.250                    24312270.660
 119019189.284 7  92742317.261 7  22648589.813                    22648597.902
 108794008.179 8  84774695.26346  20702790.555                    20702795.633
 116449400.132 7  90739833.464 7  22159582.398                    22159590.066
 121121053.092 7  94380174.125 7  23048562.078                    23048570.953
 109938992.084 8  85666859.03646  20920672.531                    20920680.320
 120369446.200 7  93794282.55244  22905508.070                    22905517.926
 122153371.562 7  95184521.49944  23245018.297                    23245029.109
 11  8 16  0  9 30.0000000  0  8G10G17G02G12G05G04G09G27
 110813896.274 8  86348623.65546  21087158.594                    21087166.793
 119064714.596 7  92777791.501 7  22657253.141                    22657260.816
 108775540.956 8  84760305.24146  20699275.945                    20699281.445
 116369980.872 8  90677948.364 7  22144469.758                    22144476.965
 121018528.711 7  94300285.145 6  23029051.883                    23029061.340
 110004418.507 8  85717840.65446  20933122.617                    20933130.695
 120434149.281 7  93844700.50244  22917820.836                    22917831.055
 122208873.270 7  95227769.49944  23255580.336                    23255590.578
 11  8 16  0 10  0.0000000  0  8G10G17G02G12G05G04G09G27
 110779395.462 8  86321739.94446  21080593.375                    21080601.340
 119110363.087 7  92813361.720 7  22665939.375                    22665947.598
 108757418.819 8  84746184.12646  20695827.688                    20695833.043
 116290855.479 8  90616292.252 7  22129412.172                    22129419.742
 120916140.430 7  94220502.226 7  23009567.719                    23009577.063
 110070108.997 8  85769028.03446  20945623.203                    20945631.105
 120499203.895 7  93895392.35844  22930200.469                    22930210.234
 122264594.546 7  95271188.58544  23266184.094                    23266194.625
 11  8 16  0 10 30.0000000  0  8G10G17G02G12G05G04G09G27
 110745466.270 8  86295301.63546  21074136.367                    21074144.867
 119156135.287 7  92849028.343 7  22674649.352                    22674657.375
 108739640.759 8  84732331.11046  20692444.367                    20692449.586
 116212026.494 7  90554867.098 7  22114412.047                    22114419.402
 120813890.978 7  94140827.497 7  22990110.445                    22990119.816
 110136060.915 8  85820419.12646  20958173.633                    20958181.676
 120564606.039 7  93946355.01044  22942646.234                    22942655.891
 122320532.243 7  95314776.32144  23276828.016                    23276838.727
 11  8 16  0 11  0.0000000  0  8G10G17G02G12G05G04G09G27
 110712110.447 8  86269310.11446  21067789.000                    21067797.457
 119202031.590 7  92884791.661 7  22683383.516                    22683391.461
 108722205.398 8  84718745.13546  20689126.992                    20689132.086
 116133496.120 7  90493674.629 7  22099468.047                    22099475.277
 120711783.214 7  94061263.157 7  22970678.813                    22970689.488
 110202271.997 8  85872012.16346  20970772.930                    20970780.699
 120630352.334 7  93997585.85444  22955156.961                    22955167.109
 122376683.468 7  95358530.43644  23287512.891                    23287523.898
 11  8 16  0 11 30.0000000  0  9G10G30G17G02G12G05G04G09G27
 110679329.757 8  86243766.74746  21061551.523                    21061559.262
 128022199.95415  99757614.06352  24361820.125                    24361829.023
 119248052.910 7  92920652.389 7  22692140.852                    22692149.258
 108705112.585 8  84705426.07846  20685873.930                    20685879.281
 116055267.270 8  90432717.120 7  22084581.492                    22084589.199
 120609820.137 7  93981811.556 7  22951276.727                    22951286.344
 110268740.122 8  85923805.49446  20983421.219                    20983429.652
 120696439.862 7  94049082.57244  22967733.336                    22967742.477
 122433045.975 7  95402449.18244  23298238.828                    23298249.625
 11  8 16  0 12  0.0000000  0  9G10G30G17G02G12G05G04G09G27
 110647126.276 8  86218673.15346  21055423.352                    21055431.418
 127916008.835 6  99674867.92242  24341612.688                    24341622.867
 119294200.092 7  92956611.206 7  22700922.781                    22700930.664
 108688361.856 8  84692373.57846  20682686.109                    20682691.371
 115977342.618 7  90371996.642 7  22069752.742                    22069760.395
 120508004.735 7  93902475.027 7  22931901.570                    22931911.785
 110335462.973 8  85975797.31446  20996118.227                    20996126.609
 120762865.426 7  94100842.70644  22980373.461                    22980383.594
 122489617.256 7  95446530.62244  23309004.148                    23309014.773
 11  8 16  0 12 30.0000000  0  9G10G30G17G02G12G05G04G09G27
 110615502.030 8  86194030.90646  21049405.320                    21049413.316
 127809972.033 6  99592241.91742  24321435.883                    24321445.160
 119340473.688 7  92992668.525 7  22709728.047                    22709735.711
 108671952.277 8  84679586.91346  20679563.664                    20679569.348
 115899725.124 8  90311515.510 7  22054983.047                    22054990.223
 120406340.148 7  93823256.023 7  22912555.438                    22912565.465
 110402438.149 8  86027985.75246  21008863.305                    21008871.383
 120829625.588 7  94152863.56644  22993077.500                    22993087.398
 122546394.567 7  95490772.57844  23319808.789                    23319819.418
 11  8 16  0 13  0.0000000  0  9G10G30G17G02G12G05G04G09G27
 110584458.256 8  86169840.98046  21043498.031                    21043505.785
 127704092.346 6  99509738.38242  24301286.617                    24301296.461
 119386874.120 7  93028824.673 7  22718558.117                    22718566.375
 108655883.039 8  84667065.43946  20676505.656                    20676511.145
 115822416.815 8  90251275.288 7  22040271.328                    22040278.629
 120304829.331 7  93744156.833 7  22893238.203                    22893248.313
 110469663.616 8  86080369.21946  21021656.094                    21021664.543
 120896717.291 7  94205142.74344  23005845.070                    23005854.816
 122603375.071 7  95535172.90044  23330651.602                    23330662.031
 11  8 16  0 13 30.0000000  0  9G10G30G17G02G12G05G04G09G27
 110553996.645 8  86146104.69846  21037701.164                    21037709.348
 127598372.249 6  99427359.21443  24281169.195                    24281178.816
 119433402.091 7  93065080.204 7  22727412.055                    22727419.961
 108640153.104 8  84654808.37446  20673512.383                    20673518.277
 115745420.181 7  90191277.937 7  22025619.398                    22025626.844
 120203475.224 7  93665179.755 7  22873951.063                    22873960.770
 110537136.341 8  86132945.35946  21034495.703                    21034503.941
 120964136.885 7  94257677.42244  23018673.922                    23018684.391
 122660555.778 7  95579729.20144  23341532.547                    23341543.867
 11  8 16  0 14  0.0000000  0  9G10G30G17G02G12G05G04G09G27
 110524118.730 8  86122823.23046  21032015.602                    21032023.793
 127492814.511 6  99345106.57343  24261082.320                    24261091.641
 119480058.022 7  93101435.435 7  22736290.086                    22736298.512
 108624761.711 8  84642815.09446  20670583.555                    20670588.609
 115668738.023 7  90131525.631 7  22011027.156                    22011034.953
 120102280.769 7  93586327.090 7  22854694.383                    22854704.363
 110604854.513 8  86185712.74746  21047382.023                    21047389.906
 121031881.070 7  94310465.03144  23031566.281                    23031576.074
 122717934.216 7  95624439.58544  23352451.500                    23352462.512
 11  8 16  0 14 30.0000000  0  9G10G30G17G02G12G05G04G09G27
 110494826.475 8  86099998.13246  21026441.258                    21026449.098
 127387421.894 6  99262982.58943  24241026.164                    24241036.043
 119526842.781 7  93137891.076 7  22745192.914                    22745201.555
 108609708.296 8  84631085.17146  20667718.953                    20667724.395
 115592372.879 7  90072020.350 7  21996495.289                    21996502.871
 120001249.298 7  93507601.396 7  22835469.039                    22835478.219
 110672815.685 8  86238669.49146  21060314.625                    21060322.766
 121099946.519 7  94363502.97544  23044518.250                    23044528.234
 122775507.777 6  95669302.01344  23363407.758                    23363418.523
 11  8 16  0 15  0.0000000  0  9G10G30G17G02G12G05G04G09G27
 110466121.211 8  86077630.42346  21020979.219                    21020986.844
 127282197.013 6  99180989.27043  24221003.188                    24221012.789
 119573756.769 7  93174447.391 7  22754120.383                    22754129.133
 108594991.736 8  84619617.73646  20664918.523                    20664924.012
 115516327.259 7  90012764.043 7  21982024.398                    21982031.871
 119900383.237 7  93429004.605 7  22816274.398                    22816284.078
 110741017.402 8  86291813.66846  21073292.953                    21073300.730
 121168329.951 7  94416788.68744  23057531.945                    23057541.578
 122833273.588 6  95714314.23744  23374400.117                    23374410.809
 11  8 16  0 15 30.0000000  0  9G10G30G17G02G12G05G04G09G27
 110438005.261 8  86055721.92246  21015628.766                    21015636.742
 127177143.050 7  99099129.15244  24201012.164                    24201021.086
 119620801.035 7  93211105.251 7  22763072.688                    22763081.047
 108580611.781 8  84608412.59046  20662182.086                    20662187.691
 115440604.060 8  89953758.970 7  21967614.828                    21967622.238
 119799686.373 7  93350539.640 7  22797112.563                    22797121.785
 110809457.952 8  86345143.95646  21086316.875                    21086324.766
 121237028.273 7  94470319.77844  23070603.977                    23070614.398
 122891229.463 6  95759474.58744  23385428.898                    23385439.500
 11  8 16  0 16  0.0000000  0  9G10G30G17G02G12G05G04G09G27
 110410479.624 8  86034273.40146  21010390.609                    21010398.773
 127072262.493 7  99017404.12143  24181053.906                    24181063.391
 119667975.887 7  93247864.855 7  22772049.773                    22772058.434
 108566567.349 8  84597468.89746  20659509.461                    20659514.906
 115365205.902 7  89895007.168 7  21953267.391                    21953274.164
 119699160.961 7  93272208.283 7  22777983.305                    22777992.563
 110878134.656 8  86398658.25746  21099385.648                    21099393.699
 121306038.052 7  94524093.55244  23083735.953                    23083745.949
 122949372.456 6  95804780.72544  23396492.641                    23396503.945
 11  8 16  0 16 30.0000000  0  9G10G30G17G02G12G05G04G09G27
 110383546.033 8  86013286.22146  21005265.359                    21005273.480
 126967558.234 7  98935816.47444  24161128.734                    24161138.371
 119715281.995 7  93284726.751 7  22781051.102                    22781060.293
 108552857.845 8  84586786.18346  20656900.836                    20656906.129
 115290135.262 8  89836510.586 7  21938981.453                    21938989.098
 119598810.339 7  93194013.104 7  22758886.820                    22758896.145
 110947045.413 8  86452354.94646  21112499.039                    21112506.781
 121375356.191 7  94578107.60944  23096927.438                    23096937.715
 123007699.747 6  95850230.47844  23407591.977                    23407603.313
 11  8 16  0 17  0.0000000  0  9G10G30G17G02G12G05G04G09G27
 110357205.604 8  85992761.23446  21000253.078                    21000261.059
 126863032.741 6  98854368.11344  24141238.445                    24141247.645
 119762719.771 7  93321691.231 7  22790078.461                    22790087.625
 108539481.931 8  84576363.40746  20654355.188                    20654360.813
 115215394.503 8  89778271.059 7  21924758.813                    21924766.566
 119498637.312 7  93115956.321 7  22739824.414                    22739833.809
 111016187.710 8  86506232.04846  21125656.109                    21125664.570
 121444979.065 7  94632359.12044  23110176.367                    23110185.996
 123066208.622 6  95895821.71644  23418726.336                    23418737.523
 11  8 16  0 17 30.0000000  0  9G10G30G17G02G12G05G04G09G27
 110331459.691 8  85972699.51046  20995353.680                    20995361.570
 126758688.679 6  98773061.12143  24121382.719                    24121391.578
 119810289.836 7  93358758.799 7  22799131.055                    22799139.691
 108526438.696 8  84566199.86846  20651872.773                    20651878.453
 115140986.091 8  89720290.501 7  21910599.125                    21910606.469
 119398644.846 7  93038040.245 7  22720796.258                    22720805.539
 111085558.952 8  86560287.54846  21138857.063                    21138865.121
 121514903.051 7  94686845.26744  23123482.289                    23123492.246
 123124896.202 6  95941552.21743  23429893.898                    23429905.117
 11  8 16  0 18  0.0000000  0  9G10G30G17G02G12G05G04G09G27
 110306310.503 8  85953102.76946  20990568.234                    20990575.906
 126654529.303 6  98691898.03743  24101561.438                    24101570.637
 119857993.229 7  93395930.250 7  22808209.227                    22808217.965
 108513728.087 8  84556295.51946  20649454.258                    20649459.941
 115066913.455 8  89662571.591 7  21896503.664                    21896511.445
 119298836.238 7  92960267.437 7  22701803.344                    22701813.055
 111155157.637 8  86614520.27946  21152101.602                    21152109.559
 121585125.313 7  94741563.82344  23136845.195                    23136855.082
 123183760.168 6  95987420.13643  23441096.266                    23441106.723
 11  8 16  0 18 30.0000000  0  9G10G30G17G02G12G05G04G09G27
 110281758.679 8  85933971.49946  20985895.773                    20985903.672
 126550556.904 6  98610880.66043  24081775.992                    24081785.684
 119905830.026 7  93433205.659 7  22817312.102                    22817320.273
 108501348.237 8  84546648.90546  20647099.063                    20647104.207
 114993177.855 8  89605115.308 7  21882472.484                    21882479.742
 119199214.180 7  92882639.973 7  22682846.008                    22682854.863
 111224981.077 8  86668928.14246  21165388.352                    21165396.410
 121655642.110 7  94796511.90444  23150264.398                    23150274.285
 123242797.313 7  96033423.02443  23452329.766                    23452340.949
 11  8 16  0 19  0.0000000  0  9G10G30G17G02G12G05G04G09G27
 110257805.997 8  85915307.09646  20981337.977                    20981345.703
 126446774.550 6  98530011.33343  24062027.398                    24062036.602
 119953801.023 7  93470585.617 7  22826440.977                    22826449.375
 108489298.777 8  84537259.72746  20644805.742                    20644811.418
 114919782.652 8  89547924.270 7  21868505.703                    21868513.012
 119099781.891 7  92805160.382 7  22663924.102                    22663933.586
 111295027.023 8  86723509.38446  21178717.484                    21178725.883
 121726450.138 7  94851686.92044  23163738.656                    23163748.738
 123302005.130 7  96079558.89644  23463597.250                    23463607.922
 11  8 16  0 19 30.0000000  0  9G10G30G17G02G12G05G04G09G27
 110234453.414 8  85897110.30546  20976894.203                    20976901.879
 126343184.583 6  98449291.90943  24042314.266                    24042323.598
 120001906.488 7  93508070.378 7  22835595.266                    22835603.570
 108477578.269 8  84528126.88646  20642575.500                    20642580.945
 114846730.240 7  89491000.345 7  21854604.703                    21854611.977
 119000542.089 7  92727830.795 7  22645039.625                    22645048.879
 111365292.931 8  86778262.02446  21192089.102                    21192096.980
 121797545.743 7  94907086.01444  23177268.219                    23177277.910
 123361380.432 7  96125825.29744  23474895.984                    23474906.688
 11  8 16  0 20  0.0000000  0  9G10G30G17G02G12G05G04G09G27
 110211703.495 8  85879383.11746  20972564.750                    20972572.684
 126239790.955 6  98368725.52143  24022638.438                    24022648.211
 120050148.233 7  93545661.322 7  22844775.305                    22844783.168
 108466187.532 8  84519251.01746  20640407.734                    20640413.453
 114774023.604 8  89434345.858 7  21840768.484                    21840775.957
 118901498.303 7  92650653.935 7  22626192.156                    22626201.449
 111435777.522 8  86833185.08346  21205501.672                    21205509.738
 121868926.527 7  94962707.33044  23190851.219                    23190860.898
 123420921.734 7  96172221.03744  23486226.766                    23486236.926
 11  8 16  0 20 30.0000000  0  9G10G30G17G02G12G05G04G09G27
 110189556.325 8  85862125.60346  20968350.336                    20968358.246
 126136595.259 6  98288313.35743  24003001.734                    24003010.766
 120098525.954 7  93583358.211 7  22853980.844                    22853989.629
 108455123.909 8  84510630.02846  20638302.477                    20638307.453
 114701664.577 8  89377962.238 7  21826998.969                    21827006.270
 118802652.825 7  92573631.612 7  22607381.938                    22607391.762
 111506477.469 8  86888275.94046  21218955.328                    21218963.883
 121940587.943 7  95018547.33044  23204487.766                    23204497.891
 123480625.178 7  96218743.12644  23497587.844                    23497598.297
 11  8 16  0 21  0.0000000  0  9G10G30G17G02G12G05G04G09G27
 110168013.625 7  85845339.11246  20964250.906                    20964258.539
 126033600.612 6  98208057.81143  23983402.320                    23983410.969
 120147040.227 7  93621161.513 7  22863212.586                    22863221.363
 108444386.953 8  84502263.59146  20636259.148                    20636264.461
 114629656.009 7  89321851.705 7  21813296.555                    21813303.551
 118704008.913 7  92496766.350 7  22588611.383                    22588620.047
 111577390.954 8  86943533.18746  21232449.719                    21232457.738
 122012527.221 7  95074603.82844  23218177.789                    23218187.379
 123540488.345 7  96265389.67844  23508979.445                    23508989.996
 11  8 16  0 21 30.0000000  0  9G10G30G17G02G12G05G04G09G27
 110147076.905 8  85829024.80346  20960266.773                    20960274.258
 125930810.224 6  98127961.45343  23963841.727                    23963850.488
 120195691.790 7  93659071.778 7  22872471.055                    22872479.727
 108433976.184 8  84494151.31946  20634278.008                    20634283.703
 114558000.575 7  89266016.334 7  21799660.633                    21799668.043
 118605570.384 7  92420061.121 7  22569878.445                    22569887.750
 111648515.966 8  86998955.26446  21245984.844                    21245992.551
 122084741.253 7  95130874.42844  23231919.156                    23231929.059
 123600508.670 7  96312158.66244  23520401.125                    23520411.703
 11  8 16  0 22  0.0000000  0  9G10G30G17G02G12G05G04G09G27
 110126746.982 8  85813183.33046  20956397.992                    20956405.766
 125828226.421 6  98048026.08543  23944320.695                    23944329.297
 120244481.353 7  93697089.600 7  22881755.898                    22881763.512
 108423890.142 8  84486292.08346  20632358.734                    20632363.988
 114486700.568 8  89210457.920 7  21786092.859                    21786100.148
 118507339.024 7  92343517.319 7  22551185.648                    22551195.289
 111719849.813 8  87054540.06946  21259558.992                    21259567.023
 122157226.058 7  95187356.03944  23245712.719                    23245722.762
 123660683.089 7  96359047.73543  23531851.852                    23531862.844
 11  8 16  0 22 30.0000000  0 10G10G30G17G02G12G05G04G09G27G25
 110107024.463 8  85797815.14846  20952645.008                    20952652.617
 125725851.669 6  97968253.62843  23924839.125                    23924848.559
 120293409.259 7  93735215.203 6  22891065.750                    22891073.949
 108414127.680 8  84478684.98746  20630501.078                    20630506.523
 114415758.270 7  89155178.238 7  21772592.984                    21772600.383
 118409317.877 7  92267137.337 7  22532532.516                    22532542.230
 111791390.102 8  87110285.73946  21273172.586                    21273181.035
 122229978.095 6  95244045.86344  23259556.719                    23259567.563
 123721008.513 7  96406054.47044  23543331.703                    23543342.324
 129624770.87216 101006383.92415  24666782.508                    24666793.273
 11  8 16  0 23  0.0000000  0 10G10G30G17G02G12G05G04G09G27G25
 110087911.381 8  85782921.86746  20949007.648                    20949015.656
 125623689.510 6  97888646.76843  23905398.617                    23905407.715
 120342476.207 7  93773449.147 7  22900403.219                    22900412.203
 108404688.667 8  84471329.93246  20628704.820                    20628710.012
 114345176.892 8  89100179.801 7  21759161.500                    21759169.121
 118311510.695 7  92190924.073 7  22513921.125                    22513929.441
 111863135.367 8  87166191.12946  21286825.141                    21286833.328
 122302994.514 7  95300941.70244  23273451.789                    23273461.574
 123781482.897 6  96453177.28644  23554839.242                    23554850.348
 129521436.802 6 100925863.945 5  24647119.094                    24647130.293
 11  8 16  0 23 30.0000000  0 10G10G30G17G02G12G05G04G09G27G25
 110069409.058 8  85768504.48846  20945486.867                    20945494.855
 125521742.896 6  97809207.92644  23885998.633                    23886007.344
 120391683.040 7  93811792.093 6  22909767.188                    22909775.645
 108395572.228 8  84464226.22746  20626969.891                    20626975.391
 114274959.022 8  89045464.605 7  21745799.695                    21745806.992
 118213920.056 7  92114879.521 7  22495349.383                    22495359.000
 111935083.446 8  87222254.54746  21300516.133                    21300524.344
 122376272.170 7  95358041.12544  23287395.875                    23287406.098
 123842103.705 7  96500414.19244  23566375.578                    23566386.047
 129418206.607 6 100845424.915 6  24627474.500                    24627486.184
 11  8 16  0 24  0.0000000  0 10G10G30G17G02G12G05G04G09G27G25
 110051518.571 8  85754563.87746  20942082.313                    20942090.176
 125420014.203 6  97729938.86743  23866640.758                    23866649.605
 120441030.522 7  93850244.644 7  22919157.820                    22919165.891
 108386777.085 8  84457372.88646  20625296.664                    20625301.617
 114205106.948 8  88991034.448 7  21732507.195                    21732514.383
 118116548.993 7  92039006.096 7  22476820.328                    22476829.547
 112007231.599 8  87278473.86846  21314245.805                    21314254.320
 122449807.241 7  95415341.10044  23301389.289                    23301399.695
 123902867.835 6  96547762.77944  23577938.461                    23577949.422
 129315082.372 6 100765068.424 6  24607850.141                    24607862.473
 11  8 16  0 24 30.0000000  0 10G10G30G17G02G12G05G04G09G27G25
 110034240.594 8  85741100.54146  20938794.992                    20938802.582
 125318506.352 6  97650841.90543  23847324.039                    23847333.191
 120490518.667 7  93888806.802 7  22928574.914                    22928583.250
 108378302.200 8  84450769.09446  20623683.750                    20623689.012
 114135623.055 7  88936891.181 7  21719284.523                    21719291.781
 118019400.755 7  91963306.284 7  22458333.305                    22458342.613
 112079577.680 8  87334847.42946  21328012.617                    21328020.816
 122523596.385 7  95472839.07844  23315431.039                    23315441.469
 123963772.479 6  96595220.87044  23589528.055                    23589539.367
 129212066.590 6 100684796.447 6  24588247.344                    24588259.148
 11  8 16  0 25  0.0000000  0 10G10G30G17G02G12G05G04G09G27G25
 110017575.937 8  85728115.11846  20935623.430                    20935631.270
 125217221.643 6  97571918.80243  23828050.227                    23828059.203
 120540148.306 7  93927479.205 6  22938019.148                    22938027.266
 108370146.167 8  84444413.75446  20622131.414                    20622136.777
 114066509.431 7  88883036.433 7  21706132.664                    21706140.066
 117922477.781 7  91887781.997 7  22439889.750                    22439898.305
 112152119.177 8  87391373.25846  21341816.945                    21341825.199
 122597635.750 7  95530532.03444  23329520.563                    23329530.953
 124024814.545 6  96642785.99544  23601143.844                    23601155.344
 129109161.397 6 100604610.629 6  24568665.086                    24568677.508
 11  8 16  0 25 30.0000000  0 10G10G30G17G02G12G05G04G09G27G25
 110001525.940 8  85715608.64246  20932568.836                    20932576.848
 125116163.296 6  97493172.11143  23808819.703                    23808828.391
 120589919.899 7  93966262.229 7  22947490.266                    22947498.750
 108362308.312 8  84438306.35446  20620639.648                    20620645.363
 113997768.880 8  88829472.385 7  21693051.727                    21693059.445
 117825783.034 7  91812435.558 7  22421489.289                    22421498.129
 112224854.264 8  87448049.92546  21355657.648                    21355666.184
 122671922.467 7  95588417.71844  23343656.961                    23343667.156
 124085991.471 6  96690456.24144  23612786.031                    23612797.031
 129006369.600 6 100524513.153 6  24549104.469                    24549116.723
 11  8 16  0 26  0.0000000  0 10G10G30G17G02G12G05G04G09G27G25
 109986091.905 8  85703582.14346  20929632.203                    20929640.035
 125015334.148 6  97414603.98343  23789631.930                    23789641.109
 120639834.180 7  94005156.466 7  22956989.094                    22956996.988
 108354787.876 8  84432446.29346  20619209.109                    20619214.238
 113929404.186 8  88776201.219 7  21680042.633                    21680049.813
 117729319.893 7  91737269.591 7  22403132.906                    22403142.121
 112297780.616 8  87504875.63845  21369535.102                    21369543.578
 122746452.938 7  95646493.34644  23357839.305                    23357849.473
 124147300.654 7  96738229.52744  23624452.867                    23624463.551
 128903693.768 6 100444506.059 7  24529565.789                    24529577.992
 11  8 16  0 26 30.0000000  0 10G10G30G17G02G12G05G04G09G27G25
 109971274.736 8  85692036.32846  20926812.969                    20926820.137
 124914737.228 6  97336216.83844  23770488.453                    23770498.406
 120689891.794 7  94044162.356 7  22966514.844                    22966523.543
 108347584.178 8  84426833.03646  20617838.281                    20617843.516
 113861418.002 8  88723224.992 7  21667105.320                    21667112.422
 117633091.100 7  91662286.231 7  22384821.117                    22384830.031
 112370896.519 7  87561849.03746  21383448.813                    21383456.918
 122821223.976 6  95704756.42844  23372068.148                    23372078.180
 124208739.454 6  96786103.81444  23636144.031                    23636155.355
 128801136.537 7 100364591.351 7  24510050.172                    24510061.641
 11  8 16  0 27  0.0000000  0 10G10G30G17G02G12G05G04G09G27G25
 109957074.913 8  85680971.55146  20924110.188                    20924117.859
 124814374.947 6  97258012.53544  23751390.820                    23751399.867
 120740093.287 7  94083280.400 7  22976068.070                    22976076.148
 108340695.417 8  84421465.18546  20616527.141                    20616532.613
 113793812.288 8  88670545.234 7  21654240.508                    21654247.699
 117537099.604 7  91587487.765 7  22366554.125                    22366563.258
 112444199.133 8  87618967.94645  21397397.789                    21397406.035
 122896231.757 7  95763203.99044  23386341.703                    23386351.512
 124270304.641 6  96834076.59044  23647860.016                    23647871.375
 128698700.009 7 100284770.733 7  24490557.313                    24490568.793
 11  8 16  0 27 30.0000000  0 10G10G30G17G02G12G05G04G09G27G25
 109943493.693 8  85670388.80146  20921525.594                    20921533.965
 124714250.435 6  97179993.48143  23732338.047                    23732346.617
 120790439.164 7  94122510.918 7  22985648.234                    22985656.836
 108334121.253 8  84416342.47546  20615275.820                    20615281.344
 113726589.561 8  88618163.902 7  21641448.141                    21641455.406
 117441348.735 7  91512876.816 7  22348333.742                    22348342.703
 112517686.835 8  87676231.07046  21411382.445                    21411390.211
 122971473.131 7  95821833.56044  23400659.633                    23400669.668
 124331993.940 6  96882146.06844  23659598.648                    23659609.891
 128596386.964 7 100205046.344 7  24471087.641                    24471099.371
 11  8 16  0 28  0.0000000  0 10G10G30G17G02G12G05G04G09G27G25
 109930531.589 8  85660288.48546  20919059.188                    20919067.313
 124614366.322 6  97102161.77243  23713330.242                    23713339.387
 120840929.936 7  94161854.354 7  22995256.063                    22995264.434
 108327860.179 8  84411463.72946  20614084.906                    20614089.785
 113659752.256 8  88566082.904 7  21628729.664                    21628736.793
 117345840.934 7  91438455.257 7  22330158.773                    22330167.797
 112591357.140 8  87733636.46545  21425401.125                    21425409.367
 123046944.744 7  95880642.57344  23415021.438                    23415031.098
 124393804.354 6  96930309.91444  23671361.125                    23671372.625
 128494199.768 7 100125420.017 7  24451642.023                    24451653.773
 11  8 16  0 28 30.0000000  0 10G10G30G17G02G12G05G04G09G27G25
 109918189.425 8  85650671.23546  20916710.734                    20916718.695
 124514725.219 6  97024519.42943  23694369.711                    23694378.367
 120891566.369 7  94201311.280 6  23004891.438                    23004900.254
 108321911.082 8  84406828.08246  20612952.492                    20612958.020
 113593303.008 8  88514304.295 7  21616084.500                    21616091.945
 117250579.116 7  91364225.365 7  22312031.195                    22312039.887
 112665207.674 8  87791182.32445  21439454.297                    21439462.414
 123122642.876 6  95939628.06244  23429426.102                    23429436.523
 124455732.913 6  96978565.83943  23683145.234                    23683157.262
 128392140.678 7 100045893.527 7  24432221.141                    24432232.539
 11  8 16  0 29  0.0000000  0 10G10G30G17G02G12G05G04G09G27G25
 109906468.671 8  85641538.19946  20914480.195                    20914488.500
 124415330.619 6  96947069.15943  23675455.281                    23675464.406
 120942349.248 7  94240882.345 6  23014555.086                    23014563.676
 108316273.793 8  84402435.39846  20611879.758                    20611885.246
 113527244.599 8  88462830.236 7  21603514.086                    21603521.418
 117155566.769 7  91290189.881 7  22293950.664                    22293959.520
 112739236.880 8  87848867.39345  21453541.969                    21453550.160
 123198564.448 7  95998787.67244  23443873.992                    23443883.949
 124517777.387 6  97026912.07344  23694952.734                    23694963.297
 128290212.833 7  99966469.317 6  24412824.797                    24412836.121
 11  8 16  0 29 30.0000000  0 10G10G30G17G02G12G05G04G09G27G25
 109895370.104 8  85632889.97946  20912368.125                    20912376.113
 124316185.061 6  96869812.95743  23656588.609                    23656597.613
 120993278.962 7  94280567.809 6  23024247.266                    23024254.984
 108310946.759 8  84398284.47746  20610866.336                    20610871.824
 113461579.340 8  88411662.528 7  21591018.266                    21591025.879
 117060806.844 7  91216351.081 7  22275918.281                    22275927.016
 112813442.416 8  87906689.87045  21467662.836                    21467670.430
 123274705.883 7  96058118.57744  23458363.078                    23458373.238
 124579934.729 6  97075346.26443  23706781.328                    23706791.758
 128188418.405 7  99887149.061 6  24393453.477                    24393464.988
 11  8 16  0 30  0.0000000  0 10G10G30G17G02G12G05G04G09G27G25
 109884894.389 8  85624727.11046  20910374.445                    20910382.496
 124217291.385 6  96792752.99244  23637769.656                    23637778.113
 121044356.050 7  94320368.119 6  23033966.359                    23033974.953
 108305928.957 8  84394374.50546  20609911.547                    20609916.457
 113396309.349 8  88360802.820 7  21578597.617                    21578605.402
 116966302.142 7  91142711.154 7  22257934.563                    22257943.250
 112887822.128 8  87964648.07045  21481816.891                    21481825.016
 123351063.865 6  96117618.24844  23472894.141                    23472903.785
 124642202.218 7  97123866.29344  23718630.250                    23718641.023
 128086760.029 6  99807934.834 6  24374108.086                    24374120.031
 11  8 16  0 30 30.0000000  0 10G10G30G17G02G12G05G04G09G27G25
 109875041.815 8  85617049.80246  20908499.945                    20908507.734
 124118652.251 6  96715891.39444  23618998.875                    23619007.934
 121095581.073 7  94360283.696 6  23043714.852                    23043722.766
 108301219.458 8  84390704.78546  20609015.047                    20609020.469
 113331436.779 8  88310252.802 7  21566252.820                    21566260.523
 116872055.436 7  91069272.255 7  22239999.906                    22240008.762
 112962373.678 8  88022740.17645  21496003.211                    21496011.535
 123427634.807 7  96177283.84544  23487464.875                    23487474.883
 124704576.943 7  97172469.87643  23730499.930                    23730510.910
 127985240.054 6  99728828.432 6  24354789.516                    24354801.578
 11  8 16  0 31  0.0000000  0 10G10G30G17G02G12G05G04G09G27G25
 109865813.393 8  85609858.84546  20906743.586                    20906751.449
 124020270.734 6  96639230.52444  23600277.273                    23600286.273
 121146954.744 7  94400315.128 6  23053490.563                    23053498.527
 108296817.185 8  84387274.44946  20608177.375                    20608182.551
 113266964.691 8  88260014.835 7  21553983.875                    21553991.758
 116778069.727 7  90996036.745 7  22222115.008                    22222123.535
 113037095.253 8  88080964.75845  21510222.664                    21510230.695
 123504415.470 7  96237112.87844  23502075.484                    23502085.848
 124767056.258 7  97221154.95343  23742388.938                    23742400.199
 127883861.207 6  99649831.993 6  24335497.453                    24335509.527
 11  8 16  0 31 30.0000000  0 10G10G30G17G02G12G05G04G09G27G25
 109857209.892 8  85603154.84246  20905106.703                    20905114.551
 123922149.835 7  96562772.74544  23581605.867                    23581614.527
 121198477.550 7  94440462.758 6  23063295.141                    23063303.000
 108292721.388 8  84384082.93446  20607398.078                    20607403.656
 113202895.707 8  88210090.983 7  21541792.641                    21541799.746
 116684348.187 7  90923007.085 7  22204280.109                    22204289.129
 113111984.879 8  88139320.29645  21524473.523                    21524481.430
 123581402.651 7  96297102.80944  23516725.578                    23516736.117
 124829637.533 6  97269919.48843  23754297.766                    23754309.379
 127782626.155 6  99570947.598 6  24316233.891                    24316244.684
 11  8 16  0 32  0.0000000  0 10G10G30G17G02G12G05G04G09G27G25
 109849231.853 8  85596938.20746  20903588.227                    20903596.512
 123824292.119 7  96486520.03844  23562984.656                    23562992.930
 121250150.123 7  94480727.093 6  23073128.344                    23073136.512
 108288930.924 8  84381129.34946  20606676.781                    20606682.035
 113139232.093 8  88160483.001 7  21529677.656                    21529685.336
 116590893.650 7  90850185.462 7  22186496.453                    22186504.902
 113187040.167 8  88197804.91845  21538756.023                    21538763.801
 123658592.735 7  96357250.85644  23531414.227                    23531424.672
 124892318.002 7  97318761.30043  23766225.820                    23766236.801
 127681537.292 6  99492177.096 6  24296997.188                    24297008.488
 11  8 16  0 32 30.0000000  0 10G10G30G17G02G12G05G04G09G27G25
 109841879.646 8  85591209.23346  20902189.344                    20902197.141
 123726700.282 7  96410474.50644  23544412.625                    23544421.707
 121301972.929 7  94521108.472 6  23082990.078                    23082998.047
 108285444.112 8  84378412.37046  20606012.906                    20606018.402
 113075975.736 8  88111192.356 7  21517640.289                    21517647.445
 116497708.934 7  90777574.098 7  22168764.398                    22168773.117
 113262258.941 7  88256416.92945  21553069.508                    21553077.809
 123735981.950 6  96417554.06344  23546140.961                    23546151.855
 124955094.436 7  97367677.91543  23778171.922                    23778182.836
 127580596.967 6  99413522.344 6  24277788.359                    24277799.875
 11  8 16  0 33  0.0000000  0 10G10G30G17G02G12G05G04G09G27G25
 109835154.033 7  85585968.51546  20900909.453                    20900917.027
 123629377.225 7  96334638.38344  23525892.344                    23525901.820
 121353946.489 7  94561607.338 6  23092880.367                    23092888.215
 108282260.177 8  84375931.40046  20605407.148                    20605412.828
 113013129.489 8  88062221.284 7  21505681.156                    21505688.375
 116404796.767 7  90705175.115 7  22151082.945                    22151092.445
 113337639.150 8  88315154.73445  21567414.289                    21567422.363
 123813567.035 7  96478009.89544  23560905.211                    23560915.852
 125017964.364 6  97416667.36243  23790135.758                    23790147.020
 127479807.950 7  99334985.487 6  24258609.070                    24258620.133
 11  8 16  0 33 30.0000000  0 10G10G30G17G02G12G05G04G09G27G25
 109829055.664 8  85581216.55446  20899749.031                    20899756.836
 123532325.867 6  96259013.98944  23507424.641                    23507433.250
 121406071.284 7  94602224.027 7  23102799.156                    23102807.160
 108279378.086 8  84373685.63046  20604858.547                    20604864.039
 112950695.524 8  88013571.468 7  21493800.156                    21493807.570
 116312160.291 7  90632990.953 7  22133454.797                    22133463.594
 113413178.786 8  88374016.77545  21581789.328                    21581797.156
 123891344.738 7  96538615.84044  23575705.977                    23575716.027
 125080925.000 6  97465727.48943  23802116.891                    23802128.223
 127379172.626 7  99256568.397 6  24239458.578                    24239469.711
 11  8 16  0 34  0.0000000  0 10G10G30G17G02G12G05G04G09G27G25
 109823585.024 7  85576953.73746  20898707.750                    20898715.848
 123435549.133 6  96183603.58244  23489008.445                    23489017.246
 121458347.950 7  94642959.073 7  23112747.195                    23112755.625
 108276796.988 8  84371674.40746  20604367.594                    20604373.078
 112888676.124 7  87965244.689 7  21481998.484                    21482005.461
 116219802.633 7  90561024.043 7  22115879.703                    22115888.617
 113488875.886 8  88433001.50945  21596193.656                    21596201.277
 123969311.710 7  96599369.26244  23590542.359                    23590553.211
 125143973.768 6  97514856.28843  23814114.305                    23814125.672
 127278693.820 7  99178273.263 6  24220338.070                    24220348.992
 11  8 16  0 34 30.0000000  0 10G10G30G17G02G12G05G04G09G27G25
 109818742.792 8  85573180.58846  20897786.273                    20897793.785
 123339049.951 6  96108409.43844  23470645.273                    23470653.734
 121510777.453 7  94683813.206 7  23122723.820                    23122732.484
 108274516.022 8  84369897.05346  20603933.734                    20603938.988
 112827073.961 8  87917243.020 7  21470275.500                    21470283.180
 116127726.521 7  90489276.526 7  22098358.344                    22098366.832
 113564728.324 8  88492107.28645  21610627.945                    21610635.742
 124047464.308 7  96660267.30944  23605414.305                    23605424.906
 125207107.862 6  97564051.56743  23826129.320                    23826139.645
 127178374.170 7  99100102.178 6  24201248.258                    24201259.152
 11  8 16  0 35  0.0000000  0 10G10G30G17G02G12G05G04G09G27G25
 109814528.881 7  85569897.04846  20896984.531                    20896992.043
 123242830.599 6  96033433.37944  23452334.789                    23452343.801
 121563359.741 7  94724786.381 7  23132730.148                    23132738.742
 108272533.260 8  84368352.06146  20603556.180                    20603561.684
 112765890.693 7  87869567.761 7  21458633.156                    21458640.410
 116035934.520 7  90417750.381 7  22080890.695                    22080899.422
 113640733.969 8  88551332.44745  21625091.445                    21625099.465
 124125799.060 6  96721307.29044  23620320.633                    23620331.434
 125270323.950 6  97613310.75843  23838157.766                    23838169.926
 127078215.747 7  99022056.724 6  24182188.453                    24182199.906
 11  8 16  0 35 30.0000000  0 10G10G30G17G02G12G05G04G09G27G25
 109810944.397 7  85567103.95246  20896302.508                    20896310.137
 123146894.515 7  95958678.01644  23434079.383                    23434088.250
 121616095.605 7  94765879.221 7  23142765.070                    23142774.012
 108270848.103 7  84367038.97146  20603235.367                    20603241.102
 112705129.366 7  87822221.294 7  21447070.586                    21447077.547
 115944429.893 7  90346448.177 7  22063477.766                    22063486.715
 113716890.795 8  88610675.41245  21639583.383                    21639591.773
 124204312.868 7  96782486.80644  23635262.055                    23635272.520
 125333619.874 6  97662632.14543  23850203.672                    23850214.629
 126978221.603 7  98944139.271 6  24163160.727                    24163171.367
 11  8 16  0 36  0.0000000  0 10G10G30G17G02G12G05G04G09G27G25
 109807989.540 8  85564801.48046  20895740.125                    20895747.984
 123051244.346 7  95884145.44744  23415877.625                    23415886.477
 121668985.802 7  94807092.340 7  23152830.070                    23152838.883
 108269459.467 8  84365956.93346  20602971.211                    20602976.613
 112644792.413 7  87775205.500 7  21435588.797                    21435595.961
 115853215.678 7  90275372.258 7  22046120.352                    22046129.273
 113793196.807 8  88670134.61545  21654103.984                    21654112.055
 124283001.988 7  96843802.91644  23650235.945                    23650246.375
 125396992.642 6  97712013.38943  23862262.664                    23862274.367
 126878394.182 7  98866351.761 6  24144163.977                    24144174.617
 11  8 16  0 36 30.0000000  0 10G10G30G17G02G12G05G04G09G27G25
 109805664.641 8  85562989.90646  20895297.594                    20895305.301
 122955883.211 6  95809838.11044  23397731.414                    23397740.043
 121722030.895 7  94848426.160 7  23162924.883                    23162933.266
 108268366.660 8  84365105.40446  20602763.102                    20602768.867
 112584882.231 7  87728522.256 7  21424188.219                    21424195.371
 115762294.727 7  90204524.859 7  22028818.477                    22028826.824
 113869650.104 8  88729708.59745  21668652.383                    21668660.602
 124361863.351 6  96905253.24944  23665242.875                    23665253.422
 125460439.925 6  97761452.71043  23874336.328                    23874347.754
 126778736.269 7  98788696.328 6  24125199.438                    24125210.660
 11  8 16  0 37  0.0000000  0 10G10G30G17G02G12G05G04G09G27G25
 109803970.138 8  85561669.53946  20894975.125                    20894982.875
 122860813.686 7  95735758.01444  23379640.539                    23379648.426
 121775231.160 7  94889880.882 6  23173048.070                    23173056.203
 108267568.144 8  84364483.19946  20602611.297                    20602616.527
 112525400.706 7  87682173.035 7  21412869.172                    21412876.523
 115671669.880 7  90133908.193 7  22011573.313                    22011581.609
 113946248.541 8  88789395.66645  21683228.992                    21683236.910
 124440893.504 7  96966835.11644  23680281.781                    23680292.086
 125523958.790 6  97810947.83543  23886424.117                    23886435.301
 126679250.314 7  98711174.885 6  24106267.742                    24106278.949
 11  8 16  0 37 30.0000000  0 10G10G30G17G02G12G05G04G09G27G25
 109802906.417 8  85560840.69946  20894772.570                    20894780.316
 122766038.808 6  95661907.52944  23361604.742                    23361613.199
 121828587.337 7  94931457.108 6  23183202.102                    23183209.633
 108267063.101 8  84364089.67546  20602515.258                    20602520.781
 112466350.489 7  87636159.891 7  21401632.086                    21401639.492
 115581344.204 7  90063524.636 7  21994385.164                    21994393.707
 114022990.200 8  88849194.33745  21697832.305                    21697840.418
 124520089.083 7  97028545.87444  23695352.391                    23695362.664
 125587546.342 6  97860496.46443  23898523.516                    23898535.508
 126579939.031 7  98633789.552 6  24087369.578                    24087380.641
 11  8 16  0 38  0.0000000  0 10G10G30G17G02G12G05G04G09G27G25
 109802473.530 8  85560503.40946  20894690.219                    20894697.809
 122671561.188 7  95588288.64844  23343625.703                    23343635.012
 121882100.147 7  94973155.387 6  23193384.500                    23193393.535
 108266850.389 7  84363923.94146  20602474.516                    20602480.227
 112407733.681 7  87590484.475 7  21390477.648                    21390485.176
 115491320.435 7  89993376.323 7  21977253.672                    21977262.488
 114099872.771 8  88909102.82445  21712462.523                    21712470.598
 124599446.389 7  97090382.64843  23710453.961                    23710463.973
 125651199.793 6  97910096.42943  23910636.227                    23910648.578
 126480804.819 7  98556542.168 6  24068504.516                    24068515.973
 11  8 16  0 38 30.0000000  0 10G10G30G17G02G12G05G04G09G27G25
 109802671.841 8  85560657.96946  20894728.039                    20894735.340
 122577383.666 7  95514903.61044  23325704.906                    23325713.414
 121935769.831 7  95014975.913 6  23203598.000                    23203606.727
 108266928.444 8  84363984.77146  20602489.445                    20602494.648
 112349552.659 7  87545148.620 7  21379406.422                    21379413.586
 115401601.232 7  89923465.352 7  21960181.016                    21960189.469
 114176894.582 8  88969119.78845  21727119.383                    21727127.746
 124678961.994 7  97152342.77844  23725584.789                    23725595.449
 125714916.513 6  97959745.71943  23922761.711                    23922774.016
 126381850.389 7  98479434.881 6  24049673.945                    24049685.352
 11  8 16  0 39  0.0000000  0 10G10G30G17G02G12G05G04G09G27G25
 109803501.433 8  85561304.43046  20894886.055                    20894893.383
 122483509.181 7  95441754.71644  23307841.227                    23307849.391
 121989596.810 7  95056918.994 6  23213840.500                    23213849.141
 108267296.230 8  84364271.36746  20602559.672                    20602564.801
 112291809.485 7  87500153.952 7  21368418.281                    21368425.520
 115312189.485 7  89853793.952 7  21943165.875                    21943174.664
 114254053.564 8  89029243.65745  21741802.602                    21741810.555
 124758632.615 7  97214423.68944  23740745.742                    23740756.223
 125778693.492 6  98009441.95143  23934898.813                    23934910.297
 126283078.276 7  98402469.642 6  24030878.063                    24030889.734
 11  8 16  0 39 30.0000000  0 10G10G30G17G02G12G05G04G09G27G25
 109804962.442 8  85562442.91046  20895163.930                    20895171.309
 122389940.492 7  95368844.11644  23290035.297                    23290043.836
 122043581.845 7  95098985.255 6  23224113.438                    23224121.859
 108267952.682 8  84364782.90346  20602684.586                    20602689.805
 112234506.628 8  87455502.392 7  21357514.023                    21357521.207
 115223088.137 7  89784364.430 7  21926210.336                    21926219.051
 114331347.590 7  89089472.74245  21756511.453                    21756518.941
 124838454.890 6  97276622.77644  23755935.813                    23755945.965
 125842528.044 6  98059183.04444  23947046.008                    23947057.535
 126184491.160 7  98325648.550 6  24012117.898                    24012129.258
 11  8 16  0 40  0.0000000  0 10G10G30G17G02G12G05G04G09G27G25
 109807055.624 8  85564073.98446  20895562.086                    20895570.098
 122296680.653 7  95296174.17344  23272288.148                    23272296.605
 122097725.324 7  95141174.965 6  23234416.578                    23234425.363
 108268897.189 8  84365518.88546  20602864.281                    20602869.316
 112177646.454 7  87411195.776 7  21346693.563                    21346700.906
 115134300.303 7  89715179.192 7  21909314.383                    21909323.090
 114408774.928 8  89149805.71345  21771244.805                    21771253.035
 124918425.543 7  97338937.48444  23771153.875                    23771164.578
 125906417.618 6  98108967.03244  23959203.688                    23959215.723
 126086091.825 7  98248973.776 6  23993393.305                    23993404.383
 11  8 16  0 40 30.0000000  0 10G10G30G17G02G12G05G04G09G27G25
 109809780.692 8  85566197.44846  20896080.750                    20896088.449
 122203732.371 7  95223747.00844  23254601.234                    23254609.563
 122152027.988 7  95183488.712 6  23244750.078                    23244758.359
 108270128.478 8  84366478.34546  20603098.313                    20603103.879
 112121231.098 7  87367235.774 7  21335958.461                    21335965.605
 115045828.637 7  89646240.317 7  21892479.094                    21892487.730
 114486333.511 8  89210240.95745  21786003.367                    21786011.813
 124998541.264 7  97401365.21743  23786399.609                    23786409.871
 125970359.426 6  98158791.71943  23971371.406                    23971383.320
 125987882.839 7  98172447.328 6  23974704.297                    23974715.824
 11  8 16  0 41  0.0000000  0 10G10G30G17G02G12G05G04G09G27G25
 109813137.749 8  85568813.35946  20896719.375                    20896727.305
 122111098.295 7  95151564.64644  23236973.859                    23236982.539
 122206490.348 7  95225926.898 6  23255114.047                    23255122.566
 108271644.923 8  84367659.99546  20603386.984                    20603392.402
 112065262.860 8  87323624.176 7  21325307.984                    21325315.148
 114957676.042 7  89577550.070 7  21875704.305                    21875712.469
 114564021.347 8  89270776.91145  21800787.008                    21800795.672
 125078798.316 7  97463903.06844  23801671.844                    23801682.000
 126034350.632 6  98208654.88743  23983548.523                    23983560.207
 125889866.649 7  98096071.103 6  23956052.289                    23956063.684
 11  8 16  0 41 30.0000000  0 10G10G30G17G02G12G05G04G09G27G25
 109817127.055 7  85571921.92946  20897478.453                    20897486.359
 122018781.416 7  95079629.47744  23219406.648                    23219414.813
 122261112.512 7  95268489.597 6  23265508.344                    23265516.766
 108273445.430 7  84369062.99946  20603729.813                    20603735.043
 112009743.885 8  87280362.664 7  21314743.203                    21314749.844
 114869845.350 7  89509110.657 7  21858990.734                    21858999.285
 114641836.694 8  89331412.23245  21815594.961                    21815603.133
 125159193.312 7  97526548.44543  23816969.914                    23816981.313
 126098388.506 6  98258554.41843  23995735.148                    23995746.531
 125792045.919 7  98019847.189 6  23937437.820                    23937449.109
 11  8 16  0 42  0.0000000  0 10G10G30G17G02G12G05G04G09G27G25
 109821748.746 8  85575523.27146  20898357.953                    20898365.762
 121926784.646 6  95007943.73744  23201900.000                    23201908.070
 122315895.416 7  95311177.566 7  23275932.992                    23275941.922
 108275529.350 8  84370686.84347  20604126.055                    20604131.832
 111954676.454 8  87237452.996 7  21304264.125                    21304271.090
 114782339.395 7  89440924.287 7  21842338.531                    21842347.090
 114719777.478 7  89392145.29245  21830426.188                    21830434.492
 125239723.074 6  97589298.80843  23832294.758                    23832305.273
 126162470.578 6  98308488.40043  24007929.352                    24007941.199
 125694423.483 7  97943777.792 6  23918860.609                    23918871.680
 11  8 16  0 42 30.0000000  0 10G10G30G17G02G12G05G04G09G27G25
 109827003.004 8  85579617.51546  20899358.258                    20899365.555
 121835110.919 6  94936509.70544  23184454.273                    23184462.922
 122370839.396 7  95353991.026 7  23286388.805                    23286397.566
 108277895.467 8  84372530.57846  20604576.414                    20604581.813
 111900063.315 8  87194897.329 7  21293870.953                    21293878.207
 114695161.167 7  89372993.279 7  21825749.117                    21825757.477
 114797841.754 7  89452974.57145  21845281.656                    21845290.043
 125320384.524 6  97652151.79743  23847644.422                    23847654.832
 126226594.117 6  98358454.66543  24020132.055                    24020143.305
 125597002.108 7  97867865.060 6  23900322.117                    23900333.168
 11  8 16  0 43  0.0000000  0 10G10G30G17G02G12G05G04G09G27G25
 109832889.239 8  85584204.21346  20900478.133                    20900485.402
 121743762.683 6  94865329.30244  23167071.852                    23167080.594
 122425944.841 7  95396930.301 6  23296874.836                    23296883.266
 108280542.370 8  84374593.11446  20605080.039                    20605085.570
 111845905.668 8  87152696.593 7  21283565.445                    21283572.746
 114608313.090 7  89305319.535 7  21809222.602                    21809230.426
 114876027.513 8  89513898.51445  21860159.891                    21860168.500
 125401173.821 7  97715104.43443  23863018.258                    23863027.984
 126290756.049 6  98408450.89943  24032341.352                    24032353.027
 125499783.970 7  97792110.710 6  23881821.945                    23881833.238
 11  8 16  0 43 30.0000000  0 10G10G30G17G02G12G05G04G09G27G25
 109839407.419 8  85589283.32646  20901718.250                    20901725.781
 121652742.893 6  94794404.85944  23149750.617                    23149759.828
 122481212.478 7  95439995.978 6  23307391.734                    23307400.668
 108283468.993 7  84376873.60046  20605637.188                    20605642.555
 111792206.006 8  87110852.718 7  21273347.039                    21273353.879
 114521798.069 7  89237905.309 7  21792758.984                    21792767.078
 114954332.963 8  89574915.73345  21875060.742                    21875068.848
 125482087.776 7  97778154.19543  23878415.719                    23878425.738
 126354953.634 6  98458474.83943  24044557.703                    24044569.949
 125402771.973 7  97716517.017 6  23863361.211                    23863372.801
 11  8 16  0 44  0.0000000  0 10G10G30G17G02G12G05G04G09G27G25
 109846557.724 8  85594855.00746  20903079.219                    20903086.379
 121562054.316 7  94723738.48844  23132493.195                    23132502.125
 122536642.682 7  95483188.327 6  23317939.844                    23317948.719
 108286674.037 8  84379371.05046  20606246.719                    20606252.219
 111738966.606 8  87069367.501 7  21263215.836                    21263222.801
 114435618.712 7  89170752.651 7  21776359.383                    21776367.934
 115032756.022 8  89636024.58145  21889984.258                    21889992.719
 125563122.996 7  97841298.43443  23893836.117                    23893846.688
 126419183.999 6  98508524.37043  24056780.766                    24056791.656
 125305968.651 7  97641085.911 6  23844940.445                    23844951.586
 11  8 16  0 44 30.0000000  0 10G10G30G17G02G12G05G04G09G27G25
 109854340.136 8  85600919.24246  20904560.086                    20904567.793
 121471700.087 7  94653332.64244  23115299.227                    23115308.137
 122592236.009 7  95526507.788 7  23328518.852                    23328527.754
 108290156.863 8  84382084.95146  20606909.703                    20606914.770
 111686189.836 8  87028242.770 7  21253172.813                    21253179.816
 114349778.363 7  89103864.152 7  21760024.570                    21760033.109
 115111295.201 8  89697223.92245  21904930.172                    21904938.504
 125644276.258 7  97904534.65043  23909279.133                    23909289.430
 126483445.050 6  98558597.80943  24069008.695                    24069020.750
 125209377.014 7  97565819.767 6  23826559.219                    23826570.387
 11  8 16  0 45  0.0000000  0 10G10G30G17G02G12G05G04G09G27G25
 109862755.026 8  85607476.30946  20906160.898                    20906168.785
 121381683.206 7  94583189.69644  23098169.695                    23098178.621
 122647993.172 7  95569954.928 6  23339129.164                    23339137.852
 108293916.587 8  84385014.61946  20607625.320                    20607630.434
 111633878.240 8  86987480.509 7  21243218.234                    21243225.246
 114264280.039 8  89037242.165 7  21743754.891                    21743762.910
 115189948.558 8  89758512.22945  21919897.508                    21919905.273
 125725544.298 7  97967860.31443  23924743.977                    23924754.707
 126547733.985 6  98608692.98643  24081242.547                    24081254.660
 125112999.723 7  97490720.646 6  23808219.594                    23808230.051
 11  8 16  0 45 30.0000000  0 10G10G30G17G02G12G05G04G09G27G25
 109871800.855 8  85614525.01846  20907882.664                    20907890.488
 121292005.380 7  94513310.90544  23081104.641                    23081113.266
 122703914.325 7  95613529.839 6  23349770.688                    23349779.152
 108297950.592 8  84388158.00646  20608392.742                    20608398.043
 111582032.466 8  86947081.232 7  21233352.633                    21233359.129
 114179125.571 7  88970888.115 7  21727550.547                    21727558.586
 115268713.468 8  89819887.45645  21934886.063                    21934894.172
 125806923.161 7  98031272.32643  23940229.867                    23940240.672
 126612047.263 6  98658807.09142  24093480.023                    24093493.082
 125016838.571 7  97415789.942 6  23789920.414                    23789930.797
 11  8 16  0 46  0.0000000  0 10G10G30G17G02G12G05G04G09G27G25
 109881478.226 8  85622065.83246  20909724.070                    20909731.770
 121202670.095 7  94443699.06444  23064104.516                    23064113.152
 122759999.824 7  95657232.822 6  23360443.656                    23360451.383
 108302258.232 8  84391514.63146  20609212.492                    20609217.598
 111530655.452 8  86907047.216 7  21223575.469                    21223582.266
 114094317.951 8  88904804.334 7  21711411.914                    21711419.965
 115347588.711 8  89881348.66345  21949895.172                    21949903.883
 125888409.850 7  98094768.35843  23955736.492                    23955747.289
 126676382.720 6  98708938.45442  24105724.320                    24105736.051
 124920896.697 7  97341030.104 6  23771663.406                    23771674.402
 11  8 16  0 46 30.0000000  0 10G10G30G17G02G12G05G04G09G27G25
 109891787.213 8  85630098.82046  20911685.789                    20911693.418
 121113680.409 7  94374356.51244  23047170.148                    23047179.004
 122816250.507 7  95701064.516 6  23371147.430                    23371156.063
 108306839.131 8  84395084.16846  20610084.109                    20610089.340
 111479749.934 8  86867380.598 7  21213888.281                    21213895.316
 114009860.528 7  88838993.430 7  21695339.859                    21695348.098
 115426572.515 8  89942894.45645  21964925.383                    21964933.746
 125970001.199 6  98158345.95043  23971262.047                    23971274.164
 126740737.854 6  98759085.21642  24117970.086                    24117982.625
 124825177.207 7  97266443.547 6  23753448.703                    23753459.043
 11  8 16  0 47  0.0000000  0 10G10G30G17G02G12G05G04G09G27G25
 109902727.722 8  85638623.90546  20913767.492                    20913775.332
 121025039.004 7  94305285.32844  23030303.109                    23030311.328
 122872666.862 6  95745025.304 6  23381883.063                    23381891.586
 108311691.855 8  84398865.53346  20611007.547                    20611012.766
 111429317.281 8  86828082.444 7  21204291.156                    21204298.387
 113925755.795 8  88773457.346 7  21679335.758                    21679343.465
 115505663.004 8  90004523.38045  21979976.273                    21979984.457
 126051693.702 6  98222002.34543  23986808.180                    23986819.238
 126805109.905 6  98809245.13343  24130219.977                    24130232.586
 124729682.512 7  97192032.173 6  23735276.406                    23735287.520
 11  8 16  0 47 30.0000000  0 10G10G30G17G02G12G05G04G09G27G25
 109914298.981 8  85647640.49046  20915969.711                    20915976.910
 120936748.440 7  94236487.53944  23013500.859                    23013509.566
 122929249.183 7  95789115.433 6  23392650.664                    23392658.527
 108316815.031 8  84402857.63046  20611982.438                    20611987.793
 111379359.718 8  86789154.486 7  21194784.367                    21194791.598
 113842006.354 8  88708198.117 7  21663398.672                    21663406.555
 115584858.289 8  90066233.96345  21995046.172                    21995054.430
 126133484.027 6  98285734.98043  24002372.727                    24002384.121
 126869496.073 6  98859416.05143  24142472.156                    24142485.395
 124634415.147 7  97117797.936 6  23717147.586                    23717158.504
 11  8 16  0 48  0.0000000  0 10G10G30G17G02G12G05G04G09G27G25
 109926500.779 8  85657148.39946  20918291.539                    20918299.676
 120848811.528 7  94167965.31544  22996767.992                    22996776.121
 122985997.925 7  95833335.203 6  23403449.430                    23403458.051
 108322207.261 8  84407059.39046  20613008.891                    20613014.207
 111329879.191 8  86750598.243 7  21185368.586                    21185375.695
 113758614.731 8  88643217.700 7  21647529.266                    21647537.777
 115664156.415 8  90128024.69645  22010136.273                    22010144.383
 126215368.913 6  98349541.29443  24017954.656                    24017965.770
 126933893.498 6  98909595.69243  24154727.273                    24154739.816
 124539377.711 7  97043742.853 6  23699062.172                    23699073.020
 11  8 16  0 48 30.0000000  0 10G10G30G17G02G12G05G04G09G27G25
 109939332.759 8  85667147.35746  20920733.391                    20920740.980
 120761231.155 7  94099720.90944  22980101.477                    22980109.691
 123042913.586 7  95877685.077 6  23414279.930                    23414288.473
 108327867.624 8  84411470.07446  20614085.797                    20614091.059
 111280877.698 8  86712415.277 7  21176043.539                    21176051.141
 113675583.760 8  88578518.315 7  21631729.359                    21631737.156
 115743555.591 8  90189894.15745  22025245.359                    22025253.969
 126297344.792 6  98413418.52543  24033553.633                    24033565.582
 126998299.563 6  98959782.11843  24166983.781                    24166996.234
 124444572.995 7  96969869.113 6  23681022.266                    23681032.566
 11  8 16  0 49  0.0000000  0 10G10G30G17G02G12G05G04G09G27G25
 109952794.737 8  85677637.22046  20923295.141                    20923302.691
 120674010.077 7  94031756.45944  22963504.188                    22963512.449
 123099996.604 7  95922165.354 6  23425142.641                    23425151.328
 108333795.032 8  84416088.84746  20615213.703                    20615218.816
 111232357.654 8  86674607.463 7  21166811.211                    21166818.254
 113592916.385 8  88514102.246 7  21615998.203                    21616006.160
 115823054.202 8  90251841.11045  22040373.117                    22040382.004
 126379408.668 6  98477364.31243  24049170.281                    24049181.973
 127062711.722 6  99009973.27643  24179240.641                    24179253.109
 124350003.716 7  96896178.830 6  23663025.422                    23663036.605
 11  8 16  0 49 30.0000000  0 10G10G30G17G02G12G05G04G09G27G25
 109966886.230 8  85688617.61846  20925976.633                    20925984.344
 120587151.072 7  93964074.16744  22946974.727                    22946983.453
 123157247.644 7  95966776.569 6  23436037.039                    23436045.941
 108339988.233 8  84420914.73446  20616392.313                    20616397.578
 111184321.063 8  86637176.371 7  21157670.023                    21157677.250
 113510615.303 8  88449971.601 7  21600336.539                    21600344.789
 115902650.193 7  90313863.93745  22055520.102                    22055528.230
 126461557.070 7  98541375.99244  24064802.852                    24064814.055
 127127127.236 6  99060167.04143  24191498.883                    24191512.063
 124255672.485 7  96822674.045 6  23645075.164                    23645085.684
 11  8 16  0 50  0.0000000  0 10G10G30G17G02G12G05G04G09G27G25
 109981606.708 8  85700088.14846  20928777.797                    20928785.336
 120500656.969 7  93896676.20444  22930515.898                    22930524.203
 123214666.974 7  96011518.913 7  23446964.047                    23446972.254
 108346445.980 8  84425946.75346  20617621.047                    20617626.652
 111136770.034 8  86600123.629 7  21148621.273                    21148628.516
 113428683.210 8  88386128.489 7  21584745.406                    21584753.504
 115982341.848 8  90375961.31345  22070684.430                    22070693.086
 126543786.791 6  98605451.02943  24080450.586                    24080461.539
 127191543.327 6  99110361.25943  24203757.289                    24203769.512
 124161582.014 7  96749356.853 6  23627170.180                    23627181.223
 11  8 16  0 50 30.0000000  0 10G10G30G17G02G12G05G04G09G27G25
 109996955.847 8  85712048.53346  20931698.766                    20931706.152
 120414530.455 7  93829564.65544  22914126.320                    22914134.863
 123272254.906 7  96056392.634 6  23457922.484                    23457931.234
 108353167.145 8  84431184.03646  20618899.945                    20618905.008
 111089705.920 8  86563450.303 7  21139665.273                    21139672.348
 113347122.777 8  88322574.976 7  21569224.625                    21569232.848
 116062127.470 7  90438131.89545  22085867.313                    22085875.859
 126626094.420 7  98669586.76044  24096113.141                    24096125.078
 127255957.323 6  99160553.83144  24216014.234                    24216027.672
 124067734.910 7  96676229.306 6  23609311.547                    23609321.969
 11  8 16  0 51  0.0000000  0 10G10G30G17G02G12G05G04G09G27G25
 110012932.905 8  85724498.20546  20934738.828                    20934746.613
 120328774.224 7  93762741.66644  22897807.711                    22897815.906
 123330012.028 7  96101398.179 7  23468913.016                    23468922.328
 108360150.414 8  84436625.55546  20620229.031                    20620234.480
 111043131.047 8  86527158.217 7  21130802.094                    21130809.590
 113265936.693 8  88259313.163 7  21553775.609                    21553783.887
 116142005.223 7  90500374.28245  22101067.805                    22101076.602
 126708476.658 7  98733780.64943  24111790.289                    24111801.254
 127320366.650 6  99210742.79743  24228271.555                    24228284.121
 123974133.859 7  96603293.475 6  23591499.781                    23591510.332
 11  8 16  0 51 30.0000000  0 10G10G30G17G02G12G05G04G09G27G25
 110029537.610 8  85737436.94646  20937898.734                    20937906.266
 120243391.229 7  93696209.50944  22881559.805                    22881568.105
 123387938.769 7  96146535.914 7  23479935.891                    23479945.234
 108367395.000 8  84442270.69646  20621607.391                    20621612.684
 110997047.319 8  86491248.827 7  21122032.867                    21122039.852
 113185127.463 8  88196344.997 7  21538397.969                    21538406.258
 116221973.526 7  90562687.22645  22116285.297                    22116293.559
 126790930.377 7  98798030.23544  24127481.180                    24127491.707
 127384768.678 6  99260926.05743  24240526.422                    24240539.406
 123880781.597 7  96530551.518 6  23573735.273                    23573746.020
 11  8 16  0 52  0.0000000  0 10G10G30G17G02G12G05G04G09G27G25
 110046769.469 7  85750864.38946  20941177.883                    20941185.445
 120158384.032 7  93629970.16244  22865383.836                    22865392.234
 123446035.572 7  96191806.142 7  23490992.383                    23491000.926
 108374899.292 8  84448118.21446  20623035.336                    20623040.742
 110951456.859 8  86455723.810 7  21113357.320                    21113364.715
 113104698.117 8  88133672.855 7  21523093.188                    21523101.016
 116302030.428 7  90625069.20645  22131519.094                    22131527.984
 126873452.174 7  98862332.85343  24143184.914                    24143195.637
 127449160.535 6  99311101.37943  24252780.695                    24252793.129
 123787680.720 7  96458005.438 6  23556019.406                    23556029.473
 11  8 16  0 52 30.0000000  0 10G10G30G17G02G12G05G04G09G27G25
 110064627.981 8  85764780.13046  20944576.234                    20944583.723
 120073755.503 7  93564025.91244  22849279.195                    22849287.629
 123504302.936 7  96237209.282 7  23502079.352                    23502088.633
 108382662.396 8  84454167.39746  20624512.617                    20624518.078
 110906361.620 8  86420584.682 7  21104776.250                    21104783.258
 113024651.119 8  88071298.639 7  21507860.375                    21507868.605
 116382174.312 7  90687518.96745  22146770.328                    22146778.859
 126956038.751 7  98926685.94744  24158900.320                    24158910.840
 127513539.712 6  99361266.83044  24265031.250                    24265044.109
 123694834.092 7  96385657.458 6  23538350.898                    23538361.668
 11  8 16  0 53  0.0000000  0 10G10G30G17G02G12G05G04G09G27G25
 110083112.815 8  85779183.90846  20948093.734                    20948101.242
 119989508.610 7  93498379.02344  22833247.828                    22833255.707
 123562741.312 7  96282745.667 7  23513200.070                    23513208.914
 108390683.262 8  84460417.43646  20626038.906                    20626044.512
 110861763.379 8  86385832.824 7  21096289.422                    21096296.414
 112944988.934 8  88009224.269 7  21492701.258                    21492709.137
 116462403.527 7  90750035.21945  22162037.586                    22162045.863
 127038686.898 6  98991087.00043  24174627.625                    24174638.805
 127577903.711 6  99411420.45943  24277279.383                    24277292.078
 123602244.376 7  96313509.667 6  23520731.445                    23520742.469
 11  8 16  0 53 30.0000000  0 10G10G30G17G02G12G05G04G09G27G25
 110102222.803 8  85794074.82846  20951729.984                    20951737.859
 119905645.608 7  93433031.27744  22817288.859                    22817297.070
 123621350.898 6  96328415.443 7  23524352.719                    23524362.418
 108398960.240 8  84466867.03946  20627614.289                    20627619.664
 110817663.986 8  86351469.678 8  21087897.313                    21087904.383
 112865714.259 8  87947451.862 7  21477615.828                    21477623.762
 116542716.201 7  90812616.49745  22177320.695                    22177329.023
 127121393.330 6  99055533.49843  24190365.359                    24190377.094
 127642249.415 6  99461559.83343  24289523.750                    24289536.773
 123509913.967 7  96241563.940 6  23503161.273                    23503172.230
 11  8 16  0 54  0.0000000  0 10G10G30G17G02G12G05G04G09G27G25
 110121957.290 8  85809452.35746  20955485.500                    20955493.156
 119822169.323 7  93367984.86644  22801403.852                    22801411.922
 123680132.351 6  96374219.155 6  23535538.570                    23535547.426
 108407492.430 8  84473515.51046  20629237.773                    20629242.992
 110774065.315 8  86317496.700 7  21079600.844                    21079607.770
 112786829.779 8  87885983.498 7  21462604.219                    21462612.461
 116623110.459 7  90875261.35245  22192619.438                    22192627.813
 127204154.759 7  99120022.82643  24206115.289                    24206126.516
 127706574.495 6  99511683.09343  24301764.930                    24301777.625
 123417845.683 7  96169822.462 6  23485641.078                    23485652.414
 11  8 16  0 54 30.0000000  0 10G10G30G17G02G12G05G04G09G27G25
 110142315.988 8  85825316.29046  20959359.414                    20959367.199
 119739082.800 7  93303242.16544  22785592.914                    22785600.746
 123739085.941 6  96420156.963 6  23546757.547                    23546765.895
 108416278.723 8  84480361.98046  20630910.000                    20630915.281
 110730969.709 8  86283915.723 7  21071399.875                    21071406.617
 112708338.168 8  87824821.263 7  21447667.922                    21447675.914
 116703585.252 7  90937968.96045  22207932.938                    22207940.961
 127286967.968 6  99184552.52643  24221873.750                    24221885.551
 127770876.552 6  99561788.46143  24314001.039                    24314014.117
 123326042.375 7  96098287.454 6  23468171.648                    23468182.484
 11  8 16  0 55  0.0000000  0 10G10G30G17G02G12G05G04G09G27G25
 110163298.054 8  85841665.96646  20963352.570                    20963360.012
 119656388.515 7  93238805.12744  22769856.352                    22769864.801
 123798211.875 6  96466229.116 6  23558008.391                    23558016.973
 108425317.740 8  84487405.37246  20632629.508                    20632635.020
 110688378.606 8  86250727.869 7  21063295.188                    21063302.637
 112630242.067 8  87763967.218 7  21432806.656                    21432814.602
 116784138.468 7  91000737.67945  22223261.672                    22223270.309
 127369829.814 6  99249120.08843  24237642.727                    24237653.859
 127835152.663 6  99611873.57143  24326232.266                    24326245.910
 123234506.670 7  96026960.980 6  23450753.398                    23450763.922
 11  8 16  0 55 30.0000000  0 10G10G30G17G02G12G05G04G09G27G25
 110184902.755 8  85858500.81346  20967463.625                    20967471.352
 119574089.047 7  93174675.72144  22754195.000                    22754203.988
 123857510.855 6  96512436.078 6  23569292.789                    23569300.945
 108434608.130 8  84494644.64546  20634397.625                    20634402.680
 110646293.662 8  86217934.425 7  21055286.344                    21055293.668
 112552543.755 8  87703423.151 7  21418021.039                    21418028.969
 116864768.332 7  91063566.12845  22238605.195                    22238613.672
 127452736.565 7  99313722.65643  24253418.883                    24253430.797
 127899400.067 6  99661936.32543  24338458.680                    24338471.555
 123143241.068 7  95955844.975 7  23433385.523                    23433396.402
 11  8 16  0 56  0.0000000  0 10G10G30G17G02G12G05G04G09G27G25
 110207129.402 8  85875820.28646  20971693.242                    20971701.004
 119492187.211 7  93110856.15644  22738609.898                    22738618.582
 123916983.270 7  96558778.207 6  23580610.133                    23580617.758
 108444148.786 8  84502078.93746  20636213.359                    20636218.590
 110604716.798 8  86185536.891 7  21047374.688                    21047381.625
 112475245.856 8  87643191.078 7  21403311.914                    21403319.855
 116945473.159 7  91126452.98745  22253962.695                    22253971.504
 127535685.239 6  99378357.88743  24269203.930                    24269215.156
 127963616.277 6  99711974.76243  24350678.023                    24350691.840
 123052248.328 7  95884941.579 7  23416070.328                    23416081.297
 11  8 16  0 56 30.0000000  0 10G10G30G17G02G12G05G04G09G27G25
 110229976.775 8  85893623.45146  20976041.086                    20976048.332
 119410685.760 7  93047348.58244  22723100.617                    22723108.988
 123976629.327 7  96605255.638 6  23591960.492                    23591968.230
 108453938.720 8  84509707.46946  20638076.086                    20638081.484
 110563650.134 8  86153536.909 7  21039559.781                    21039567.203
 112398351.260 8  87583273.273 7  21388679.250                    21388687.219
 117026251.392 7  91189397.03645  22269334.180                    22269343.102
 127618672.773 6  99443023.38143  24284995.656                    24285007.141
 128027798.766 6  99761986.88242  24362892.430                    24362905.609
 122961531.216 7  95814252.970 6  23398807.664                    23398818.066
 11  8 16  0 57  0.0000000  0 10G10G30G17G02G12G05G04G09G27G25
 110253444.382 8  85911909.90146  20980506.422                    20980513.953
 119329587.299 7  92984155.02044  22707668.094                    22707676.906
 124036449.554 7  96651868.806 6  23603343.859                    23603351.707
 108463976.560 8  84517529.16646  20639986.266                    20639991.691
 110523095.652 8  86121936.040 7  21031842.742                    21031849.535
 112321862.231 8  87523671.495 7  21374123.555                    21374131.801
 117107101.635 7  91252397.21045  22284720.109                    22284728.160
 127701695.810 6  99507716.53943  24300794.273                    24300806.250
 128091944.760 6  99811970.59642  24375097.859                    24375112.465
 122871092.229 7  95743781.087 6  23381597.328                    23381607.977
 11  8 16  0 57 30.0000000  0 10G10G30G17G02G12G05G04G09G27G25
 110277531.214 8  85930678.87946  20985089.992                    20985097.879
 119248894.399 7  92921277.47044  22692312.789                    22692321.594
 124096443.936 7  96698617.673 6  23614760.953                    23614768.703
 108474261.052 8  84525543.06646  20641943.109                    20641948.488
 110483053.869 8  86090734.673 7  21024222.688                    21024230.086
 112245781.304 8  87464387.716 7  21359645.953                    21359654.031
 117188021.764 7  91315451.85045  22300117.961                    22300126.688
 127784751.196 6  99572434.92443  24316599.438                    24316610.906
 128156051.535 6  99861923.72242  24387299.211                    24387311.348
 122780934.133 7  95673528.075 7  23364441.063                    23364451.242
 11  8 16  0 58  0.0000000  0 10G10G30G17G02G12G05G04G09G27G25
 110302236.600 8  85949929.84446  20989791.391                    20989798.977
 119168609.798 7  92858718.05545  22677035.031                    22677043.844
 124156613.114 7  96745502.753 6  23626210.625                    23626218.957
 108484791.128 8  84533748.32746  20643947.109                    20643952.734
 110443527.211 8  86059934.698 7  21016701.234                    21016708.004
 112170111.207 8  87405424.065 7  21345246.570                    21345254.152
 117269010.467 7  91378559.91245  22315530.141                    22315538.711
 127867835.661 6  99637175.95043  24332409.977                    24332421.203
 128220116.571 6  99911844.39742  24399489.867                    24399502.191
 122691059.637 7  95603496.064 7  23347338.664                    23347349.000
 11  8 16  0 58 30.0000000  0 10G10G30G17G02G12G05G04G09G27G25
 110327559.706 8  85969662.15346  20994610.453                    20994617.820
 119088736.141 7  92796478.87444  22661836.008                    22661844.223
 124216957.650 7  96792524.463 6  23637694.109                    23637702.109
 108495565.764 8  84542144.14946  20645997.516                    20646002.691
 110404517.722 8  86029537.726 7  21009278.203                    21009285.355
 112094854.135 8  87346782.258 7  21330925.289                    21330933.121
 117350066.088 7  91441720.12345  22330953.977                    22330962.953
 127950945.943 6  99701937.09143  24348225.945                    24348237.094
 128284137.408 6  99961730.61542  24411672.133                    24411684.711
 122601471.312 7  95533687.026 7  23330290.359                    23330300.512
 11  8 16  0 59  0.0000000  0 10G10G30G17G02G12G05G04G09G27G25
 110353499.421 8  85989874.93446  20999546.586                    20999554.164
 119009276.222 7  92734562.06444  22646715.188                    22646723.035
 124277477.705 7  96839682.949 6  23649210.102                    23649219.121
 108506583.636 8  84550729.50146  20648094.055                    20648099.266
 110366027.255 8  85999545.178 7  21001953.805                    21001960.539
 112020012.826 8  87288464.418 7  21316683.477                    21316691.520
 117431186.938 7  91504931.18745  22346390.758                    22346399.629
 128034079.090 6  99766716.04143  24364045.609                    24364057.164
 128348111.326 6 100011580.21543  24423846.805                    24423859.621
 122512172.009 7  95464103.217 7  23313297.398                    23313307.984
 11  8 16  0 59 30.0000000  0 10G10G30G17G02G12G05G04G09G27G25
 110380054.840 8  86010567.47146  21004599.836                    21004607.293
 118930232.594 7  92672969.64444  22631673.602                    22631681.266
 124338173.785 7  96886978.581 6  23660760.797                    23660768.504
 108517843.387 8  84559503.34246  20650236.914                    20650242.164
 110328057.100 8  85969958.067 7  20994727.875                    20994734.938
 111945589.453 8  87230472.233 7  21302521.273                    21302529.340
 117512371.402 7  91568191.78545  22361839.898                    22361848.652
 128117231.577 6  99831510.06643  24379868.781                    24379880.527
 128412035.679 6 100061391.20542  24436010.539                    24436024.289
 122423164.223 7  95394746.551 7  23296359.344                    23296369.887
 11  8 16  1  0  0.0000000  0 10G10G30G17G02G12G05G04G09G27G25
 110407225.072 7  86031739.09946  21009770.008                    21009777.652
 118851607.780 7  92611703.57944  22616711.992                    22616720.063
 124399045.937 7  96934411.425 6  23672344.336                    23672352.148
 108529343.911 8  84568464.78546  20652424.945                    20652430.434
 110290608.636 8  85940777.464 7  20987601.508                    20987608.688
 111871586.770 8  87172807.877 7  21288438.828                    21288446.523
 117593618.134 7  91631500.92645  22377300.570                    22377309.461
 128200400.551 6  99896316.93843  24395695.188                    24395706.676
 128475907.828 6 100111161.55543  24448165.570                    24448178.578
 122334450.736 7  95325619.211 7  23279477.938                    23279488.289
 11  8 16  1  0 30.0000000  0 10G10G30G17G02G12G05G04G09G27G25
 110435009.317 8  86053389.17046  21015057.461                    21015064.660
 118773404.596 7  92550766.05144  22601830.195                    22601837.996
 124460094.818 6  96981981.970 6  23683960.750                    23683969.207
 108541084.392 8  84577613.21446  20654658.969                    20654664.715
 110253684.028 8  85912005.062 7  20980575.492                    20980582.207
 111798007.517 8  87115473.447 7  21274437.422                    21274444.836
 117674925.483 7  91694857.30145  22392772.578                    22392781.711
 128283582.729 6  99961134.08643  24411525.070                    24411536.477
 128539725.341 6 100160889.28243  24460310.063                    24460323.371
 122246034.276 7  95256723.315 6  23262652.094                    23262663.242
 11  8 16  1  1  0.0000000  0 10G10G30G17G02G12G05G04G09G27G25
 110463405.882 8  86075516.38146  21020461.117                    21020468.605
 118695625.441 7  92490158.94144  22587029.359                    22587037.234
 124521320.400 6  97029690.191 6  23695611.781                    23695620.242
 108553062.927 8  84586947.14346  20656938.641                    20656943.992
 110217284.798 8  85883642.044 7  20973648.609                    20973655.434
 111724853.296 8  87058470.221 7  21260516.328                    21260524.160
 117756291.601 7  91758259.47045  22408256.398                    22408264.824
 128366774.679 7 100025958.89743  24427356.070                    24427367.309
 128603485.644 6 100210572.47343  24472443.852                    24472456.367
 122157917.271 7  95188060.764 7  23245884.383                    23245895.215
 11  8 16  1  1 30.0000000  0  9G10G30G17G02G12G05G04G09G25
 110492414.024 8  86098120.14446  21025980.914                    21025988.551
 118618273.029 7  92429884.36845  22572308.922                    22572317.957
 124582723.241 6  97077536.528 6  23707296.586                    23707304.598
 108565278.423 8  84596465.71746  20659263.453                    20659268.570
 110181412.349 8  85855689.512 7  20966822.469                    20966829.395
 111652127.301 8  87001800.682 7  21246677.195                    21246685.215
 117837715.126 7  91821706.36845  22423751.555                    22423759.117
 128449973.466 6 100090789.01143  24443187.633                    24443199.344
 122070102.497 7  95119633.696 7  23229173.703                    23229184.109
 11  8 16  1  2  0.0000000  0  9G10G30G17G02G12G05G04G09G25
 110522032.781 8  86121199.70746  21031617.211                    21031624.664
 118541349.931 7  92369944.32945  22557671.492                    22557679.664
 124644303.892 6  97125521.428 6  23719014.656                    23719022.953
 108577730.071 8  84606168.30746  20661632.805                    20661638.098
 110146068.517 8  85828148.880 8  20960096.781                    20960104.008
 111579831.762 8  86945466.548 7  21232919.617                    21232927.164
 117919194.555 7  91885196.83345  22439256.281                    22439264.746
 128533175.994 6 100155622.03343  24459021.289                    24459032.879
 121982592.694 7  95051444.277 7  23212521.328                    23212531.953
 11  8 16  1  2 30.0000000  0  9G10G30G17G02G12G05G04G09G25
 110552260.999 8  86144754.17746  21037369.383                    21037376.660
 118464858.725 7  92310340.83044  22543115.727                    22543123.945
 124706062.244 6  97173644.806 6  23730766.695                    23730775.930
 108590416.622 8  84616053.94046  20664047.133                    20664052.227
 110111254.885 8  85801021.395 7  20953472.016                    20953478.855
 111507968.963 8  86889469.624 7  21219244.430                    21219252.246
 118000728.238 7  91948729.57245  22454771.398                    22454779.832
 128616379.154 6 100220455.55843  24474854.375                    24474866.008
 121895390.446 7  94983494.499 6  23195927.414                    23195937.727
 11  8 16  1  3  0.0000000  0  9G10G30G17G02G12G05G04G09G25
 110583097.659 8  86168782.77746  21043237.258                    21043244.602
 118388802.011 7  92251075.89945  22528641.891                    22528650.738
 124767998.765 7  97221907.009 6  23742553.891                    23742561.719
 108603336.755 8  84626121.59046  20666505.469                    20666510.875
 110076972.890 8  85774308.163 7  20946947.945                    20946955.219
 111436541.344 8  86833811.799 7  21205652.234                    21205659.961
 118082314.799 7  92012303.50944  22470296.797                    22470305.305
 128699579.685 6 100285287.01343  24490686.445                    24490698.820
 121808498.445 7  94915786.489 7  23179392.234                    23179402.805
 11  8 16  1  3 30.0000000  0  9G10G30G17G02G12G05G04G09G25
 110614541.128 8  86193284.18446  21049221.234                    21049228.492
 118313182.173 7  92192151.39845  22514252.148                    22514260.824
 124830113.901 6  97270308.400 7  23754372.594                    23754382.285
 108616489.161 8  84636370.23646  20669008.656                    20669013.387
 110043224.008 8  85748010.352 7  20940526.117                    20940533.227
 111365551.018 8  86778494.733 7  21192142.805                    21192150.531
 118163952.491 7  92075917.29445  22485832.289                    22485840.383
 128782774.239 6 100350113.81243  24506517.992                    24506530.512
 121721919.190 7  94848322.178 7  23162917.000                    23162926.914
 11  8 16  1  4  0.0000000  0  9G10G30G17G02G12G05G04G09G25
 110646590.560 7  86218257.79046  21055319.695                    21055326.859
 118238002.101 7  92133569.57445  22499945.703                    22499954.176
 124892407.940 7  97318849.175 6  23766227.711                    23766236.945
 108629872.910 8  84646799.13846  20671555.070                    20671560.387
 110010009.946 8  85722129.271 8  20934205.500                    20934212.371
 111295000.926 8  86723520.698 7  21178718.000                    21178725.441
 118245640.026 7  92139569.92545  22501376.805                    22501385.242
 128865959.920 6 100414933.68743  24522348.031                    24522360.402
 121635655.622 7  94781103.857 7  23146501.344                    23146512.102
 11  8 16  1  4 30.0000000  0  9G10G30G17G02G12G05G04G09G25
 110679244.791 8  86243702.66446  21061533.672                    21061540.766
 118163264.205 7  92075332.29545  22485723.313                    22485732.250
 124954881.075 7  97367529.542 6  23778116.219                    23778124.750
 108643486.985 8  84657407.52146  20674145.805                    20674150.875
 109977332.593 8  85696666.411 7  20927987.117                    20927994.023
 111224893.078 8  86668891.270 7  21165376.438                    21165384.480
 118327375.930 7  92203260.25545  22516930.211                    22516938.762
 128949133.796 6 100479744.38243  24538175.734                    24538187.480
 121549710.365 7  94714133.548 7  23130146.539                    23130157.090
 11  8 16  1  5  0.0000000  0  9G10G30G17G02G12G05G04G09G25
 110712502.500 8  86269617.77946  21067862.438                    21067870.242
 118088970.969 7  92017441.50845  22471586.313                    22471594.676
 125017533.539 6  97416349.631 6  23790038.258                    23790047.078
 108657329.870 8  84668194.19546  20676780.086                    20676785.477
 109945192.699 8  85671622.354 7  20921871.211                    20921878.219
 111155230.063 8  86614608.457 7  21152120.563                    21152127.965
 118409158.718 7  92266987.08845  22532493.070                    22532501.438
 129032292.595 6 100544543.29043  24554000.336                    24554012.684
 121464085.957 7  94647413.258 7  23113852.633                    23113863.496
 11  8 16  1  5 30.0000000  0  9G10G30G17G02G12G05G04G09G25
 110746362.541 8  86296002.23546  21074305.664                    21074313.031
 118015124.926 7  91959899.18445  22457533.977                    22457542.020
 125080365.647 6  97465309.719 6  23801994.875                    23802003.438
 108671400.466 8  84679158.30946  20679457.797                    20679462.941
 109913591.906 8  85646998.374 7  20915857.422                    20915864.875
 111086013.865 8  86560673.816 7  21138948.633                    21138956.395
 118490986.900 7  92330749.31045  22548064.656                    22548072.875
 129115433.177 6 100609327.99943  24569821.055                    24569833.492
 121378785.082 7  94580945.082 7  23097621.047                    23097630.938
 11  8 16  1  6  0.0000000  0  9G10G30G17G02G12G05G04G09G25
 110780823.496 8  86322854.94346  21080863.273                    21080870.914
 117941728.605 7  91902707.29845  22443566.844                    22443575.117
 125143377.656 6  97514409.982 6  23813984.984                    23813993.977
 108685697.599 8  84690298.94446  20682177.992                    20682183.406
 109882531.809 8  85622795.702 7  20909947.305                    20909954.117
 111017246.992 8  86507089.301 7  21125862.984                    21125870.953
 118572859.013 7  92394545.74345  22563644.328                    22563652.289
 129198552.509 6 100674096.20943  24585638.430                    24585650.379
 121293810.333 7  94514731.006 7  23081450.430                    23081460.949
 11  8 16  1  6 30.0000000  0  9G10G30G17G02G12G05G04G09G25
 110815883.953 8  86350174.79546  21087534.789                    21087542.691
 117868784.335 7  91845867.64245  22429686.078                    22429694.387
 125206570.009 6  97563650.828 6  23826010.648                    23826018.570
 108700219.984 8  84701615.10646  20684941.750                    20684947.078
 109852013.700 8  85599015.375 7  20904139.609                    20904146.703
 110948931.573 8  86453856.556 7  21112862.813                    21112870.613
 118654773.538 7  92458375.24144  22579232.125                    22579240.879
 129281647.628 6 100738845.48843  24601450.672                    24601463.352
 121209164.226 7  94448773.054 7  23065342.250                    23065353.016
 11  8 16  1  7  0.0000000  0  9G10G30G17G02G12G05G04G09G25
 110851542.309 8  86377960.53246  21094320.500                    21094328.281
 117796294.591 7  91789382.18545  22415891.742                    22415900.000
 125269942.633 6  97613032.096 6  23838070.289                    23838078.988
 108714966.092 8  84713105.58946  20687747.828                    20687752.891
 109822039.002 8  85575658.479 7  20898435.820                    20898442.832
 110881069.673 8  86400977.211 7  21099949.273                    21099956.969
 118736728.946 7  92522236.58745  22594827.641                    22594835.906
 129364715.082 6 100803573.26243  24617258.609                    24617270.828
 121124849.445 7  94383073.263 7  23049298.031                    23049308.699
 11  8 16  1  7 30.0000000  0  9G10G30G17G02G12G05G04G09G25
 110887797.776 8  86406211.56246  21101219.750                    21101227.258
 117724262.033 7  91733252.95545  22402183.977                    22402192.938
 125333496.128 6  97662554.329 6  23850163.430                    23850172.449
 108729935.300 8  84724769.92946  20690595.914                    20690601.277
 109792609.344 8  85552726.292 7  20892835.445                    20892842.434
 110813663.848 8  86348453.252 7  21087122.203                    21087129.848
 118818723.898 7  92586128.75644  22610431.180                    22610439.031
 129447752.144 6 100868277.32343  24633059.953                    24633072.371
 121040868.808 7  94317633.851 7  23033316.938                    23033327.961
 11  8 16  1  8  0.0000000  0  9G10G30G17G02G12G05G04G09G25
 110924648.651 8  86434926.54846  21108232.367                    21108239.938
 117652689.079 7  91677481.87245  22388564.438                    22388572.594
 125397230.392 6  97712217.378 6  23862292.211                    23862300.297
 108745126.149 8  84736606.96546  20693486.797                    20693492.035
 109763725.525 8  85530219.430 7  20887338.945                    20887346.266
 110746716.423 8  86296286.485 7  21074382.398                    21074390.316
 118900756.985 7  92650050.63245  22626041.359                    22626049.648
 129530755.634 6 100932955.21543  24648855.852                    24648867.305
 120957224.760 7  94252456.723 7  23017399.727                    23017410.055
 11  8 16  1  8 30.0000000  0  9G10G30G17G02G12G05G04G09G25
 110962093.055 8  86464104.02546  21115357.805                    21115365.445
 117581577.922 7  91622070.62945  22375032.242                    22375040.910
 125461146.002 6  97762021.748 6  23874454.398                    23874463.332
 108760537.501 8  84748615.83146  20696419.766                    20696425.156
 109735389.133 8  85508139.143 7  20881946.781                    20881953.926
 110680229.483 8  86244478.535 7  21061730.438                    21061737.781
 118982826.624 7  92714000.99345  22641658.023                    22641666.965
 129613722.477 6 100997604.57043  24664643.008                    24664655.324
 120873919.869 7  94187543.850 7  23001547.695                    23001557.477
 11  8 16  1  9  0.0000000  0  9G10G30G17G02G12G05G04G09G25
 111000130.012 8  86493743.22146  21122595.930                    21122603.609
 117510931.297 7  91567021.34345  22361588.719                    22361596.961
 125525242.890 6  97811967.396 6  23886651.883                    23886660.938
 108776168.159 8  84760795.57546  20699394.070                    20699399.410
 109707601.626 8  85486486.554 7  20876658.836                    20876666.113
 110614205.142 8  86193031.057 7  21049166.023                    21049173.617
 119064931.621 7  92777978.89244  22657283.141                    22657290.766
 129696649.796 6 101062223.12143  24680423.984                    24680436.059
 120790956.876 7  94122897.415 7  22985760.234                    22985770.258
 11  8 16  1  9 30.0000000  0  9G10G30G17G02G12G05G04G09G25
 111038758.175 8  86523843.09746  21129946.625                    21129953.871
 117440751.371 7  91512335.73045  22348234.000                    22348242.258
 125589521.347 6  97862054.528 6  23898883.883                    23898892.254
 108792016.818 8  84773145.18846  20702410.141                    20702415.215
 109680364.116 8  85465262.534 7  20871475.875                    20871482.828
 110548645.491 8  86141945.668 7  21036690.719                    21036698.375
 119147070.570 7  92841983.25844  22672913.383                    22672921.410
 129779534.543 6 101126808.48743  24696195.883                    24696208.813
 120708338.237 7  94058519.293 7  22970038.633                    22970048.902
 11  8 16  1 10  0.0000000  0  9G10G30G17G02G12G05G04G09G25
 111077976.102 8  86554402.52746  21137409.547                    21137417.148
 117371040.861 7  91458015.89345  22334968.773                    22334976.434
 125653981.826 7  97912283.482 6  23911150.398                    23911158.484
 108808082.771 8  84785664.11946  20705467.508                    20705472.453
 109653678.626 8  85444468.669 8  20866397.875                    20866404.508
 110483552.931 8  86091224.251 7  21024303.867                    21024311.219
 119229242.252 7  92906013.12244  22688549.680                    22688558.461
 129862373.771 6 101191358.39043  24711960.414                    24711972.289
 120626066.889 7  93994411.794 7  22954382.523                    22954393.051
 11  8 16  1 10 30.0000000  0  9G10G30G17G02G12G05G04G09G25
 111117782.103 8  86585420.20746  21144984.258                    21144991.762
 117301801.967 7  91404063.54745  22321792.625                    22321800.906
 125718624.341 7  97962654.264 6  23923451.070                    23923459.348
 108824364.479 8  84798351.17446  20708565.453                    20708570.930
 109627545.412 8  85424105.144 7  20861425.188                    20861431.977
 110418929.691 8  86040868.532 8  21012006.281                    21012013.629
 119311445.166 7  92970067.34244  22704192.477                    22704201.508
 129945164.057 6 101255870.16343  24727714.930                    24727727.082
 120544145.156 7  93930576.717 7  22938793.406                    22938803.797
 11  8 16  1 11  0.0000000  0  9G10G30G17G02G12G05G04G09G25
 111158174.671 8  86616894.94846  21152670.820                    21152678.609
 117233037.037 7  91350480.51445  22308707.063                    22308714.668
 125783449.152 7  98013167.122 6  23935787.117                    23935795.441
 108840860.737 8  84811205.41646  20711704.391                    20711710.063
 109601965.848 8  85404173.042 8  20856557.219                    20856564.254
 110354777.558 8  85990879.915 7  20999798.281                    20999806.461
 119393677.783 7  93034144.69744  22719841.078                    22719849.543
 130027902.728 6 101320341.74143  24743459.961                    24743471.922
 120462575.602 7  93867016.071 7  22923271.250                    22923281.605
 11  8 16  1 11 30.0000000  0  9G10G30G17G02G12G05G04G09G25
 111199152.332 8  86648825.60746  21160468.445                    21160476.422
 117164748.585 7  91297268.75945  22295712.359                    22295720.551
 125848456.553 7  98063822.258 6  23948156.969                    23948165.957
 108857570.500 8  84824226.02046  20714884.352                    20714889.680
 109576941.502 8  85384673.571 8  20851795.203                    20851801.922
 110291099.252 8  85941260.510 7  20987681.328                    20987688.250
 119475938.891 7  93098244.27044  22735494.570                    22735503.031
 130110586.748 6 101384770.72843  24759194.438                    24759206.461
 120381361.069 7  93803732.060 7  22907816.734                    22907826.805
 11  8 16  1 12  0.0000000  0  9G10G30G17G02G12G05G04G09G25
 111240713.159 8  86681210.67046  21168377.336                    21168384.820
 117096939.011 7  91244430.16045  22282808.766                    22282816.676
 125913646.704 7  98114619.813 6  23960562.961                    23960571.332
 108874492.853 8  84837412.27146  20718104.703                    20718109.656
 109552473.619 8  85365607.707 7  20847139.148                    20847145.816
 110227896.489 8  85892011.658 7  20975653.891                    20975660.973
 119558227.248 7  93162365.05844  22751153.633                    22751162.082
 130193213.115 6 101449154.78043  24774917.117                    24774929.750
 120300504.088 7  93740726.675 7  22892429.742                    22892439.738
 11  8 16  1 12 30.0000000  0  9G10G30G17G02G12G05G04G09G25
 111282855.630 8  86714048.97246  21176396.641                    21176404.512
 117029610.477 7  91191966.40245  22269996.289                    22270004.418
 125979019.721 7  98165559.839 6  23973002.859                    23973010.777
 108891626.019 8  84850762.80746  20721364.797                    20721370.164
 109528562.899 8  85346975.997 7  20842589.109                    20842595.973
 110165171.264 8  85843134.913 7  20963717.563                    20963724.848
 119640541.358 7  93226505.92645  22766817.242                    22766825.945
 130275778.710 6 101513491.47843  24790629.445                    24790641.211
 120220007.048 7  93678001.751 7  22877111.727                    22877122.039
 11  8 16  1 13  0.0000000  0  9G10G30G17G02G12G05G04G09G25
 111325578.442 8  86747339.47746  21184527.016                    21184534.156
 116962765.377 7  91139879.32945  22257275.633                    22257284.004
 126044576.055 6  98216642.729 6  23985477.898                    23985484.988
 108908969.396 8  84864277.14146  20724665.148                    20724670.602
 109505210.928 8  85328779.679 7  20838145.617                    20838152.102
 110102925.910 8  85794632.093 7  20951873.070                    20951880.348
 119722880.125 7  93290666.00444  22782485.906                    22782494.563
 130358280.696 6 101577778.61243  24806329.023                    24806341.633
 120139872.713 7  93615559.460 7  22861862.992                    22861872.805
 11  8 16  1 13 30.0000000  0  9G10G30G17G02G12G05G04G09G25
 111368879.684 8  86781080.72146  21192766.578                    21192774.125
 116896406.034 7  91088170.78345  22244648.359                    22244656.219
 126110315.693 7  98267868.435 6  23997987.430                    23997995.117
 108926521.617 8  84877954.20546  20728005.375                    20728010.402
 109482418.872 8  85311019.656 7  20833807.758                    20833814.801
 110041162.345 8  85746504.688 7  20940119.406                    20940126.434
 119805241.946 7  93354844.04944  22798159.203                    22798167.484
 130440716.215 6 101642013.93543  24822016.164                    24822028.461
 120060103.494 7  93553401.676 7  22846683.281                    22846693.555
 11  8 16  1 14  0.0000000  0  9G10G30G17G02G12G05G04G09G25
 111412757.495 8  86815271.22446  21201116.219                    21201123.547
 116830534.697 7  91036842.49045  22232113.359                    22232121.199
 126176238.487 6  98319236.899 6  24010532.703                    24010540.840
 108944281.610 8  84891793.16646  20731384.938                    20731390.363
 109460187.487 8  85293696.518 7  20829577.492                    20829584.527
 109979882.515 8  85698754.220 7  20928458.453                    20928465.637
 119887625.744 7  93419039.20944  22813835.938                    22813844.492
 130523082.270 6 101706195.14143  24837690.219                    24837701.766
 119980702.029 7  93491530.441 7  22831573.070                    22831583.500
 11  8 16  1 14 30.0000000  0  9G10G30G17G02G12G05G04G09G25
 111457210.232 8  86849909.72746  21209575.406                    21209582.980
 116765153.568 7  90985896.18745  22219671.578                    22219679.840
 126242344.902 6  98370748.431 6  24023111.898                    24023120.105
 108962247.906 8  84905792.88546  20734803.938                    20734809.211
 109438517.714 8  85276811.000 7  20825453.813                    20825460.438
 109919088.540 8  85651382.351 7  20916889.461                    20916896.793
 119970030.124 7  93483250.42644  22829516.922                    22829525.195
 130605375.834 6 101770319.86743  24853349.664                    24853362.582
 119901670.750 7  93429947.674 7  22816533.961                    22816544.691
 11  8 16  1 15  0.0000000  0  8G10G30G17G02G12G05G04G25
 111502237.718 8  86884996.08546  21218143.914                    21218151.238
 116700266.349 7  90935334.74145  22207324.398                    22207332.152
 126308636.318 6  98422404.102 6  24035726.039                    24035734.793
 108980420.818 8  84919953.61246  20738261.992                    20738267.523
 109417412.187 8  85260365.149 7  20821437.797                    20821444.547
 109858783.793 8  85604391.683 7  20905413.828                    20905421.316
 120052455.123 7  93547477.70744  22845202.031                    22845210.352
 119823013.730 7  93368656.537 7  22801566.289                    22801576.551
 11  8 16  1 15 30.0000000  0  8G10G30G17G02G12G05G04G25
 111547837.302 7  86920528.23946  21226820.906                    21226829.035
 116635874.493 7  90885159.29645  22195070.406                    22195078.809
 126375112.176 6  98474203.500 6  24048376.852                    24048384.703
 108998798.574 8  84934273.95246  20741758.938                    20741764.242
 109396871.159 8  85244359.166 8  20817529.063                    20817535.406
 109798969.425 8  85557783.135 7  20894031.570                    20894038.719
 120134898.740 7  93611719.48244  22860890.766                    22860898.801
 119744732.614 7  93307658.297 7  22786669.391                    22786680.324
 11  8 16  1 16  0.0000000  0  8G10G30G17G02G12G05G04G25
 111594006.511 8  86956504.26146  21235606.422                    21235614.094
 116571979.462 7  90835370.98545  22182912.203                    22182919.746
 126441771.915 6  98526146.202 6  24061061.125                    24061070.250
 109017379.168 8  84948752.34546  20745295.281                    20745300.395
 109376894.756 8  85228793.152 8  20813727.422                    20813734.000
 109739646.436 8  85511557.484 7  20882742.945                    20882750.250
 120217359.070 7  93675974.27544  22876582.320                    22876590.953
 119666829.121 7  93246954.319 7  22771845.148                    22771855.703
 11  8 16  1 16 30.0000000  0  8G10G30G17G02G12G05G04G25
 111640743.509 8  86992922.70946  21244500.539                    21244507.707
 116508583.268 7  90785971.38145  22170848.289                    22170855.984
 126508615.341 6  98578232.007 6  24073780.828                    24073789.410
 109036160.926 8  84963387.49846  20748868.938                    20748874.086
 109357484.071 8  85213667.957 7  20810033.891                    20810040.211
 109680816.814 8  85465716.282 7  20871547.898                    20871555.090
 120299834.674 7  93740240.98244  22892276.750                    22892285.266
 119589305.698 7  93186546.488 7  22757093.469                    22757103.512
 11  8 16  1 17  0.0000000  0  8G10G30G17G02G12G05G04G25
 111688046.622 8  87029782.28946  21253501.922                    21253509.480
 116445688.615 7  90736962.59245  22158879.180                    22158887.836
 126575643.187 6  98630461.518 6  24086536.484                    24086544.563
 109055143.795 8  84978179.35646  20752481.523                    20752486.676
 109338640.195 8  85198984.431 7  20806447.531                    20806454.813
 109622482.864 8  85420261.308 8  20860447.063                    20860454.523
 120382324.748 7  93804518.95644  22907973.922                    22907982.652
 119512165.253 7  93126437.078 7  22742414.094                    22742424.105
 11  8 16  1 17 30.0000000  0  8G10G30G17G02G12G05G04G25
 111735913.904 8  87067081.48146  21262610.586                    21262618.281
 116383297.581 7  90688346.22545  22147007.203                    22147015.426
 126642855.200 6  98682834.578 6  24099326.141                    24099334.703
 109074326.342 8  84993126.80946  20756131.625                    20756136.543
 109320364.005 8  85184743.258 8  20802969.656                    20802976.684
 109564646.473 8  85375194.037 8  20849441.219                    20849448.676
 120464827.762 7  93868807.02644  22923673.391                    22923682.215
 119435410.279 7  93066628.039 7  22727807.758                    22727818.074
 11  8 16  1 18  0.0000000  0  8G10G30G17G02G12G05G04G25
 111784343.599 8  87104818.92045  21271826.531                    21271833.953
 116321412.190 7  90640123.86745  22135230.516                    22135238.738
 126710251.556 6  98735351.252 6  24112150.461                    24112160.238
 109093706.955 8  85008228.59046  20759819.523                    20759824.922
 109302656.250 8  85170945.013 7  20799600.375                    20799607.020
 109507309.257 8  85330515.739 7  20838530.164                    20838537.570
 120547342.439 7  93933104.15544  22939375.617                    22939384.785
 119359043.051 7  93007121.151 7  22713275.438                    22713285.555
 11  8 16  1 18 30.0000000  0  8G10G30G17G02G12G05G04G25
 111833333.781 8  87142993.10646  21281149.063                    21281156.648
 116260034.588 7  90592297.18945  22123550.250                    22123558.688
 126777832.413 6  98788011.689 6  24125010.883                    24125020.297
 109113284.699 8  85023483.98346  20763545.492                    20763549.941
 109285517.901 8  85157590.474 7  20796338.883                    20796345.934
 109450473.320 8  85286228.046 8  20827714.617                    20827721.766
 120629867.758 7  93997409.61144  22955080.172                    22955087.973
 119283066.193 7  92947918.435 7  22698817.492                    22698828.113
 11  8 16  1 19  0.0000000  0  8G10G30G17G02G12G05G04G25
 111882882.607 8  87181602.59145  21290577.883                    21290585.914
 116199167.038 7  90544867.95845  22111967.836                    22111975.656
 126845597.791 7  98840815.908 6  24137906.609                    24137915.590
 109133058.607 8  85038892.23646  20767308.477                    20767313.137
 109268949.990 8  85144680.420 7  20793186.008                    20793193.020
 109394140.901 8  85242332.714 7  20816994.891                    20817002.148
 120712402.605 7  94061722.47144  22970786.422                    22970794.594
 119207482.224 7  92889021.860 7  22684434.469                    22684444.621
 11  8 16  1 19 30.0000000  0  8G10G30G17G02G12G05G04G25
 111932987.836 8  87220645.63345  21300112.672                    21300120.168
 116138811.538 7  90497837.71245  22100482.398                    22100490.836
 126913547.877 6  98893764.040 6  24150837.164                    24150846.203
 109153027.440 8  85054452.37946  20771107.898                    20771113.215
 109252953.168 8  85132215.376 7  20790142.141                    20790148.746
 109338312.783 8  85198830.329 8  20806371.281                    20806378.348
 120794945.612 7  94126041.71244  22986492.938                    22986501.605
 119132293.497 7  92830433.284 7  22670126.281                    22670136.426
 11  8 16  1 20  0.0000000  0  8G10G30G17G02G12G05G04G25
 111983647.843 8  87260120.97545  21309753.133                    21309760.551
 116078970.269 7  90451208.17545  22089094.859                    22089103.523
 126981682.591 7  98946856.074 6  24163803.859                    24163810.984
 109173189.912 8  85070163.40446  20774944.711                    20774949.832
 109237528.096 8  85120195.863 7  20787206.664                    20787213.555
 109282991.321 8  85155722.751 7  20795843.945                    20795851.031
 120877495.712 7  94190366.44944  23002202.578                    23002210.469
 119057502.559 8  92772154.654 7  22655893.961                    22655904.379
 11  8 16  1 20 30.0000000  0  8G10G30G17G02G12G05G04G25
 112034861.037 8  87300027.37645  21319498.781                    21319506.270
 116019645.428 7  90404981.05145  22077806.344                    22077814.027
 127050002.313 6  99000092.226 6  24176803.945                    24176812.594
 109193545.330 8  85086024.77746  20778818.273                    20778823.246
 109222676.137 8  85108622.918 8  20784380.172                    20784387.090
 109228178.523 8  85113011.523 7  20785413.461                    20785420.363
 120960052.007 7  94254696.02844  23017912.672                    23017920.375
 118983112.083 8  92714188.081 7  22641738.188                    22641748.230
 11  8 16  1 21  0.0000000  0  8G10G30G17G02G12G05G04G25
 112086625.318 8  87340363.18545  21329348.688                    21329356.313
 115960839.208 7  90359158.05345  22066615.227                    22066623.621
 127118507.051 7  99053472.572 6  24189839.773                    24189848.656
 109214092.621 8  85102035.66646  20782728.023                    20782733.688
 109208397.773 8  85097496.933 7  20781663.180                    20781670.387
 109173876.380 8  85070698.217 8  20775079.766                    20775087.141
 121042613.306 7  94319029.51744  23033622.953                    23033631.520
 118909124.557 7  92656535.504 7  22627658.875                    22627668.746
 11  8 16  1 21 30.0000000  0  8G10G30G17G02G12G05G04G25
 112138938.122 8  87381126.41245  21339303.883                    21339311.289
 115902553.159 7  90313740.38045  22055524.023                    22055532.180
 127187196.314 6  99106996.670 6  24202911.219                    24202919.262
 109234829.717 8  85118194.45146  20786673.914                    20786679.582
 109194693.620 8  85086818.386 7  20779055.469                    20779062.570
 109120085.937 8  85028783.621 8  20764843.805                    20764850.926
 121125177.992 7  94383365.64144  23049334.391                    23049342.805
 118835541.903 7  92599198.408 7  22613656.242                    22613666.266
 11  8 16  1 22  0.0000000  0  8G10G30G17G02G12G05G04G25
 112191797.364 7  87422315.44245  21349362.539                    21349369.824
 115844789.463 7  90268729.74845  22044531.969                    22044540.121
 127256070.614 6  99160664.988 6  24216017.367                    24216025.816
 109255756.318 8  85134500.90246  20790656.508                    20790661.563
 109181564.553 8  85076587.963 8  20776557.023                    20776564.035
 109066808.979 8  84987269.163 8  20754705.625                    20754712.855
 121207745.289 7  94447703.78844  23065046.625                    23065055.102
 118762366.822 7  92542178.893 7  22599731.828                    22599741.840
 11  8 16  1 22 30.0000000  0  8G10G30G17G02G12G05G04G25
 112245201.396 7  87463928.98645  21359525.125                    21359532.441
 115787550.506 7  90224127.98645  22033639.891                    22033647.520
 127325130.232 6  99214477.682 6  24229159.227                    24229166.855
 109276871.332 7  85150954.17446  20794674.398                    20794679.930
 109169011.191 8  85066806.142 7  20774168.469                    20774175.391
 109014047.786 8  84946156.591 8  20744665.422                    20744672.730
 121290314.021 7  94512043.07244  23080758.422                    23080767.418
 118689601.943 7  92485479.017 7  22585884.555                    22585895.016
 11  8 16  1 23  0.0000000  0  8G10G30G17G02G12G05G04G25
 112299148.352 8  87505965.58345  21369790.609                    21369798.039
 115730838.123 7  90179936.55045  22022848.000                    22022855.813
 127394374.919 6  99268434.593 6  24242335.992                    24242344.063
 109298173.739 8  85167553.46746  20798728.586                    20798733.516
 109157034.372 8  85057473.566 7  20771889.188                    20771896.121
 108961804.046 8  84905447.234 7  20734723.797                    20734731.070
 121372883.212 7  94576382.69044  23096471.266                    23096479.641
 118617249.728 7  92429100.689 7  22572116.914                    22572126.633
 11  8 16  1 23 30.0000000  0  8G10G30G17G02G12G05G04G25
 112353636.010 7  87548423.51545  21380159.250                    21380166.473
 115674654.208 7  90136156.90445  22012155.953                    22012164.512
 127463804.811 6  99322535.829 6  24255547.383                    24255555.867
 109319662.271 8  85184297.78946  20802817.648                    20802823.094
 109145634.611 8  85048590.658 8  20769719.680                    20769726.563
 108910079.027 8  84865142.059 8  20724880.555                    20724887.770
 121455451.601 7  94640721.71944  23112183.008                    23112191.719
 118545312.395 7  92373045.666 7  22558427.008                    22558437.512
 11  8 16  1 24  0.0000000  0  8G10G30G17G02G12G05G04G25
 112408662.029 7  87591300.93945  21390630.492                    21390638.125
 115619000.631 7  90092790.51245  22001565.977                    22001573.574
 127533419.900 6  99376781.382 6  24268794.320                    24268803.504
 109341335.673 8  85201186.18446  20806942.047                    20806946.941
 109134812.238 8  85040157.662 7  20767660.359                    20767667.109
 108858874.303 8  84825242.324 8  20715136.617                    20715144.023
 121538018.217 6  94705059.33944  23127895.336                    23127903.734
 118473792.277 7  92317315.733 7  22544817.492                    22544828.020
 11  8 16  1 24 30.0000000  0  9G10G30G17G02G12G05G04G29G25
 112464224.449 8  87634596.33745  21401203.789                    21401210.988
 115563879.573 8  90049839.07145  21991076.266                    21991084.367
 127603220.215 6  99431171.258 6  24282077.867                    24282086.555
 109363193.073 8  85218217.93546  20811101.031                    20811106.168
 109124568.238 8  85032175.346 7  20765710.695                    20765717.793
 108808191.730 8  84785749.452 8  20705491.953                    20705498.801
 121620581.999 7  94769394.74944  23143606.414                    23143615.469
 129582380.84516 100973326.11215  24658712.820                    24658722.422
 118402691.944 7  92261912.913 7  22531287.711                    22531297.484
 11  8 16  1 25  0.0000000  0  9G10G30G17G02G12G05G04G29G25
 112520321.488 8  87678308.33245  21411878.500                    21411886.285
 115509293.022 8  90007304.13845  21980689.148                    21980696.980
 127673205.808 6  99485705.521 6  24295395.289                    24295403.645
 109385233.562 8  85235392.36046  20815295.094                    20815300.410
 109114903.343 8  85024644.275 7  20763872.148                    20763878.859
 108758033.216 8  84746664.933 8  20695947.438                    20695954.316
 121703142.047 7  94833727.26444  23159316.930                    23159325.273
 129502789.712 6 100911307.104 5  24643566.758                    24643576.344
 118332013.956 7  92206839.168 7  22517838.117                    22517847.953
 11  8 16  1 25 30.0000000  0  9G10G30G17G02G12G05G04G29G25
 112576950.387 8  87722434.74645  21422654.742                    21422661.715
 115455242.558 7  89965186.92145  21970403.758                    21970411.121
 127743376.530 6  99540384.030 6  24308748.523                    24308756.680
 109407455.461 8  85252708.13446  20819523.766                    20819529.309
 109105817.591 8  85017564.484 7  20762142.836                    20762149.863
 108708399.815 8  84707989.599 8  20686502.180                    20686509.324
 121785697.063 7  94898055.83944  23175026.609                    23175035.117
 129423123.015 6 100849229.192 5  24628406.563                    24628416.285
 118261760.280 7  92152096.074 7  22504469.086                    22504479.152
 11  8 16  1 26  0.0000000  0  9G10G30G17G02G12G05G04G29G25
 112634109.423 8  87766974.26745  21433531.531                    21433539.121
 115401730.421 7  89923489.19345  21960220.836                    21960227.848
 127813732.752 6  99595207.119 5  24322136.477                    24322145.152
 109429858.499 8  85270165.06246  20823786.797                    20823791.969
 109097311.986 8  85010936.758 7  20760524.281                    20760531.055
 108659293.781 8  84669725.196 8  20677157.734                    20677164.723
 121868246.039 7  94962379.73644  23190735.227                    23190743.789
 129343381.330 6 100787092.940 5  24613231.641                    24613242.219
 118191933.615 7  92097685.721 7  22491181.641                    22491191.590
 11  8 16  1 26 30.0000000  0  9G10G30G17G02G12G05G04G29G25
 112691796.726 8  87811925.42645  21444509.234                    21444516.520
 115348758.574 7  89882212.46245  21950139.852                    21950148.066
 127884274.181 6  99650174.512 6  24335559.898                    24335568.141
 109452441.398 8  85287762.13846  20828084.492                    20828089.680
 109089387.084 8  85004761.531 8  20759016.266                    20759022.938
 108610716.319 8  84631872.679 8  20667913.836                    20667920.672
 121950788.308 7  95026698.37644  23206443.125                    23206450.723
 129263565.209 5 100724898.660 5  24598043.078                    24598053.918
 118122536.463 7  92043610.051 7  22477975.719                    22477985.918
 11  8 16  1 27  0.0000000  0  9G10G30G17G02G12G05G04G29G25
 112750009.529 8  87857286.05545  21455586.953                    21455594.133
 115296328.367 7  89841357.78745  21940162.992                    21940170.844
 127955000.418 6  99705285.893 6  24349018.984                    24349026.676
 109475202.340 8  85305497.95046  20832415.648                    20832420.527
 109082042.616 8  84999038.585 7  20757619.023                    20757625.672
 108562668.441 8  84594432.805 8  20658770.328                    20658777.293
 122033322.276 7  95091010.55044  23222148.586                    23222156.512
 129183675.128 6 100662646.765 6  24582840.680                    24582850.516
 118053570.647 7  91989870.494 7  22464851.789                    22464862.082
 11  8 16  1 27 30.0000000  0  9G10G30G17G02G12G05G04G29G25
 112808745.517 7  87903054.36945  21466763.688                    21466770.727
 115244441.664 8  89800926.62245  21930289.461                    21930296.703
 128025911.771 6  99760541.554 6  24362513.203                    24362520.004
 109498140.916 8  85323372.18446  20836780.797                    20836785.824
 109075279.387 8  84993768.548 8  20756331.664                    20756338.332
 108515152.168 8  84557407.188 8  20649728.352                    20649735.516
 122115847.245 7  95155315.73344  23237853.047                    23237860.652
 129103711.761 6 100600337.755 6  24567624.414                    24567634.133
 117985038.551 7  91936468.901 7  22451810.438                    22451820.863
 11  8 16  1 28  0.0000000  0  9G10G30G17G02G12G05G04G29G25
 112868002.392 8  87949228.58145  21478039.727                    21478047.063
 115193100.198 7  89760920.31645  21920519.320                    21920527.383
 128097008.086 6  99815941.321 6  24376041.961                    24376049.316
 109521255.590 8  85341383.63246  20841179.172                    20841184.352
 109069097.919 8  84988951.848 8  20755155.359                    20755162.145
 108468168.497 8  84520796.575 8  20640787.484                    20640794.637
 122198361.855 7  95219612.82244  23253553.922                    23253562.887
 129023675.316 6 100537971.791 6  24552394.102                    24552403.652
 117916942.411 7  91883407.014 7  22438852.438                    22438862.508
 11  8 16  1 28 30.0000000  0  9G10G30G17G02G12G05G04G29G25
 112927778.163 8  87995807.10745  21489415.352                    21489422.559
 115142306.014 7  89721340.46945  21910853.344                    21910861.340
 128168289.471 6  99871485.308 6  24389606.266                    24389614.070
 109544545.404 8  85359531.54146  20845611.492                    20845616.352
 109063498.445 8  84984588.630 7  20754090.023                    20754096.855
 108421719.099 8  84484602.272 8  20631948.633                    20631955.828
 122280865.399 7  95283901.32644  23269254.477                    23269262.246
 128943566.350 6 100475549.352 6  24537150.453                    24537159.363
 117849284.747 7  91830686.789 7  22425977.508                    22425987.582
 11  8 16  1 29  0.0000000  0  9G10G30G17G02G12G05G04G29G25
 112988070.779 8  88042788.37145  21500888.008                    21500895.367
 115092060.937 7  89682188.49345  21901292.266                    21901300.055
 128239755.847 6  99927173.445 6  24403206.086                    24403214.137
 109568009.736 8  85377815.44346  20850076.102                    20850081.242
 109058481.937 8  84980679.688 8  20753135.250                    20753141.801
 108375805.685 8  84448825.627 8  20623211.641                    20623218.719
 122363356.930 6  95348180.45644  23284952.367                    23284960.156
 128863385.902 7 100413071.181 6  24521892.031                    24521901.484
 117782068.005 7  91778310.143 7  22413186.438                    22413196.555
 11  8 16  1 29 30.0000000  0  9G10G30G17G02G12G05G04G29G25
 113048877.792 8  88090170.47645  21512459.430                    21512466.867
 115042366.622 8  89643465.69045  21891835.875                    21891844.016
 128311406.825 6  99983005.424 6  24416840.484                    24416847.941
 109591647.380 8  85396234.40146  20854574.289                    20854579.566
 109054047.737 8  84977224.486 7  20752291.102                    20752298.105
 108330429.523 8  84413467.623 8  20614576.633                    20614583.676
 122445835.488 6  95412449.43544  23300647.125                    23300655.457
 128783134.372 7 100350537.646 6  24506620.430                    24506629.820
 117715294.306 7  91726278.736 7  22400479.813                    22400490.148
 11  8 16  1 30  0.0000000  0  9G10G30G17G02G12G05G04G29G25
 113110196.896 7  88137951.60145  21524127.711                    21524135.043
 114993224.614 8  89605173.25345  21882483.883                    21882492.156
 128383242.544 6 100038981.367 6  24430510.164                    24430518.121
 109615457.021 7  85414787.37346  20859105.227                    20859110.340
 109050196.631 7  84974223.642 7  20751558.305                    20751565.422
 108285591.971 8  84378529.310 8  20606044.250                    20606051.539
 122528300.145 6  95476707.63144  23316339.984                    23316347.758
 128702812.197 7 100287949.054 6  24491335.914                    24491345.258
 117648965.855 7  91674594.269 7  22387857.859                    22387868.176
 11  8 16  1 30 30.0000000  0  9G10G30G17G02G12G05G04G29G25
 113172025.742 7  88186129.93445  21535893.789                    21535901.230
 114944636.916 7  89567312.73145  21873237.930                    21873246.102
 128455263.122 6 100095101.342 6  24444215.211                    24444223.449
 109639438.045 8  85433473.90446  20863668.516                    20863673.828
 109046928.985 8  84971677.441 7  20750936.906                    20750943.379
 108241294.621 8  84344011.925 8  20597614.844                    20597622.184
 122610749.793 7  95540954.10344  23332028.820                    23332037.855
 128622420.008 7 100225305.906 6  24476037.156                    24476047.055
 117583085.021 7  91623258.611 7  22375321.336                    22375331.559
 11  8 16  1 31  0.0000000  0  9G10G30G17G02G12G05G04G29G25
 113234362.044 7  88234703.68145  21547755.563                    21547763.195
 114896604.983 8  89529885.27745  21864097.992                    21864105.664
 128527468.303 6 100151365.131 6  24457955.516                    24457963.660
 109663589.091 8  85452292.91646  20868264.586                    20868269.621
 109044245.027 7  84969586.062 8  20750426.094                    20750432.848
 108197538.483 8  84309916.276 8  20589288.406                    20589295.203
 122693183.346 7  95605188.03644  23347715.945                    23347724.406
 128541958.418 7 100162608.640 6  24460726.109                    24460735.488
 117517654.051 7  91572273.466 7  22362870.063                    22362880.188
 11  8 16  1 31 30.0000000  0  9G10G30G17G02G12G05G04G29G25
 113297203.186 7  88283670.80545  21559713.828                    21559721.516
 114849130.518 7  89492892.21245  21855064.125                    21855071.914
 128599857.881 6 100207772.649 6  24471730.672                    24471739.223
 109687909.234 8  85471243.68646  20872892.367                    20872897.617
 109042145.051 8  84967949.730 7  20750026.289                    20750032.945
 108154324.954 8  84276243.434 8  20581065.094                    20581071.836
 122775600.181 7  95669408.96044  23363399.258                    23363408.141
 128461428.079 7 100099857.820 6  24445401.586                    24445411.219
 117452675.019 7  91521640.491 7  22350505.188                    22350514.992
 11  8 16  1 32  0.0000000  0  9G10G30G17G02G12G05G04G29G25
 113360546.934 7  88333029.57245  21571767.836                    21571775.375
 114802215.109 8  89456334.78445  21846135.859                    21846144.270
 128672431.857 6 100264323.818 6  24485541.195                    24485549.645
 109712397.281 8  85490325.29346  20877552.188                    20877557.309
 109040629.429 8  84966768.752 7  20749737.586                    20749744.230
 108111655.160 8  84242994.283 8  20572945.273                    20572952.363
 122857999.260 7  95733616.03644  23379079.531                    23379088.016
 128380829.531 7 100037053.827 6  24430064.414                    24430073.664
 117388150.200 7  91471361.460 7  22338226.617                    22338236.211
 11  8 16  1 32 30.0000000  0  9G10G30G17G02G12G05G04G29G25
 113424391.112 7  88382778.27945  21583916.992                    21583924.633
 114755860.476 7  89420214.31045  21837315.234                    21837322.641
 128745190.278 6 100321018.676 6  24499385.430                    24499394.980
 109737052.523 8  85509537.18546  20882243.977                    20882249.035
 109039698.093 8  84966043.047 7  20749560.781                    20749567.277
 108069530.743 8  84210170.102 8  20564929.242                    20564936.258
 122940379.748 7  95797808.63444  23394756.102                    23394763.867
 128300163.379 7  99974197.150 6  24414713.891                    24414723.301
 117324081.913 8  91421438.152 7  22326034.406                    22326044.559
 11  8 16  1 33  0.0000000  0  8G10G30G02G12G05G04G29G25
 113488733.685 7  88432915.35445  21596161.008                    21596168.516
 114710068.758 8  89384532.48745  21828601.484                    21828609.590
 109761874.248 8  85528878.80146  20886967.445                    20886972.301
 109039351.478 8  84965772.977 7  20749494.570                    20749501.168
 108027953.322 8  84177772.150 8  20557017.086                    20557023.984
 123022741.361 6  95861986.51444  23410428.117                    23410437.332
 128219431.009 7  99911288.861 6  24399350.734                    24399359.836
 117260472.802 7  91371872.660 7  22313930.086                    22313939.938
 11  8 16  1 33 30.0000000  0  8G10G30G02G12G05G04G29G25
 113553571.771 7  88483438.53945  21608499.656                    21608507.191
 114664841.052 8  89349290.14645  21819994.578                    21820002.543
 109786861.290 8  85548349.23646  20891722.188                    20891727.188
 109039590.396 8  84965959.171 7  20749540.375                    20749546.926
 107986923.783 8  84145801.123 8  20549209.328                    20549216.422
 123105082.766 6  95926148.64944  23426097.727                    23426106.250
 128138632.832 6  99848329.302 6  24383975.461                    24383984.387
 117197324.713 7  91322666.393 7  22301913.484                    22301923.848
 11  8 16  1 34  0.0000000  0  8G10G30G02G12G05G04G29G25
 113618902.846 7  88534345.87445  21620931.328                    21620939.359
 114620178.496 8  89314488.18345  21811495.844                    21811503.801
 109812011.907 8  85567947.13346  20896508.227                    20896513.352
 109040413.226 8  84966600.348 7  20749696.750                    20749703.496
 107946442.932 8  84114257.637 8  20541506.094                    20541513.188
 123187402.492 6  95990293.89444  23441762.438                    23441771.422
 128057768.898 6  99785318.481 6  24368587.258                    24368596.598
 117134639.357 7  91273820.704 7  22289984.805                    22289994.758
 11  8 16  1 34 30.0000000  0  8G10G30G02G12G05G04G29G25
 113684724.241 8  88585635.27045  21633456.930                    21633464.371
 114576082.744 8  89280127.88745  21803104.867                    21803112.629
 109837325.222 8  85587671.81246  20901325.008                    20901330.316
 109041820.397 8  84967696.869 7  20749964.578                    20749971.016
 107906512.143 8  84083142.772 8  20533907.344                    20533914.570
 123269699.778 6  96054421.64544  23457422.586                    23457431.773
 127976839.747 6  99722256.847 6  24353187.500                    24353196.371
 117072418.880 8  91225337.244 7  22278144.453                    22278154.570
 11  8 16  1 35  0.0000000  0  8G10G30G02G12G05G04G29G25
 113751033.806 7  88637305.05845  21646074.906                    21646082.863
 114532555.381 8  89246210.49345  21794821.328                    21794829.324
 109862800.487 8  85607522.68446  20906173.133                    20906178.039
 109043812.244 8  84969248.967 7  20750343.266                    20750350.398
 107867132.531 8  84052457.399 8  20526413.773                    20526420.844
 123351973.968 6  96118531.39144  23473078.883                    23473088.434
 127895846.281 6  99659145.106 6  24337775.133                    24337783.844
 117010665.659 7  91177217.887 7  22266393.156                    22266403.621
 11  8 16  1 35 30.0000000  0  8G10G30G02G12G05G04G29G25
 113817829.181 7  88689353.39545  21658786.023                    21658793.754
 114489598.141 8  89212737.34145  21786646.859                    21786654.777
 109888437.196 8  85627499.36646  20911051.352                    20911056.184
 109046389.442 8  84971257.188 7  20750833.953                    20750840.816
 107828305.355 8  84022202.490 8  20519025.195                    20519032.125
 123434224.643 6  96182622.81444  23488731.289                    23488739.656
 127814789.686 6  99595984.156 6  24322349.664                    24322359.195
 116949382.063 7  91129464.469 7  22254731.500                    22254741.285
 11  8 16  1 36  0.0000000  0  8G10G30G02G12G05G04G29G25
 113885107.780 7  88741778.27645  21671588.500                    21671596.262
 114447212.232 8  89179709.39345  21778581.102                    21778589.160
 109914233.694 8  85647600.54746  20915960.141                    20915964.992
 109049551.783 8  84973721.356 7  20751435.820                    20751441.910
 107790031.447 8  83992378.702 8  20511741.836                    20511748.813
 123516450.363 7  96246694.83244  23504378.469                    23504386.754
 127733670.457 6  99532774.402 6  24306914.305                    24306922.828
 116888569.861 8  91082078.376 7  22243159.109                    22243168.965
 11  8 16  1 36 30.0000000  0  8G10G30G02G12G05G04G29G25
 113952866.785 7  88794577.50045  21684482.742                    21684490.371
 114405398.896 8  89147127.60045  21770624.352                    21770632.141
 109940188.997 8  85667825.48546  20920899.336                    20920904.105
 109053298.290 8  84976640.720 7  20752148.211                    20752155.086
 107752311.987 8  83962986.955 8  20504564.000                    20504571.352
 123598650.275 6  96310746.69243  23520020.195                    23520029.039
 127652488.979 6  99469516.168 6  24291464.727                    24291474.402
 116828231.004 8  91035061.111 7  22231676.641                    22231686.934
 11  8 16  1 37  0.0000000  0  8G10G30G02G12G05G04G29G25
 114021104.111 7  88847749.45345  21697468.211                    21697475.641
 114364159.875 8  89114993.32645  21762776.805                    21762784.422
 109966302.662 8  85688173.82246  20925868.328                    20925873.734
 109057629.861 7  84980015.979 8  20752972.813                    20752979.441
 107715148.243 8  83934028.230 8  20497492.008                    20497499.340
 123680824.042 6  96374778.18444  23535658.133                    23535665.867
 127571246.286 6  99406210.206 6  24276005.602                    24276013.820
 116768367.955 8  90988414.616 7  22220286.055                    22220295.004
 11  8 16  1 37 30.0000000  0  8G10G30G02G12G05G04G29G25
 114089817.469 8  88901292.32945  21710543.398                    21710550.848
 114323496.559 8  89083307.65345  21755038.750                    21755046.609
 109992573.574 8  85708644.68346  20930867.844                    20930872.789
 109062546.299 8  84983846.976 7  20753908.508                    20753915.309
 107678541.329 8  83905503.405 8  20490526.016                    20490533.051
 123762970.710 6  96438788.63143  23551288.914                    23551297.648
 127489943.109 6  99342857.117 6  24260533.641                    24260542.383
 116708982.776 8  90942140.478 7  22208984.773                    22208994.543
 11  8 16  1 38  0.0000000  0  8G10G30G02G12G05G04G29G25
 114159003.684 7  88955203.67845  21723709.273                    21723717.008
 114283410.159 8  89052071.52245  21747410.273                    21747418.254
 110019000.434 8  85729237.05546  20935896.680                    20935901.375
 109068047.137 8  84988133.344 7  20754955.094                    20754962.102
 107642491.937 8  83877413.008 8  20483666.078                    20483673.203
 123845089.302 6  96502777.12543  23566916.016                    23566924.523
 127408580.032 6  99279457.358 6  24245050.492                    24245059.816
 116650077.262 8  90896240.108 7  22197775.188                    22197785.066
 11  8 16  1 38 30.0000000  0  8G10G30G02G12G05G04G29G25
 114228660.382 7  89009481.62445  21736964.844                    21736972.395
 114243901.560 8  89021285.63545  21739892.461                    21739900.082
 110045581.968 8  85749949.96046  20940955.250                    20940960.148
 109074132.296 8  84992875.029 7  20756113.102                    20756119.691
 107607001.099 8  83849757.849 8  20476912.336                    20476919.375
 123927178.604 6  96566742.83743  23582537.117                    23582545.645
 127327157.533 6  99216011.331 6  24229556.305                    24229565.227
 116591653.104 8  90850714.817 7  22186657.898                    22186667.496
 11  8 16  1 39  0.0000000  0  8G10G30G02G12G05G04G29G25
 114298785.197 7  89064124.33945  21750308.484                    21750316.023
 114204972.548 8  88990951.36145  21732484.477                    21732492.281
 110072317.727 8  85770783.04046  20946042.680                    20946047.391
 109080801.458 8  84998071.779 7  20757382.383                    20757388.773
 107572069.679 8  83822538.600 8  20470265.023                    20470271.988
 124009238.452 6  96630685.56443  23598152.383                    23598161.070
 127245676.641 6  99152519.786 6  24214050.773                    24214060.105
 116533712.718 8  90805566.495 7  22175632.016                    22175641.973
 11  8 16  1 39 30.0000000  0  8G10G30G02G12G05G04G29G25
 114369375.642 7  89119129.89245  21763741.430                    21763749.285
 114166624.534 8  88961069.81745  21725187.148                    21725194.805
 110099206.850 8  85791735.62246  20951159.438                    20951164.461
 109088054.978 8  85003723.881 7  20758762.234                    20758769.133
 107537698.933 8  83795756.241 8  20463724.633                    20463731.449
 124091268.015 7  96694604.71343  23613762.164                    23613770.652
 127164138.243 7  99088983.436 6  24198535.172                    24198543.977
 116476258.301 8  90760796.853 7  22164698.625                    22164708.500
 11  8 16  1 40  0.0000000  0  8G10G30G02G12G05G04G29G25
 114440428.564 7  89174495.81145  21777262.664                    21777270.211
 114128858.450 8  88931641.72045  21718000.641                    21718008.277
 110126247.924 8  85812806.61346  20956305.031                    20956310.414
 109095892.300 8  85009830.888 7  20760254.023                    20760260.738
 107503889.285 8  83769411.101 8  20457290.633                    20457297.734
 124173266.271 7  96758499.49844  23629366.008                    23629374.160
 127082542.952 7  99025402.766 6  24183007.375                    24183016.594
 116419291.413 8  90716407.104 7  22153858.320                    22153868.145
 11  8 16  1 40 30.0000000  0  8G10G30G02G12G05G04G29G25
 114511941.816 7  89230220.42645  21790870.609                    21790878.730
 114091675.603 7  88902668.10345  21710924.375                    21710931.902
 110153440.290 8  85833995.48846  20961479.656                    20961484.875
 109104313.331 8  85016392.733 8  20761856.523                    20761862.938
 107470641.973 8  83743504.138 8  20450963.711                    20450970.805
 124255232.542 7  96822369.30943  23644964.180                    23644972.195
 127000891.575 7  98961778.397 6  24167469.906                    24167479.332
 116362814.180 8  90672398.908 7  22143110.844                    22143120.586
 11  8 16  1 41  0.0000000  0  8G10G30G02G12G05G04G29G25
 114583912.371 7  89286301.38945  21804566.492                    21804574.148
 114055077.060 7  88874149.78245  21703960.125                    21703967.551
 110180782.715 8  85855301.28946  20966682.555                    20966687.613
 109113317.397 8  85023408.898 7  20763569.883                    20763576.219
 107437957.833 8  83718036.013 8  20444744.117                    20444751.266
 124337165.887 7  96886213.51243  23660555.211                    23660563.344
 126919184.799 7  98898110.841 6  24151921.430                    24151930.320
 116306828.358 8  90628773.615 7  22132457.141                    22132467.223
 11  8 16  1 41 30.0000000  0  8G10G30G02G12G05G04G29G25
 114656338.158 7  89342737.07745  21818348.477                    21818355.488
 114019064.585 7  88846088.14545  21697107.422                    21697114.422
 110208275.100 8  85876723.94046  20971914.375                    20971919.262
 109122904.993 8  85030879.756 7  20765394.102                    20765400.934
 107405837.992 8  83693007.600 8  20438631.883                    20438639.016
 124419066.117 7  96950031.90643  23676140.133                    23676148.711
 126837424.000 6  98834401.220 6  24136363.227                    24136372.125
 116251336.515 8  90585533.240 7  22121897.320                    22121907.430
 11  8 16  1 42  0.0000000  0  8G10G30G02G12G05G04G29G25
 114729216.136 7  89399525.10345  21832217.078                    21832224.367
 113983639.132 7  88818483.92945  21690365.828                    21690373.555
 110235916.136 8  85898262.43246  20977174.563                    20977179.082
 109133075.603 8  85038804.914 8  20767329.563                    20767336.285
 107374283.079 8  83668419.383 8  20432627.445                    20432634.352
 124500932.369 7  97013823.80243  23691718.828                    23691726.586
 126755609.588 6  98770649.806 6  24120793.859                    24120802.992
 116196340.201 8  90542679.005 7  22111431.852                    22111441.488
 11  8 16  1 42 30.0000000  0  8G10G30G02G12G05G04G29G25
 114802544.544 7  89456664.13545  21846170.563                    21846178.520
 113948802.127 7  88791338.24145  21683736.156                    21683744.148
 110263705.247 8  85919916.30646  20982462.586                    20982467.324
 109143828.932 8  85047184.136 7  20769375.859                    20769382.500
 107343293.999 8  83644272.080 8  20426730.422                    20426737.258
 124582764.155 7  97077588.85744  23707290.414                    23707299.668
 126673742.729 6  98706857.530 6  24105215.359                    24105224.527
 116141841.770 8  90500212.723 7  22101061.156                    22101070.980
 11  8 16  1 43  0.0000000  0  8G10G30G02G12G05G04G29G25
 114876320.018 7  89514151.52445  21860209.695                    21860216.699
 113914553.844 7  88764651.29545  21677219.289                    21677227.137
 110291640.545 8  85941684.08346  20987777.898                    20987782.902
 109155163.980 8  85056016.648 7  20771532.758                    20771539.457
 107312871.075 8  83620565.944 8  20420940.781                    20420947.832
 124664560.104 6  97141325.97744  23722855.664                    23722864.680
 126591823.686 6  98643024.587 6  24089626.102                    24089635.695
 116087842.270 8  90458135.226 7  22090785.344                    22090795.547
 11  8 16  1 43 30.0000000  0  8G10G30G02G12G05G04G29G25
 114950540.311 7  89571985.53145  21874333.414                    21874341.125
 113880895.973 7  88738424.41145  21670814.773                    21670822.160
 110319721.695 8  85963565.50546  20993122.039                    20993126.809
 109167080.754 8  85065302.458 7  20773800.531                    20773807.066
 107283015.395 8  83597301.806 8  20415259.508                    20415266.758
 124746319.932 6  97205034.93344  23738414.336                    23738423.258
 126509853.510 6  98579151.799 6  24074028.023                    24074037.020
 116034344.037 8  90416448.322 7  22080605.125                    22080614.852
 11  8 16  1 44  0.0000000  0  8G10G30G02G12G05G04G29G25
 115025202.122 7  89630163.56145  21888541.477                    21888548.824
 113847829.208 7  88712658.12445  21664522.141                    21664529.281
 110347947.605 7  85985559.73746  20998492.969                    20998498.016
 109179578.512 8  85075040.985 7  20776178.750                    20776185.496
 107253727.489 7  83574480.088 8  20409686.453                    20409693.480
 124828042.860 6  97268715.14743  23753966.180                    23753974.715
 126427833.060 6  98515239.820 6  24058419.977                    24058428.750
 115981348.698 8  90375153.293 7  22070520.172                    22070530.234
 11  8 16  1 44 30.0000000  0  8G10G30G02G12G05G04G29G25
 115100302.972 8  89688683.70045  21902832.383                    21902839.988
 113815354.711 7  88687353.35945  21658342.000                    21658349.746
 110376317.591 8  86007666.24146  21003891.789                    21003896.848
 109192657.046 8  85085232.063 7  20778667.789                    20778674.305
 107225008.423 8  83552101.621 8  20404221.063                    20404227.945
 124909728.106 6  97332365.98243  23769509.469                    23769518.645
 126345763.193 6  98451289.359 6  24042802.625                    24042811.195
 115928858.151 8  90334251.614 7  22060531.742                    22060541.746
 11  8 16  1 45  0.0000000  0  8G10G30G02G12G05G04G29G25
 115175840.626 7  89747544.22045  21917206.406                    21917214.316
 113783473.799 7  88662511.12445  21652275.430                    21652282.957
 110404830.839 8  86029884.37446  21009317.656                    21009322.418
 109206316.564 8  85095875.855 7  20781266.914                    20781273.402
 107196858.415 8  83530166.587 8  20398864.461                    20398871.539
 124991375.179 6  97395987.06844  23785046.383                    23785056.023
 126263645.223 6  98387301.379 6  24027176.203                    24027184.738
 115876874.457 8  90293744.877 7  22050639.508                    22050649.289
 11  8 16  1 45 30.0000000  0  8G10G30G02G12G05G04G29G25
 115251811.930 7  89806742.64245  21931663.648                    21931671.148
 113752187.166 7  88638131.95345  21646321.813                    21646329.234
 110433486.513 8  86052213.47546  21014770.578                    21014775.480
 109220555.968 8  85106971.508 7  20783976.586                    20783982.918
 107169278.225 8  83508675.560 8  20393616.242                    20393623.031
 125072983.411 7  97459577.90143  23800576.500                    23800585.469
 126181479.561 6  98323276.252 6  24011539.891                    24011549.051
 115825399.162 8  90253634.299 7  22040843.570                    22040854.148
 11  8 16  1 46  0.0000000  0  8G10G30G02G12G05G04G29G25
 115328214.677 7  89866277.25445  21946202.422                    21946210.141
 113721496.107 8  88614216.85945  21640481.469                    21640488.980
 110462283.972 8  86074653.07046  21020250.516                    21020256.063
 109235374.888 8  85118518.730 7  20786796.516                    20786803.020
 107142269.290 8  83487629.662 8  20388476.180                    20388483.340
 125154552.431 6  97523138.17843  23816098.430                    23816107.223
 126099267.641 6  98259215.082 6  23995896.055                    23995904.848
 115774434.509 8  90213921.625 7  22031145.563                    22031155.551
 11  8 16  1 46 30.0000000  0  8G10G30G02G12G05G04G29G25
 115405045.694 7  89926145.58545  21960822.828                    21960830.820
 113691401.203 7  88590766.31545  21634754.547                    21634762.121
 110491221.732 8  86097201.99246  21025757.484                    21025762.340
 109250772.188 8  85130516.642 7  20789726.367                    20789733.207
 107115831.210 8  83467028.593 8  20383445.297                    20383452.129
 125236081.089 6  97586667.00843  23831612.516                    23831621.219
 126017009.752 6  98195118.067 6  23980242.750                    23980251.891
 115723981.721 8  90174607.802 7  22021544.914                    22021554.734
 11  8 16  1 47  0.0000000  0  8G10G30G02G12G05G04G29G25
 115482302.413 7  89986345.63845  21975524.469                    21975532.242
 113661903.530 7  88567781.13645  21629141.344                    21629149.000
 110520299.254 8  86119859.81146  21031290.391                    21031295.492
 109266747.724 8  85142965.119 7  20792766.711                    20792772.922
 107089964.818 8  83446872.988 8  20378523.109                    20378529.875
 125317569.056 7  97650164.11543  23847120.109                    23847127.980
 125934706.986 6  98130986.103 6  23964581.172                    23964590.129
 115674042.791 8  90135694.386 7  22012041.688                    22012051.719
 11  8 16  1 47 30.0000000  0  8G10G30G02G12G05G04G29G25
 115559981.515 7  90046874.81045  21990305.875                    21990313.980
 113633003.380 7  88545261.56445  21623641.883                    21623649.406
 110549515.040 8  86142625.37246  21036850.172                    21036854.668
 109283300.592 8  85155863.475 7  20795916.344                    20795923.102
 107064670.229 8  83427162.947 8  20373709.695                    20373716.574
 125399015.003 6  97713628.51243  23862617.703                    23862626.930
 125852360.046 6  98066819.689 6  23948910.945                    23948919.750
 115624618.826 8  90097182.246 7  22002636.703                    22002646.453
 11  8 16  1 48  0.0000000  0  8G10G30G02G12G05G04G29G25
 115638081.243 7  90107731.74045  22005168.320                    22005175.781
 113604702.615 7  88523209.04845  21618256.828                    21618264.352
 110578869.455 8  86165498.96246  21042436.031                    21042440.922
 109300430.901 8  85169211.770 8  20799176.406                    20799182.453
 107039949.037 8  83407899.718 8  20369005.305                    20369012.129
 125480419.444 6  97777060.54644  23878108.969                    23878117.527
 125769970.561 6  98002620.107 6  23933232.930                    23933241.098
 115575712.514 8  90059073.467 7  21993330.055                    21993339.957
 11  8 16  1 48 30.0000000  0  8G10G30G02G12G05G04G29G25
 115716598.397 7  90168913.94345  22020110.141                    22020117.078
 113577001.180 7  88501623.54645  21612985.039                    21612992.691
 110608360.583 8  86188479.06946  21048048.102                    21048053.082
 109318137.679 8  85183009.269 7  20802545.781                    20802552.469
 107015800.694 8  83389082.854 8  20364410.047                    20364416.914
 125561781.021 7  97840459.16643  23893592.000                    23893600.137
 125687538.689 7  97938387.514 6  23917546.508                    23917554.910
 115527324.811 8  90021368.797 7  21984122.148                    21984132.246
 11  8 16  1 49  0.0000000  0  8G10G30G02G12G05G04G29G25
 115795529.978 7  90230419.07845  22035129.602                    22035137.309
 113549900.000 7  88480505.76345  21607828.203                    21607835.473
 110637987.581 8  86211565.06746  21053686.156                    21053690.852
 109336419.804 8  85197255.087 7  20806024.719                    20806031.141
 106992225.798 8  83370712.835 8  20359924.039                    20359930.449
 125643098.841 7  97903823.72543  23909066.453                    23909074.441
 125605065.560 7  97874122.771 6  23901852.258                    23901860.660
 115479457.274 8  89984069.460 7  21975013.531                    21975023.184
 11  8 16  1 49 30.0000000  0  8G10G30G02G12G05G04G29G25
 115874873.771 7  90292245.42245  22050228.188                    22050235.902
 113523400.588 7  88459856.90346  21602784.883                    21602792.691
 110667750.601 8  86234757.04546  21059349.563                    21059354.484
 109355276.933 8  85211948.966 7  20809613.070                    20809619.719
 106969225.497 8  83352790.556 8  20355546.984                    20355553.965
 125724373.375 6  97967154.54843  23924531.867                    23924540.188
 125522552.858 7  97809827.194 6  23886150.367                    23886159.184
 115432112.426 8  89947177.414 7  21966004.055                    21966013.488
 11  8 16  1 50  0.0000000  0  8G10G30G02G12G05G04G29G25
 115954626.148 7  90354390.14845  22065404.180                    22065412.145
 113497502.727 7  88439676.77845  21597856.992                    21597864.797
 110697647.532 8  86258053.36546  21065038.711                    21065043.676
 109374707.847 8  85227089.934 7  20813310.531                    20813317.125
 106946799.228 8  83335315.568 8  20351279.648                    20351286.527
 125805603.018 6  98030450.40443  23939989.422                    23939997.973
 125440000.735 7  97745500.916 6  23870441.484                    23870449.816
 115385290.874 8  89910693.122 7  21957093.852                    21957103.766
 11  8 16  1 50 30.0000000  0  8G10G30G02G12G05G04G29G25
 116034785.000 7  90416851.58345  22080658.859                    22080666.105
 113472207.769 8  88419966.44645  21593043.289                    21593050.953
 110727678.663 8  86281454.26646  21070753.430                    21070757.957
 109394712.443 8  85242677.944 7  20817117.273                    20817123.750
 106924948.041 8  83318288.702 8  20347121.273                    20347127.785
 125886788.020 6  98093711.45143  23955438.828                    23955447.094
 125357410.639 6  97681145.043 6  23854724.828                    23854733.496
 115338994.913 8  89874618.387 7  21948284.297                    21948293.617
 11  8 16  1 51  0.0000000  0  8G10G30G02G12G05G04G29G25
 116115347.629 7  90479627.66345  22095988.586                    22095996.246
 113447516.374 8  88400726.41845  21588344.773                    21588352.410
 110757842.933 8  86304958.90146  21076493.398                    21076498.387
 109415289.844 8  85258712.279 7  20821033.180                    20821039.914
 106903672.193 8  83301710.144 8  20343072.570                    20343079.336
 125967927.437 7  98156936.99543  23970879.313                    23970887.063
 125274783.579 6  97616760.358 6  23839001.625                    23839009.910
 115293226.077 8  89838954.390 7  21939574.547                    21939583.945
 11  8 16  1 51 30.0000000  0  8G10G30G02G12G05G04G29G25
 116196311.149 7  90542716.13145  22111395.734                    22111403.172
 113423429.198 8  88381957.22045  21583760.969                    21583768.844
 110788139.682 8  86328566.78746  21082258.844                    21082263.941
 109436439.465 8  85275192.510 7  20825057.859                    20825064.340
 106882972.329 8  83285580.418 8  20339133.828                    20339140.207
 126049021.065 7  98220126.83943  23986310.195                    23986318.594
 125192120.487 6  97552347.625 6  23823270.977                    23823279.703
 115247985.897 8  89803702.344 7  21930965.656                    21930975.121
 11  8 16  1 52  0.0000000  0  8G10G30G02G12G05G04G29G25
 116277672.669 7  90606114.72145  22126878.375                    22126886.145
 113399946.792 8  88363659.27646  21579292.664                    21579300.027
 110818567.842 8  86352277.05946  21088049.125                    21088053.770
 109458160.087 8  85292117.674 7  20829191.133                    20829198.008
 106862848.264 8  83269899.351 8  20335304.063                    20335310.754
 126130067.954 7  98283280.28643  24001732.945                    24001741.547
 125109422.419 6  97487907.639 6  23807534.484                    23807543.070
 115203275.829 8  89768863.365 7  21922457.414                    21922467.328
 11  8 16  1 52 30.0000000  0  8G10G30G02G12G05G04G29G25
 116359429.014 7  90669820.96645  22142435.688                    22142443.102
 113377069.432 8  88345832.79246  21574939.492                    21574946.719
 110849126.191 8  86376088.77346  21093864.141                    21093868.965
 109480450.349 8  85309486.711 7  20833432.742                    20833439.230
 106843300.224 8  83254667.141 8  20331584.227                    20331590.691
 126211067.563 6  98346396.91143  24017146.734                    24017154.980
 125026690.086 7  97423440.934 6  23791790.500                    23791799.625
 115159097.165 8  89734438.471 7  21914050.555                    21914060.188
 11  8 16  1 53  0.0000000  0  8G10G30G02G12G05G04G29G25
 116441578.258 7  90733833.36045  22158068.578                    22158076.004
 113354798.518 7  88328478.85946  21570701.039                    21570708.785
 110879814.948 8  86400002.10646  21099703.758                    21099708.902
 109503310.446 8  85327299.780 7  20837783.078                    20837789.371
 106824329.262 8  83239884.611 8  20327974.117                    20327981.129
 126292019.816 6  98409476.63343  24032551.898                    24032560.469
 124943924.955 6  97358948.708 6  23776040.523                    23776050.094
 115115452.073 8  89700429.348 7  21905745.148                    21905754.707
 11  8 16  1 53 30.0000000  0  8G10G30G02G12G05G04G29G25
 116524116.996 7  90798149.27345  22173774.813                    22173782.070
 113333133.911 8  88311597.37446  21566578.508                    21566586.328
 110910632.474 8  86424015.77546  21105568.258                    21105573.141
 109526738.980 8  85345555.789 7  20842241.188                    20842248.125
 106805934.897 8  83225551.364 8  20324473.570                    20324480.883
 126372923.796 6  98472518.71943  24047947.008                    24047955.531
 124861127.618 7  97294431.380 6  23760285.219                    23760293.480
 115072341.443 8  89666836.680 7  21897541.680                    21897550.840
 11  8 16  1 54  0.0000000  0  8G10G30G02G12G05G04G29G25
 116607042.421 7  90862766.49145  22189555.172                    22189563.477
 113312076.364 8  88295188.92446  21562571.461                    21562578.750
 110941578.357 8  86448129.46246  21111456.859                    21111461.844
 109550734.962 8  85364253.950 7  20846807.227                    20846813.930
 106788117.373 8  83211667.613 8  20321083.305                    20321090.035
 126453779.005 6  98535522.78043  24063332.578                    24063341.668
 124778299.447 6  97229890.010 6  23744523.453                    23744531.773
 115029766.890 8  89633661.749 7  21889439.703                    21889449.313
 11  8 16  1 54 30.0000000  0  8G10G30G02G12G05G04G29G25
 116690351.846 7  90927682.93945  22205408.422                    22205416.031
 113291626.386 8  88279253.90546  21558679.844                    21558687.402
 110972651.853 8  86472342.60046  21117370.289                    21117375.164
 109575297.522 8  85383393.617 7  20851481.328                    20851488.207
 106770877.405 8  83198233.900 8  20317802.375                    20317809.102
 126534585.043 6  98598488.53043  24078709.625                    24078718.457
 124695441.704 7  97165325.602 6  23728755.656                    23728764.578
 114987729.925 8  89600905.708 7  21881439.859                    21881449.770
 11  8 16  1 55  0.0000000  0  8G10G30G02G12G05G04G29G25
 116774042.427 7  90992896.37145  22221334.344                    22221342.051
 113271784.549 8  88263792.76146  21554904.156                    21554911.320
 111003852.217 8  86496654.58746  21123307.375                    21123312.176
 109600425.671 8  85402973.995 7  20856263.039                    20856269.758
 106754214.745 8  83185250.040 8  20314631.734                    20314638.273
 126615341.517 6  98661415.64843  24094077.148                    24094086.508
 124612555.351 7  97100738.903 6  23712983.508                    23712991.438
 114946232.037 8  89568569.728 7  21873543.375                    21873553.195
 11  8 16  1 55 30.0000000  0  8G10G30G02G12G05G04G29G25
 116858111.275 7  91058404.56745  22237332.094                    22237339.496
 113252551.267 8  88248805.81546  21551243.969                    21551251.574
 111035178.697 8  86521064.85346  21129268.797                    21129273.789
 109626118.327 8  85422994.254 7  20861152.563                    20861158.941
 106738129.647 8  83172716.226 8  20311570.891                    20311577.363
 126696048.048 6  98724303.83043  24109435.359                    24109444.656
 124529641.089 7  97036130.441 6  23697205.313                    23697214.109
 114905274.624 8  89536654.884 7  21865749.664                    21865759.023
 11  8 16  1 56  0.0000000  0  8G10G30G02G12G05G04G29G25
 116942555.846 7  91124205.54345  22253401.352                    22253408.777
 113233927.168 8  88234293.55346  21547699.789                    21547707.500
 111066630.815 8  86545573.01146  21135253.609                    21135258.777
 109652374.598 8  85443453.696 7  20866148.633                    20866155.574
 106722622.492 8  83160632.761 8  20308619.938                    20308626.559
 126776704.189 6  98787152.77643  24124783.102                    24124792.742
 124446700.745 7  96971501.654 6  23681422.227                    23681430.742
 114864859.249 8  89505162.422 7  21858058.914                    21858068.418
 11  8 16  1 56 30.0000000  0  8G10G30G02G12G05G04G29G25
 117027372.301 7  91190296.29545  22269541.195                    22269548.879
 113215911.505 8  88220255.39645  21544271.992                    21544279.250
 111098206.165 8  86570177.19446  21141262.367                    21141267.473
 109679192.477 8  85464350.747 7  20871252.320                    20871258.770
 106707692.083 8  83148998.708 8  20305778.695                    20305785.395
 126857308.533 6  98849961.35743  24140122.438                    24140131.320
 124363734.210 7  96906852.459 6  23665634.242                    23665642.766
 114824986.078 8  89474092.459 7  21850471.070                    21850480.512
 11  8 16  1 57  0.0000000  0  8G10G30G02G12G05G04G29G25
 117112558.605 7  91256675.22145  22285752.023                    22285759.906
 113198505.714 8  88206692.46846  21540959.711                    21540967.180
 111129905.776 8  86594878.21546  21147294.586                    21147299.297
 109706572.406 8  85485685.754 7  20876462.406                    20876468.773
 106693339.582 8  83137814.967 8  20303047.078                    20303053.664
 126937861.428 7  98912729.85443  24155451.250                    24155459.160
 124280743.533 7  96842184.434 6  23649841.805                    23649849.887
 114785657.651 8  89443446.959 7  21842987.367                    21842996.668
 11  8 16  1 57 30.0000000  0  8G10G30G02G12G05G04G29G25
 117198112.425 7  91323340.54345  22302032.148                    22302039.621
 113181710.318 8  88193605.16346  21537763.234                    21537770.691
 111161729.166 8  86619675.67446  21153350.477                    21153355.109
 109734512.605 8  85507457.347 7  20881779.102                    20881786.012
 106679565.364 8  83127081.839 8  20300426.156                    20300433.008
 127018362.813 6  98975458.23543  24170769.773                    24170778.758
 124197730.013 7  96777498.627 6  23634044.641                    23634052.793
 114746875.444 8  89413227.086 7  21835606.953                    21835616.613
 11  8 16  1 58  0.0000000  0  8G10G30G02G12G05G04G29G25
 117284030.556 7  91390289.73845  22318381.922                    22318389.355
 113165525.416 8  88180993.57546  21534683.867                    21534690.793
 111193675.245 8  86644568.73746  21159429.352                    21159434.469
 109763012.090 8  85529664.747 7  20887202.453                    20887209.086
 106666369.293 8  83116799.212 8  20297915.250                    20297921.766
 127098812.005 6  99038145.93543  24186079.266                    24186086.965
 124114694.755 7  96712795.867 6  23618243.070                    23618251.621
 114708640.507 8  89383433.664 7  21828331.492                    21828341.086
 11  8 16  1 58 30.0000000  0  8G10G30G02G12G05G04G29G25
 117370309.470 7  91457520.06344  22334800.094                    22334808.172
 113149950.693 8  88168857.45245  21531719.414                    21531726.910
 111225742.373 8  86669556.12946  21165531.484                    21165536.465
 109792069.235 8  85552306.683 7  20892732.063                    20892738.336
 106653750.528 8  83106966.438 8  20295513.984                    20295520.523
 127179207.951 6  99100792.14043  24201378.258                    24201386.516
 124031638.313 7  96648076.592 6  23602438.211                    23602446.461
 114670953.467 8  89354067.174 7  21821159.508                    21821169.082
 11  8 16  1 59  0.0000000  0  8G10G30G02G12G05G04G29G25
 117456946.757 7  91525029.63945  22351286.906                    22351294.371
 113134986.959 7  88157197.41946  21528872.234                    21528879.742
 111257930.913 8  86694638.13746  21171656.930                    21171661.367
 109821683.130 8  85575382.459 7  20898366.961                    20898373.625
 106641709.725 8  83097584.024 8  20293222.547                    20293228.941
 127259551.164 6  99163397.25043  24216666.938                    24216674.504
 123948562.482 7  96583342.230 6  23586629.141                    23586637.715
 114633816.285 8  89325129.140 7  21814092.523                    21814102.027
 11  8 16  1 59 30.0000000  0  8G10G30G02G12G05G04G29G25
 117543939.804 7  91592816.42945  22367841.008                    22367848.289
 113120634.671 8  88146013.84045  21526140.469                    21526148.301
 111290239.955 8  86719814.03746  21177805.078                    21177809.777
 109851852.946 8  85598891.413 7  20904108.258                    20904114.922
 106630246.853 8  83088651.939 8  20291041.266                    20291047.801
 127339840.775 6  99225960.57243  24231944.953                    24231953.695
 123865468.073 7  96518593.382 6  23570817.125                    23570825.656
 114597230.222 8  89296620.546 7  21807130.445                    21807140.145
 11  8 16  2  0  0.0000000  0  8G10G30G02G12G05G04G29G25
 117631285.002 7  91660877.63245  22384461.734                    22384469.781
 113106893.156 8  88135306.19246  21523525.867                    21523533.375
 111322667.989 8  86745082.65846  21183975.961                    21183980.512
 109882576.764 8  85622832.058 7  20909955.031                    20909961.496
 106619361.177 8  83080169.613 8  20288970.031                    20288976.250
 127420075.953 6  99288481.47243  24247213.625                    24247221.641
 123782355.953 7  96453830.706 6  23555001.008                    23555010.133
 114561195.709 8  89268541.735 7  21800273.344                    21800282.449
 11  8 16  2  0 30.0000000  0  8G10G30G02G12G05G04G29G25
 117718979.584 7  91729211.06744  22401149.781                    22401157.945
 113093762.889 7  88125074.83046  21521027.422                    21521035.336
 111355214.918 8  86770443.92446  21190169.250                    21190174.234
 109913853.465 8  85647203.515 7  20915906.438                    20915913.523
 106609052.812 7  83072137.150 8  20287007.805                    20287014.484
 127500256.573 6  99350959.85243  24262471.047                    24262479.543
 123699227.873 7  96389055.622 6  23539182.734                    23539191.250
 114525714.249 8  89240893.869 7  21793521.250                    21793531.066
 11  8 16  2  1  0.0000000  0  8G10G30G02G12G05G04G29G25
 117807021.001 7  91797814.77044  22417903.719                    22417911.070
 113081244.393 8  88115320.18145  21518645.094                    21518652.680
 111387880.182 8  86795897.39946  21196385.328                    21196390.066
 109945682.445 8  85672005.326 7  20921963.328                    20921970.055
 106599321.943 8  83064554.681 8  20285156.094                    20285162.711
 127580382.577 6  99413395.70243  24277718.727                    24277727.563
 123616084.871 7  96324268.917 6  23523360.492                    23523369.574
 114490787.420 8  89213678.192 7  21786875.070                    21786884.594
 11  8 16  2  1 30.0000000  0  8G10G30G02G12G05G04G29G25
 117895406.771 7  91866686.79744  22434722.789                    22434730.461
 113069337.898 8  88106042.41046  21516379.555                    21516386.941
 111420663.556 8  86821442.91946  21202623.469                    21202628.664
 109978061.967 8  85697236.127 7  20928124.781                    20928131.426
 106590168.564 8  83057422.201 8  20283414.180                    20283420.910
 127660453.831 6  99475788.88143  24292955.445                    24292964.121
 123532928.404 7  96259471.714 6  23507536.609                    23507545.266
 114456416.422 8  89186895.620 7  21780334.133                    21780343.605
 11  8 16  2  2  0.0000000  0  9G10G30G26G02G12G05G04G29G25
 117984133.437 7  91935824.46844  22451607.086                    22451614.586
 113058042.913 8  88097241.14446  21514229.688                    21514237.473
 130428277.83716 101632475.11053  24819680.852                    24819689.570
 111453563.431 8  86847079.20446  21208884.234                    21208889.121
 110010990.376 8  85722894.631 7  20934391.266                    20934397.797
 106581591.850 8  83050739.072 8  20281782.117                    20281789.246
 127740469.244 6  99538138.55843  24308182.695                    24308191.191
 123449759.385 7  96194664.727 6  23491709.758                    23491718.414
 114422601.847 8  89160546.629 7  21773899.789                    21773909.391
 11  8 16  2  2 30.0000000  0  9G10G30G26G02G12G05G04G29G25
 118073198.233 7  92005225.60445  22468555.789                    22468562.789
 113047359.706 8  88088916.57645  21512196.742                    21512204.492
 130335386.799 6 101560092.60843  24802004.922                    24802013.492
 111486579.410 8  86872805.96946  21215166.813                    21215171.844
 110044466.561 8  85748979.978 7  20940761.406                    20940767.797
 106573591.802 8  83044505.295 8  20280259.953                    20280266.875
 127820428.651 6  99600444.61443  24323398.258                    24323406.703
 123366578.796 7  96129848.730 6  23475881.547                    23475889.758
 114389344.868 8  89134632.128 7  21767571.102                    21767580.559
 11  8 16  2  3  0.0000000  0  9G10G30G26G02G12G05G04G29G25
 118162598.788 7  92074888.39444  22485568.125                    22485575.375
 113037288.652 8  88081069.02045  21510280.656                    21510288.402
 130242366.946 6 101487609.72543  24784302.297                    24784312.277
 111519711.589 8  86898623.27746  21221471.781                    21221476.719
 110078489.559 8  85775491.406 7  20947235.688                    20947242.637
 106566168.618 8  83038721.018 8  20278847.641                    20278853.906
 127900332.156 7  99662707.09443  24338603.742                    24338612.012
 123283388.677 7  96065025.331 6  23460050.516                    23460058.879
 114356647.054 8  89109153.339 7  21761348.992                    21761358.285
 11  8 16  2  3 30.0000000  0  9G10G30G26G02G12G05G04G29G25
 118252331.840 7  92144810.25644  22502643.492                    22502651.344
 113027829.534 8  88073698.28845  21508480.336                    21508488.117
 130149220.853 6 101415028.43343  24766576.883                    24766587.148
 111552958.731 8  86924530.15946  21227798.477                    21227803.539
 110113057.703 8  85802427.620 7  20953813.945                    20953820.688
 106559321.992 8  83033386.003 8  20277544.359                    20277551.027
 127980179.076 6  99724925.54043  24353797.859                    24353806.297
 123200189.983 6  96000195.258 6  23444218.484                    23444226.813
 114324509.160 8  89084110.858 7  21755233.242                    21755242.672
 11  8 16  2  4  0.0000000  0  9G10G30G26G02G12G05G04G29G25
 118342394.418 7  92214988.87145  22519782.125                    22519789.488
 113018982.277 8  88066804.33845  21506796.602                    21506804.406
 130055951.520 6 101342351.12843  24748829.539                    24748838.449
 111586320.323 8  86950526.22246  21234146.758                    21234151.398
 110148169.485 8  85829787.445 7  20960495.414                    20960501.918
 106553051.236 8  83028499.731 8  20276350.961                    20276358.156
 128059969.048 6  99787099.59942  24368980.023                    24368989.813
 123116983.717 6  95935359.289 6  23428383.969                    23428393.023
 114292932.147 8  89059505.413 7  21749224.352                    21749233.770
 11  8 16  2  4 30.0000000  0  9G10G30G26G02G12G05G04G29G25
 118432783.517 7  92285421.96144  22536982.453                    22536989.578
 113010746.716 8  88060387.02946  21505229.969                    21505237.148
 129962561.339 6 101269579.62943  24731057.555                    24731066.566
 111619795.693 8  86976610.94146  21240517.250                    21240522.129
 110183823.329 8  85857569.660 7  20967280.070                    20967286.820
 106547355.876 8  83024061.819 8  20275267.188                    20275273.988
 128139701.738 6  99849229.03342  24384152.266                    24384162.543
 123033771.205 7  95870518.442 6  23412550.289                    23412558.570
 114261916.903 8  89035337.708 7  21743322.758                    21743331.625
 11  8 16  2  5  0.0000000  0  9G10G30G26G02G12G05G04G29G25
 118523496.165 7  92356107.13344  22554244.516                    22554251.660
 113003122.668 8  88054446.22546  21503779.250                    21503786.223
 129869053.367 6 101196716.36743  24713263.461                    24713272.984
 111653383.935 8  87002783.60946  21246908.906                    21246913.480
 110220017.715 8  85885773.066 7  20974167.234                    20974174.133
 106542235.666 8  83020072.063 8  20274293.031                    20274299.410
 128219376.797 6  99911313.57442  24399314.328                    24399324.176
 122950553.719 7  95805673.733 6  23396713.883                    23396722.059
 114231464.391 8  89011608.500 7  21737527.484                    21737536.965
 11  8 16  2  5 30.0000000  0  9G10G30G26G02G12G05G04G29G25
 118614529.584 7  92427042.26344  22571567.711                    22571574.672
 112996110.105 8  88048981.89545  21502444.656                    21502451.805
 129775430.659 6 101123763.74543  24695447.820                    24695457.188
 111687084.484 7  87029043.80346  21253321.734                    21253326.316
 110256751.639 8  85914396.897 7  20981157.727                    20981164.789
 106537690.296 8  83016530.247 8  20273427.563                    20273434.602
 128298993.963 5  99973352.90842  24414465.398                    24414474.719
 122867332.359 7  95740826.008 6  23380877.234                    23380885.465
 114201575.585 8  88988318.547 7  21731839.930                    21731849.125
 11  8 16  2  6  0.0000000  0  9G10G30G26G02G12G05G04G29G25
 118705881.185 7  92498225.33544  22588950.547                    22588958.266
 112989709.172 7  88043994.16046  21501226.508                    21501234.027
 129681696.139 6 101050723.90643  24677610.750                    24677620.160
 111720897.220 7  87055391.39746  21259756.414                    21259760.914
 110294023.096 8  85943439.581 7  20988250.586                    20988257.047
 106533719.800 8  83013436.373 8  20272672.570                    20272678.684
 128378553.139 6 100035347.06643  24429604.773                    24429613.883
 122784109.013 7  95675976.740 6  23365040.563                    23365048.691
 114172251.746 8  88965468.827 7  21726259.227                    21726269.555
 11  8 16  2  6 30.0000000  0  9G10G30G26G02G12G05G04G29G25
 118797547.954 7  92569653.96844  22606394.125                    22606402.234
 112983919.621 8  88039482.83346  21500125.148                    21500132.148
 129587852.843 6 100977599.35243  24659753.242                    24659761.668
 111754821.567 8  87081825.97746  21266211.984                    21266216.363
 110331831.004 8  85972900.289 7  20995444.906                    20995451.824
 106530323.642 8  83010790.041 8  20272026.055                    20272032.813
 128458053.885 6 100097295.71142  24444734.180                    24444742.371
 122700884.532 7  95611126.587 6  23349203.570                    23349211.879
 114143493.649 8  88943059.935 7  21720787.039                    21720796.477
 11  8 16  2  7  0.0000000  0  9G10G30G26G02G12G05G04G29G25
 118889526.954 7  92641325.90444  22623897.492                    22623905.266
 112978741.239 7  88035447.73745  21499139.563                    21499146.926
 129493903.590 6 100904392.25443  24641874.742                    24641883.547
 111788856.583 8  87108346.78046  21272688.453                    21272693.250
 110370173.771 8  86002777.764 7  21002741.195                    21002748.473
 106527501.530 8  83008591.018 8  20271489.211                    20271495.559
 128537496.069 6 100159198.70943  24459851.305                    24459859.215
 122617660.688 7  95546276.929 6  23333366.078                    23333374.379
 114115302.191 8  88921092.579 7  21715422.422                    21715431.719
 11  8 16  2  7 30.0000000  0  9G10G30G26G02G12G05G04G29G25
 118981814.680 7  92713238.40944  22641459.461                    22641466.977
 112974173.213 8  88031888.25146  21498270.047                    21498277.191
 129399850.956 6 100831104.60642  24623976.883                    24623984.883
 111823001.268 8  87134953.04346  21279185.922                    21279190.293
 110409048.872 8  86033070.038 7  21010138.969                    21010145.699
 106525251.870 8  83006838.048 8  20271060.813                    20271067.594
 128616878.674 6 100221055.29443  24474957.242                    24474964.238
 122534438.247 7  95481428.373 6  23317529.648                    23317538.055
 114087677.612 8  88899566.960 7  21710165.625                    21710175.035
 11  8 16  2  8  0.0000000  0  9G10G30G26G02G12G05G04G29G25
 119074409.113 7  92785389.91844  22659079.063                    22659086.828
 112970216.160 7  88028804.83646  21497517.094                    21497524.508
 129305698.344 6 100757739.04942  24606060.367                    24606069.012
 111857256.083 8  87161645.11646  21285704.414                    21285708.664
 110448455.820 8  86063776.744 7  21017638.008                    21017644.965
 106523575.357 8  83005531.698 8  20270741.805                    20270748.457
 128696202.404 7 100282866.01043  24490051.844                    24490060.438
 122451219.133 7  95416582.389 6  23301694.164                    23301701.730
 114060621.560 8  88878484.337 7  21705016.992                    21705026.422
 11  8 16  2  8 30.0000000  0  9G10G30G26G02G12G05G04G29G25
 119167307.100 7  92857777.94244  22676757.648                    22676764.996
 112966869.478 8  88026197.03946  21496880.289                    21496887.371
 129211448.850 6 100684298.02942  24588125.008                    24588134.172
 111891620.077 8  87188422.26446  21292243.156                    21292248.188
 110488393.023 8  86094896.647 7  21025237.813                    21025244.234
 106522471.165 8  83004671.318 8  20270531.555                    20270538.465
 128775466.531 7 100344630.25043  24505135.297                    24505143.293
 122368004.434 7  95351739.855 6  23285858.000                    23285866.375
 114034134.639 8  88857845.201 7  21699976.586                    21699986.293
 11  8 16  2  9  0.0000000  0  9G10G30G26G02G12G05G04G29G25
 119260505.399 7  92930399.98344  22694492.352                    22694500.281
 112964132.792 7  88024064.56346  21496359.453                    21496367.027
 129117105.222 6 100610783.59942  24570171.875                    24570181.270
 111926092.432 8  87215283.84946  21298803.359                    21298807.777
 110528858.189 8  86126427.928 7  21032937.727                    21032944.438
 106521938.731 8  83004256.449 8  20270430.672                    20270437.094
 128854670.886 7 100406347.95144  24520207.500                    24520216.160
 122284795.588 7  95286901.868 6  23270024.367                    23270032.020
 114008217.525 8  88837650.066 7  21695044.477                    21695054.242
 11  8 16  2  9 30.0000000  0  9G10G30G26G02G12G05G04G29G25
 119354001.558 7  93003254.13344  22712284.711                    22712291.945
 112962005.798 8  88022407.18146  21495954.492                    21495962.012
 129022670.425 6 100537198.19243  24552201.461                    24552210.914
 111960672.772 8  87242229.57546  21305383.914                    21305388.652
 110569849.937 8  86158369.543 7  21040738.383                    21040744.816
 106521977.502 8  83004286.680 8  20270437.813                    20270444.363
 128933815.210 7 100468018.85643  24535268.680                    24535276.609
 122201593.786 7  95222069.373 6  23254191.195                    23254199.215
 113982871.005 8  88817899.553 7  21690221.453                    21690231.176
 11  8 16  2 10  0.0000000  0  9G10G30G26G02G12G05G04G29G25
 119447792.477 6  93076337.96244  22730132.422                    22730139.484
 112960488.176 7  88021224.62645  21495665.672                    21495673.457
 128928147.621 6 100463544.17143  24534213.805                    24534223.969
 111995360.732 8  87269259.16746  21311984.625                    21311989.523
 110611366.820 8  86190720.360 7  21048638.906                    21048645.785
 106522586.932 7  83004761.578 8  20270553.797                    20270560.387
 129012899.357 7 100529642.87944  24550318.008                    24550325.938
 122118400.564 7  95157243.561 6  23238360.023                    23238367.844
 113958095.879 8  88798594.282 7  21685507.000                    21685516.688
 11  8 16  2 10 30.0000000  0  9G10G30G26G02G12G05G04G29G25
 119541874.998 6  93149649.00644  22748035.750                    22748043.000
 112959579.005 8  88020516.19046  21495493.133                    21495500.309
 128833539.275 6 100389823.48143  24516210.602                    24516220.184
 112030155.250 7  87296371.79646  21318605.813                    21318610.672
 110653406.500 8  86223478.537 7  21056638.930                    21056645.406
 106523765.788 8  83005680.185 8  20270777.977                    20270784.598
 129091922.640 7 100591219.48244  24565355.070                    24565363.477
 122035217.047 7  95092425.323 6  23222530.797                    23222538.383
 113933892.326 8  88779734.387 7  21680901.109                    21680910.727
 11  8 16  2 11  0.0000000  0  9G10G30G26G02G12G05G04G29G25
 119636246.676 7  93223185.38344  22765994.102                    22766001.344
 112959278.524 8  88020282.07046  21495435.641                    21495443.254
 128738849.038 6 100316038.98543  24498191.203                    24498200.594
 112065056.183 7  87323567.34046  21325247.203                    21325251.961
 110695967.654 8  86256643.076 7  21064737.977                    21064744.414
 106525514.208 8  83007042.610 8  20271111.039                    20271117.828
 129170885.324 7 100652748.85243  24580381.305                    24580389.371
 121952045.107 7  95027616.097 6  23206703.375                    23206711.527
 113910261.646 8  88761320.883 7  21676404.336                    21676413.980
 11  8 16  2 11 30.0000000  0  9G10G30G26G02G12G05G04G29G25
 119730904.402 7  93296944.65844  22784006.570                    22784013.984
 112959585.911 7  88020521.60946  21495494.117                    21495501.645
 128644079.545 7 100242192.72343  24480157.438                    24480166.094
 112100062.749 8  87350845.19446  21331909.383                    21331913.711
 110739048.305 8  86290212.405 7  21072935.977                    21072942.297
 106527831.097 8  83008847.996 8  20271551.383                    20271558.215
 129249787.048 7 100714230.72344  24595394.922                    24595404.070
 121868885.890 7  94962816.781 6  23190878.523                    23190886.801
 113887204.206 8  88743354.075 7  21672017.023                    21672026.410
 11  8 16  2 12  0.0000000  0  9G10G30G26G02G12G05G04G29G25
 119825845.405 6  93370924.66344  22802073.313                    22802080.848
 112960500.923 7  88021234.62046  21495667.969                    21495675.738
 128549234.008 6 100168287.21743  24462107.859                    24462118.379
 112135174.777 7  87378205.23546  21338590.398                    21338595.215
 110782647.075 8  86324185.469 7  21081232.438                    21081239.340
 106530716.263 7  83011096.200 8  20272100.695                    20272107.246
 129328627.639 7 100775664.93843  24610398.344                    24610406.816
 121785740.795 6  94898028.482 6  23175056.828                    23175064.551
 113864720.840 8  88725834.586 7  21667738.219                    21667747.633
 11  8 16  2 12 30.0000000  0  9G10G30G26G02G12G05G04G29G25
 119921067.022 6  93445123.33644  22820193.109                    22820201.023
 112962023.077 7  88022420.72946  21495958.242                    21495965.293
 128454315.726 7 100094324.99943  24444046.305                    24444055.660
 112170391.881 8  87405647.14746  21345291.688                    21345296.801
 110826761.956 8  86358560.695 7  21089627.164                    21089634.238
 106534168.972 8  83013786.636 8  20272757.398                    20272764.348
 129407406.844 7 100837051.35943  24625389.281                    24625398.121
 121702611.578 6  94833252.548 6  23159237.844                    23159245.453
 113842812.206 8  88708762.946 7  21663569.109                    21663578.301
 11  8 16  2 13  0.0000000  0  9G10G30G26G02G12G05G04G29G25
 120016565.684 6  93519537.88844  22838365.555                    22838373.211
 112964151.581 7  88024079.32546  21496362.703                    21496370.430
 128359327.464 7 100020308.24843  24425970.695                    24425979.172
 112205713.135 8  87433170.20946  21352013.547                    21352018.078
 110871390.926 8  86393336.514 7  21098120.266                    21098126.648
 106538187.822 7  83016918.230 8  20273522.469                    20273528.809
 129486124.660 6 100898389.91743  24640369.094                    24640377.371
 121619499.376 7  94768489.872 6  23143421.859                    23143430.051
 113821478.614 8  88692139.390 7  21659509.320                    21659518.242
 11  8 16  2 13 30.0000000  0  9G10G30G26G02G12G05G04G29G25
 120112338.824 7  93594166.31544  22856590.914                    22856598.348
 112966885.874 7  88026209.95946  21496882.938                    21496890.438
 128264272.110 7  99946239.21544  24407882.484                    24407891.078
 112241138.028 7  87460774.03746  21358754.344                    21358759.332
 110916532.547 8  86428511.791 7  21106709.969                    21106716.984
 106542772.272 8  83020490.548 8  20274394.789                    20274401.441
 129564780.481 6 100959680.17743  24655336.414                    24655344.816
 121536405.528 7  94703741.474 6  23127609.773                    23127617.965
 113800720.636 8  88675964.368 7  21655559.117                    21655568.730
 11  8 16  2 14  0.0000000  0  9G10G30G26G02G12G05G04G29G25
 120208383.444 7  93669006.27644  22874867.844                    22874875.168
 112970225.310 7  88028812.13646  21497518.734                    21497526.320
 128169152.928 7  99872120.45643  24389781.695                    24389790.762
 112276666.167 8  87488458.31046  21365515.547                    21365520.254
 110962184.396 8  86464084.647 7  21115397.078                    21115404.020
 106547921.838 8  83024503.218 8  20275374.664                    20275381.258
 129643374.334 6 101020922.12343  24670293.414                    24670301.137
 121453331.565 7  94639008.589 6  23111801.023                    23111809.148
 113780538.764 8  88660238.256 7  21651718.969                    21651727.926
 11  8 16  2 14 30.0000000  0  8G10G30G26G02G12G05G29G25
 120304696.819 6  93744055.67144  22893195.344                    22893203.180
 112974169.634 7  88031885.64746  21498269.438                    21498276.645
 128073973.208 6  99797954.51143  24371669.172                    24371677.906
 112312297.384 8  87516222.91146  21372295.750                    21372300.676
 111008345.175 8  86500054.092 7  21124181.422                    21124188.211
 106553635.730 8  83028955.608 8  20276461.961                    20276468.363
 121370279.313 7  94574292.624 6  23095997.023                    23096005.004
 113760933.844 8  88644961.720 7  21647988.266                    21647997.480
 11  8 16  2 15  0.0000000  0  8G10G30G26G02G12G05G29G25
 120401276.398 7  93819312.47844  22911574.336                    22911581.766
 112978718.257 8  88035430.05445  21499134.977                    21499141.996
 127978736.292 6  99723744.02943  24353546.242                    24353555.652
 112348031.124 8  87544067.39446  21379095.641                    21379100.438
 111055013.024 8  86536418.646 7  21133062.281                    21133068.895
 106559913.251 8  83033847.204 8  20277656.422                    20277663.059
 121287250.271 7  94509594.738 6  23080196.367                    23080204.883
 113741906.406 8  88630135.159 7  21644367.016                    21644376.313
 11  8 16  2 15 30.0000000  0  8G10G30G26G02G12G05G29G25
 120498118.977 7  93894774.22844  22930002.320                    22930009.863
 112983870.176 8  88039444.55745  21500115.484                    21500122.719
 127883444.836 6  99649490.99643  24335412.922                    24335421.477
 112383866.723 8  87571991.24946  21385914.867                    21385919.824
 111102185.888 8  86573176.711 7  21142038.820                    21142045.070
 106566753.105 8  83039176.976 8  20278958.266                    20278964.340
 121204245.620 7  94444915.868 7  23064401.172                    23064409.039
 113723456.556 8  88615758.674 7  21640856.133                    21640865.859
 11  8 16  2 16  0.0000000  0  8G10G30G26G02G12G05G29G25
 120595221.425 7  93970438.48144  22948480.680                    22948488.055
 112989624.811 7  88043928.69646  21501210.164                    21501217.570
 127788102.177 6  99575198.09143  24317269.664                    24317278.520
 112419803.924 8  87599994.27646  21392753.758                    21392758.582
 111149861.457 8  86610326.507 7  21151111.359                    21151118.016
 106574154.902 7  83044944.634 8  20280366.953                    20280373.160
 121121267.125 7  94380257.387 6  23048610.906                    23048619.105
 113705584.909 8  88601832.737 7  21637455.234                    21637464.813
 11  8 16  2 16 30.0000000  0  8G10G30G26G02G12G05G29G25
 120692581.573 7  94046303.53344  22967007.188                    22967014.785
 112995981.600 7  88048882.05146  21502419.594                    21502427.246
 127692711.581 6  99500867.86942  24299116.922                    24299126.172
 112455842.468 8  87628076.26946  21399611.250                    21399616.438
 111198038.474 8  86647867.032 7  21160278.891                    21160285.637
 106582117.934 7  83051149.618 8  20281881.758                    20281888.273
 121038316.440 7  94315620.549 6  23032826.188                    23032833.883
 113688292.052 8  88588357.803 7  21634164.820                    21634174.020
 11  8 16  2 17  0.0000000  0  8G10G30G26G02G12G05G29G25
 120790195.454 6  94122366.27844  22985582.211                    22985590.059
 113002939.073 8  88054303.46946  21503743.914                    21503751.070
 127597275.658 6  99426502.26442  24280955.898                    24280965.199
 112491981.014 8  87656236.18746  21406488.406                    21406493.164
 111246713.740 8  86685795.803 7  21169541.469                    21169548.215
 106590640.129 8  83057790.310 8  20283503.711                    20283510.309
 120955394.396 7  94251006.046 6  23017047.031                    23017054.066
 113671577.659 8  88575333.620 7  21630983.656                    21630993.598
 11  8 16  2 17 30.0000000  0  8G10G30G26G02G12G05G29G25
 120888060.842 7  94198625.00444  23004206.719                    23004213.391
 113010496.898 7  88060192.68946  21505182.500                    21505189.484
 127501797.801 6  99352104.00543  24262787.055                    24262796.832
 112528219.756 8  87684474.18146  21413384.000                    21413388.828
 111295886.153 8  86724111.962 7  21178898.828                    21178905.535
 106599721.239 7  83064866.509 8  20285231.828                    20285238.574
 120872502.909 7  94186415.350 6  23001272.813                    23001280.426
 113655442.505 8  88562760.796 7  21627913.648                    21627922.914
 11  8 16  2 18  0.0000000  0  8G10G30G26G02G12G05G29G25
 120986175.116 6  94275077.70144  23022877.000                    23022884.363
 113018654.566 8  88066549.33046  21506734.539                    21506741.895
 127406281.659 6  99277675.92743  24244611.578                    24244620.516
 112564558.697 8  87712790.25346  21420299.203                    21420304.422
 111345553.833 8  86762814.049 7  21188350.039                    21188356.715
 106609360.590 8  83072377.712 8  20287066.344                    20287072.828
 120789644.185 7  94121850.165 6  22985505.641                    22985513.301
 113639887.263 8  88550639.845 7  21624953.609                    21624963.137
 11  8 16  2 18 30.0000000  0  8G10G30G26G02G12G05G29G25
 121084534.804 6  94351721.61844  23041593.656                    23041601.570
 113027410.495 7  88073372.14046  21508400.578                    21508407.992
 127310729.678 6  99203219.86643  24226428.586                    24226437.215
 112600996.482 7  87741183.34246  21427233.258                    21427238.238
 111395714.013 8  86801899.895 7  21197895.156                    21197902.020
 106619556.654 7  83080322.716 8  20289006.031                    20289012.813
 120706818.695 7  94057310.892 6  22969743.813                    22969751.793
 113624911.509 8  88538970.447 7  21622103.703                    21622113.344
 11  8 16  2 19  0.0000000  0  8G10G30G26G02G12G05G29G25
 121183137.332 6  94428554.73744  23060357.516                    23060364.621
 113036764.315 7  88080660.85246  21510180.172                    21510188.105
 127215145.343 7  99128738.63443  24208239.375                    24208247.902
 112637533.151 7  87769653.49346  21434185.742                    21434190.859
 111446365.323 8  86841368.440 7  21207533.883                    21207540.563
 106630308.645 8  83088700.911 8  20291051.906                    20291058.742
 120624028.378 7  93992799.010 6  22953989.609                    22953997.074
 113610515.933 8  88527753.141 7  21619364.258                    21619373.477
 11  8 16  2 19 30.0000000  0  8G10G30G26G02G12G05G29G25
 121281979.535 6  94505574.62844  23079166.391                    23079173.633
 113046714.936 8  88088414.59346  21512074.063                    21512081.410
 127119531.883 6  99054234.69543  24190044.406                    24190053.117
 112674168.416 8  87798200.47146  21441157.523                    21441162.406
 111497505.601 8  86881218.002 7  21217265.508                    21217272.551
 106641615.542 8  83097511.502 8  20293203.703                    20293210.457
 120541275.088 7  93928315.986 6  22938241.898                    22938249.582
 113596700.642 8  88516988.001 7  21616735.430                    21616744.973
 11  8 16  2 20  0.0000000  0  8G10G30G26G02G12G05G29G25
 121381058.881 6  94582779.31743  23098020.414                    23098027.137
 113057261.741 8  88096632.89546  21514081.047                    21514088.293
 127023892.681 6  98979710.70743  24171845.563                    24171854.234
 112710901.916 8  87826823.98946  21448147.609                    21448152.461
 111549132.474 8  86921446.725 7  21227090.000                    21227096.738
 106653476.521 8  83106753.844 8  20295460.836                    20295467.387
 120458560.386 7  93863863.039 6  22922501.727                    22922509.461
 113583466.180 8  88506675.447 7  21614216.914                    21614226.410
 11  8 16  2 20 30.0000000  0  8G10G30G26G02G12G05G29G25
 121480372.661 6  94660166.70744  23116919.313                    23116926.035
 113068403.558 8  88105314.83246  21516201.273                    21516208.449
 126928230.814 6  98905169.05243  24153641.063                    24153650.379
 112747733.142 8  87855523.66646  21455155.984                    21455161.262
 111601243.923 8  86962053.043 7  21237006.664                    21237013.367
 106665890.385 8  83116427.005 8  20297822.969                    20297829.770
 120375885.717 7  93799441.271 6  22906769.477                    22906777.012
 113570812.518 8  88496815.470 7  21611808.758                    21611818.457
 11  8 16  2 21  0.0000000  0  8G10G30G26G02G12G05G29G25
 121579918.091 6  94737734.58843  23135861.641                    23135869.113
 113080139.472 7  88114459.71146  21518434.844                    21518441.848
 126832549.485 7  98830612.22443  24135433.594                    24135442.559
 112784661.819 8  87884299.27346  21462183.516                    21462188.078
 111653837.937 8  87003035.387 7  21247014.766                    21247021.684
 106678856.088 8  83126530.164 8  20300290.719                    20300297.020
 120293252.640 7  93735051.929 6  22891044.945                    22891052.223
 113558739.904 8  88487408.259 7  21609511.656                    21609521.172
 11  8 16  2 21 30.0000000  0  8G10G30G26G02G12G05G29G25
 121679691.945 6  94815480.44743  23154848.078                    23154855.961
 113092468.258 8  88124066.56546  21520780.641                    21520787.879
 126736851.958 6  98756042.77043  24117222.961                    24117231.629
 112821687.211 8  87913150.23746  21469229.227                    21469234.000
 111706912.228 8  87044391.965 7  21257114.242                    21257121.086
 106692372.314 8  83137062.306 8  20302862.336                    20302868.996
 120210662.892 7  93670696.351 6  22875328.258                    22875335.898
 113547248.256 8  88478453.741 7  21607324.852                    21607334.063
 11  8 16  2 22  0.0000000  0  8G10G30G26G02G12G05G29G25
 121779691.568 6  94893402.24043  23173877.742                    23173885.355
 113105389.192 8  88134134.83046  21523239.422                    21523246.602
 126641141.636 6  98681463.34443  24099009.852                    24099018.516
 112858809.450 8  87942076.67946  21476293.453                    21476298.020
 111760465.185 8  87086121.545 7  21267305.313                    21267312.004
 106706438.085 8  83148022.668 8  20305539.070                    20305545.754
 120128118.191 7  93606375.870 7  22859620.586                    22859628.438
 113536338.012 8  88469952.267 7  21605248.672                    21605258.176
 11  8 16  2 22 30.0000000  0  8G10G30G26G02G12G05G29G25
 121879914.115 6  94971497.72644  23192949.625                    23192957.098
 113118901.200 8  88144663.67746  21525810.703                    21525817.746
 126545421.758 6  98606876.53343  24080795.031                    24080802.801
 112896028.291 8  87971078.39046  21483375.672                    21483380.543
 111814494.091 8  87128221.989 7  21277586.594                    21277593.359
 106721052.377 8  83159410.447 8  20308320.109                    20308326.484
 120045620.076 7  93542091.696 7  22843921.508                    22843929.113
 113526009.238 8  88461903.888 7  21603283.078                    21603292.551
 11  8 16  2 23  0.0000000  0  8G10G30G26G02G12G05G29G25
 121980356.772 6  95049764.76344  23212062.695                    23212070.512
 113133003.005 8  88155652.10346  21528493.898                    21528501.152
 126449695.453 6  98532284.67243  24062578.328                    24062587.770
 112933342.866 8  88000154.69046  21490476.648                    21490481.723
 111868997.006 8  87170691.784 7  21287958.188                    21287964.551
 106736213.806 8  83171224.561 8  20311205.477                    20311211.695
 119963170.373 7  93477845.244 6  22828231.875                    22828239.844
 113516261.841 8  88454308.528 7  21601428.539                    21601437.750
 11  8 16  2 23 30.0000000  0  8G10G30G26G02G12G05G29G25
 122081016.795 6  95128201.14043  23231218.563                    23231225.438
 113147693.720 8  88167099.41946  21531289.875                    21531297.266
 126353966.250 6  98457690.54943  24044361.555                    24044370.949
 112970753.198 8  88029305.62046  21497595.680                    21497600.625
 111923971.339 8  87213528.917 7  21298419.563                    21298426.207
 106751921.432 8  83183464.293 8  20314194.195                    20314200.820
 119880770.668 7  93413637.736 6  22812551.344                    22812559.586
 113507096.010 8  88447166.332 7  21599683.984                    21599693.664
 11  8 16  2 24  0.0000000  0  8G10G30G26G02G12G05G29G25
 122181890.735 7  95206804.22044  23250413.477                    23250421.449
 113162971.683 8  88179004.33246  21534196.984                    21534204.156
 126258236.987 6  98383096.37643  24026144.930                    24026154.680
 113008258.481 8  88058530.53046  21504732.289                    21504737.422
 111979414.785 8  87256731.593 7  21308969.992                    21308976.637
 106768173.616 8  83196128.348 8  20317286.844                    20317293.266
 119798422.309 7  93349470.254 6  22796881.063                    22796888.934
 113498511.377 8  88440477.031 7  21598050.656                    21598059.672
 11  8 16  2 24 30.0000000  0  8G10G30G26G02G12G05G29G25
 122282976.390 7  95285572.27544  23269650.055                    23269657.086
 113178836.272 8  88191366.35246  21537216.297                    21537223.195
 126162511.510 6  98308505.15643  24007929.000                    24007938.090
 113045859.074 8  88087829.70746  21511887.719                    21511892.410
 112035325.379 8  87300298.283 7  21319609.203                    21319616.477
 106784969.261 8  83209215.877 8  20320482.664                    20320489.625
 119716127.276 7  93285344.319 7  22781220.992                    22781228.547
 113490508.338 8  88434240.902 7  21596527.477                    21596536.938
 11  8 16  2 25  0.0000000  0  8G10G30G26G02G12G05G29G25
 122384270.583 7  95364502.81444  23288925.453                    23288932.820
 113195285.935 7  88204184.27746  21540346.031                    21540353.910
 126066792.677 6  98233919.10743  23989714.258                    23989723.027
 113083554.167 8  88117202.52246  21519060.570                    21519065.637
 112091700.755 8  87344227.140 7  21330337.320                    21330344.063
 106802306.810 8  83222725.677 8  20323782.313                    20323788.855
 119633887.223 7  93221261.235 7  22765570.992                    22765578.820
 113483086.553 8  88428457.715 7  21595115.250                    21595124.738
 11  8 16  2 25 30.0000000  0  8G10G30G26G02G12G05G29G25
 122485770.752 7  95443593.84844  23308239.891                    23308247.898
 113212319.602 7  88217457.26346  21543587.336                    21543595.117
 125971083.892 6  98159340.85443  23971501.359                    23971510.066
 113121343.295 8  88146648.60546  21526251.500                    21526256.258
 112148538.706 8  87388516.441 7  21341153.250                    21341160.203
 106820185.448 8  83236657.106 8  20327184.359                    20327190.949
 119551703.689 7  93157222.193 7  22749932.133                    22749939.414
 113476246.127 8  88423127.514 7  21593813.445                    21593822.789
 11  8 16  2 26  0.0000000  0  8G10G30G26G02G12G05G29G25
 122587474.028 7  95522843.15844  23327593.688                    23327600.953
 113229936.087 8  88231184.39946  21546939.938                    21546947.637
 125875388.546 6  98084773.11743  23953291.336                    23953299.395
 113159226.376 8  88176167.90846  21533460.609                    21533465.457
 112205837.117 8  87433164.551 7  21352056.672                    21352063.402
 106838603.973 8  83251009.225 8  20330689.406                    20330696.020
 119469578.676 7  93093228.747 7  22734304.672                    22734311.660
 113469986.964 8  88418250.246 7  21592622.297                    21592631.648
 11  8 16  2 26 30.0000000  0  8G10G30G26G02G12G05G29G25
 122689377.759 7  95602248.65644  23346985.539                    23346993.313
 113248134.071 8  88245364.65046  21550402.727                    21550410.160
 125779710.102 7  98010218.53344  23935084.734                    23935093.520
 113197203.402 8  88205760.41146  21540687.359                    21540691.746
 112263593.405 7  87478169.444 7  21363046.961                    21363054.375
 106857560.996 8  83265780.949 8  20334296.500                    20334302.906
 119387513.870 7  93029282.217 7  22718687.609                    22718695.398
 113464308.979 8  88413825.853 7  21591541.758                    21591551.512
 11  8 16  2 27  0.0000000  0  8G10G30G26G02G12G05G29G25
 122791478.711 7  95681807.82844  23366414.445                    23366422.398
 113266912.102 8  88259996.87646  21553976.258                    21553983.574
 125684051.720 6  97935679.57144  23916881.641                    23916890.625
 113235273.684 8  88235425.57346  21547931.500                    21547936.578
 112321805.185 8  87523529.271 7  21374124.664                    21374131.449
 106877054.663 8  83280970.836 8  20338006.422                    20338012.699
 119305510.667 7  92965383.689 6  22703083.313                    22703091.039
 113459211.835 8  88409854.058 7  21590571.898                    21590581.418
 11  8 16  2 27 30.0000000  0  8G10G30G26G02G12G05G29G25
 122893774.628 7  95761518.93544  23385881.305                    23385888.254
 113286269.014 7  88275080.19346  21557659.203                    21557666.617
 125588416.812 6  97861158.93144  23898683.094                    23898691.184
 113273436.996 8  88265163.23446  21555193.836                    21555198.773
 112380470.212 7  87569242.279 7  21385288.141                    21385295.074
 106897083.994 8  83296578.124 8  20341817.656                    20341824.117
 119223570.781 7  92901534.495 7  22687490.695                    22687497.980
 113454695.471 8  88406334.820 7  21589712.406                    21589722.160
 11  8 16  2 28  0.0000000  0  8G10G30G26G02G12G05G29G25
 122996262.231 7  95841379.39043  23405383.672                    23405390.754
 113306203.358 8  88290613.44846  21561453.164                    21561460.180
 125492808.765 6  97786659.19744  23880489.203                    23880497.559
 113311693.353 8  88294973.39246  21562474.078                    21562478.734
 112439585.986 8  87615306.504 7  21396537.594                    21396544.547
 106917647.630 8  83312601.760 8  20345730.883                    20345737.125
 119141696.550 7  92837736.470 7  22671910.117                    22671917.617
 113450759.693 8  88403267.982 7  21588963.445                    21588973.105
 11  8 16  2 28 30.0000000  0  8G10G30G26G02G12G05G29G25
 123098938.914 7  95921387.20044  23424922.695                    23424929.863
 113326713.540 8  88306595.41246  21565355.711                    21565363.008
 125397230.601 6  97712182.78744  23862300.867                    23862310.012
 113350041.843 8  88324855.34246  21569771.570                    21569776.301
 112499150.093 7  87661720.084 7  21407872.539                    21407879.105
 106938743.856 8  83329040.396 8  20349745.523                    20349751.766
 119059888.958 7  92773990.365 7  22656343.125                    22656350.117
 113447404.046 8  88400653.200 7  21588325.133                    21588334.332
 11  8 16  2 29  0.0000000  0  8G10G30G26G02G12G05G29G25
 123201802.233 7  96001540.43643  23444496.305                    23444503.789
 113347798.634 8  88323025.36746  21569368.172                    21569375.594
 125301686.349 6  97637732.79244  23844119.664                    23844127.875
 113388483.028 8  88354809.52746  21577086.609                    21577091.684
 112559160.466 7  87708481.414 7  21419291.500                    21419298.633
 106960371.688 8  83345893.281 8  20353861.023                    20353867.313
 118978150.151 7  92710297.850 7  22640787.898                    22640795.457
 113444628.668 8  88398490.580 7  21587796.484                    21587806.129
 11  8 16  2 29 30.0000000  0  8G10G30G26G02G12G05G29G25
 123304849.390 7  96081836.90943  23464105.805                    23464113.211
 113369457.271 8  88339902.22145  21573490.055                    21573497.055
 125206179.378 6  97563311.84443  23825944.719                    23825953.160
 113427016.521 8  88384835.63746  21584419.547                    21584424.266
 112619615.201 7  87755589.001 7  21430796.336                    21430803.059
 106982529.685 8  83363159.263 8  20358077.172                    20358083.785
 118896481.916 7  92646660.339 7  22625247.078                    22625254.715
 113442433.442 8  88396780.024 7  21587379.453                    21587388.742
 11  8 16  2 30  0.0000000  0  8G10G30G26G02G12G05G29G25
 123408077.210 7  96162274.14743  23483749.563                    23483756.355
 113391687.624 8  88357224.57845  21577720.391                    21577727.875
 125110712.644 6  97488922.25443  23807778.680                    23807786.547
 113465641.818 8  88414933.27946  21591769.656                    21591774.063
 112680510.718 8  87803040.042 7  21442383.867                    21442390.930
 107005216.171 8  83380837.063 8  20362394.539                    20362400.555
 118814886.256 7  92583079.362 7  22609720.008                    22609727.691
 113440817.623 8  88395520.948 7  21587071.531                    21587081.125
 11  8 16  2 30 30.0000000  0  8G10G30G26G02G12G05G29G25
 123511482.820 7  96242849.97143  23503426.742                    23503434.109
 113414488.108 8  88374991.19446  21582058.922                    21582066.277
 125015289.600 7  97414566.68744  23789620.016                    23789627.723
 113504358.397 8  88445102.05546  21599136.969                    21599141.547
 112741844.780 7  87850832.807 7  21454055.469                    21454062.070
 107028429.439 8  83398925.343 8  20366811.586                    20366818.016
 118733364.744 7  92519556.161 7  22594207.344                    22594214.215
 113439780.791 8  88394713.037 7  21586874.539                    21586883.910
 11  8 16  2 31  0.0000000  0  8G10G30G26G02G12G05G29G25
 123615063.750 7  96323562.39443  23523137.742                    23523144.977
 113437857.312 8  88393200.95946  21586505.914                    21586513.047
 124919913.686 6  97340247.85343  23771470.422                    23771478.484
 113543166.242 8  88475341.94746  21606521.594                    21606526.570
 112803615.204 8  87898965.602 7  21465809.945                    21465816.738
 107052168.059 8  83417422.988 8  20371329.016                    20371335.273
 118651919.219 7  92456092.182 7  22578708.086                    22578715.480
 113439322.658 8  88394356.058 7  21586786.539                    21586796.418
 11  8 16  2 31 30.0000000  0  8G10G30G26G02G12G05G29G25
 123718817.483 7  96404409.48943  23542880.898                    23542888.211
 113461794.134 8  88411853.01746  21591061.180                    21591068.484
 124824588.732 7  97265968.71543  23753330.250                    23753339.195
 113582065.555 8  88505653.11646  21613924.078                    21613929.039
 112865819.913 7  87947436.793 7  21477647.102                    21477654.230
 107076431.144 8  83436329.306 8  20375946.141                    20375952.848
 118570551.767 7  92392689.019 7  22563224.008                    22563231.684
 113439443.367 8  88394450.120 7  21586810.078                    21586819.047
 11  8 16  2 32  0.0000000  0  8G10G30G26G02G12G05G29G25
 123822740.581 7  96485388.50944  23562657.063                    23562664.340
 113486296.265 8  88430945.59646  21595723.797                    21595730.766
 124729317.413 6  97191731.39443  23735200.313                    23735209.121
 113621055.258 8  88536034.70445  21621343.563                    21621348.332
 112928455.741 8  87996243.928 7  21489566.523                    21489573.133
 107101216.231 8  83455642.381 8  20380662.953                    20380668.887
 118489263.778 7  92329347.780 7  22547755.617                    22547763.488
 113440141.675 8  88394994.262 7  21586943.008                    21586952.430
 11  8 16  2 32 30.0000000  0  9G10G30G26G02G12G05G15G29G25
 123926830.995 7  96566497.92243  23582464.438                    23582472.090
 113511362.806 8  88450477.96546  21600493.422                    21600500.816
 124634103.862 6  97117539.05043  23717082.242                    23717090.445
 113660136.037 8  88566487.27546  21628780.406                    21628785.145
 112991520.358 8  88045385.184 7  21501567.234                    21501573.711
 107126522.470 8  83475361.534 8  20385478.172                    20385484.484
 129470953.25116 100886497.76515  24637506.969                    24637516.836
 118408057.124 7  92266069.927 7  22532302.914                    22532310.113
 113441417.789 8  88395988.636 7  21587185.617                    21587195.133
 11  8 16  2 33  0.0000000  0  9G10G30G26G02G12G05G15G29G25
 124031085.870 7  96647735.46843  23602304.266                    23602311.133
 113536991.950 8  88470448.73146  21605370.695                    21605377.988
 124538951.298 6  97043394.28543  23698974.523                    23698983.301
 113699307.274 8  88597010.33246  21636234.359                    21636239.012
 113055011.733 7  88094858.983 7  21513649.234                    21513656.406
 107152348.179 8  83495485.479 8  20390392.813                    20390398.793
 129377461.704 6 100813647.348 5  24619716.555                    24619726.496
 118326933.625 7  92202856.872 7  22516865.375                    22516872.582
 113443271.057 8  88397432.752 7  21587538.563                    21587547.492
 11  8 16  2 33 30.0000000  0  9G10G30G26G02G12G05G15G29G25
 124135502.463 7  96729099.05944  23622173.383                    23622181.191
 113563182.112 8  88490856.65346  21610354.516                    21610361.602
 124443863.305 6  96969299.79243  23680880.727                    23680888.734
 113738569.077 8  88627603.96046  21643705.828                    21643710.145
 113118926.979 8  88144663.058 7  21525812.336                    21525818.508
 107178691.671 8  83516012.889 8  20395405.477                    20395411.961
 129283841.523 6 100740696.698 5  24601901.336                    24601910.629
 118245895.436 7  92139710.280 7  22501444.195                    22501451.441
 113445701.061 8  88399326.264 7  21588000.711                    21588010.063
 11  8 16  2 34  0.0000000  0  9G10G30G26G02G12G05G15G29G25
 124240077.901 7  96810586.38543  23642073.023                    23642081.051
 113589931.337 8  88511700.21045  21615444.750                    21615452.012
 124348843.018 6  96895258.07143  23662798.625                    23662807.090
 113777920.775 8  88658267.63446  21651194.039                    21651198.465
 113183263.156 8  88194795.140 7  21538054.406                    21538061.309
 107205551.017 8  83536942.262 8  20400516.570                    20400523.086
 129190094.790 6 100667647.440 5  24584061.180                    24584071.320
 118164944.128 7  92076631.384 7  22486039.695                    22486046.957
 113448707.040 8  88401668.602 7  21588572.836                    21588582.059
 11  8 16  2 34 30.0000000  0  9G10G30G26G02G12G05G15G29G25
 124344809.497 6  96892195.41343  23662003.578                    23662011.039
 113617238.191 8  88532978.27946  21620640.797                    21620648.383
 124253894.095 6  96821271.99943  23644730.172                    23644738.840
 113817362.480 8  88689001.44846  21658699.531                    21658704.258
 113248018.170 8  88245253.581 7  21550377.555                    21550384.090
 107232925.006 8  83558272.661 8  20405726.359                    20405732.750
 129096224.279 6 100594501.723 5  24566198.719                    24566208.449
 118084081.706 7  92013621.762 7  22470652.234                    22470658.980
 113452288.629 8  88404459.450 7  21589254.313                    21589264.113
 11  8 16  2 35  0.0000000  0  9G10G30G26G02G12G05G15G29G25
 124449694.643 6  96973924.08243  23681962.094                    23681970.145
 113645101.052 8  88554689.61546  21625943.344                    21625950.711
 124159020.232 6  96747344.39243  23626676.227                    23626685.078
 113856893.946 8  88719805.20645  21666222.289                    21666227.020
 113313189.353 8  88296036.318 7  21562779.117                    21562785.617
 107260812.006 8  83580002.806 8  20411032.422                    20411038.730
 129002232.402 6 100521261.401 5  24548312.258                    24548321.273
 118003310.005 7  91950682.838 7  22455281.625                    22455288.902
 113456445.300 8  88407698.423 7  21590045.406                    21590054.723
 11  8 16  2 35 30.0000000  0  9G10G30G26G02G12G05G15G29G25
 124554730.487 6  97055770.17743  23701950.484                    23701957.430
 113673518.139 8  88576832.78845  21631350.320                    21631357.695
 124064224.655 6  96673477.79344  23608637.281                    23608646.352
 113896515.173 8  88750678.89946  21673761.859                    21673766.539
 113378774.107 7  88347141.313 7  21575259.141                    21575266.027
 107289210.441 8  83602131.478 8  20416436.844                    20416443.137
 128908121.687 6 100447928.589 6  24530403.602                    24530412.824
 117922631.228 7  91887816.316 7  22439928.953                    22439936.430
 113461176.455 8  88411385.040 7  21590945.820                    21590954.957
 11  8 16  2 36  0.0000000  0  9G10G30G26G02G12G05G15G29G25
 124659914.209 7  97137731.49443  23721966.172                    23721973.512
 113702487.624 8  88599406.41346  21636863.281                    21636870.547
 123969510.819 7  96599674.91344  23590613.336                    23590622.547
 113936225.658 8  88781622.15646  21681318.430                    21681323.766
 113444770.153 8  88398566.796 7  21587818.063                    21587824.684
 107318118.105 8  83624656.937 8  20421937.406                    20421943.730
 128813894.737 6 100374505.151 6  24512472.969                    24512481.703
 117842046.669 7  91825023.215 7  22424594.313                    22424601.926
 113466481.316 8  88415518.695 7  21591955.281                    21591964.773
 11  8 16  2 36 30.0000000  0  9G10G30G26G02G12G05G15G29G25
 124765243.488 6  97219806.28643  23742009.617                    23742016.633
 113732007.880 8  88622409.20946  21642481.164                    21642488.270
 123874882.400 7  96525938.58044  23572606.641                    23572615.641
 113976025.643 8  88812635.14846  21688892.141                    21688896.762
 113511174.604 8  88450310.513 7  21600454.031                    21600460.648
 107347533.983 8  83647578.420 8  20427535.117                    20427541.645
 128719554.074 6 100300993.105 6  24494519.742                    24494529.402
 117761558.724 7  91762305.390 7  22409278.039                    22409285.324
 113472359.487 8  88420099.097 7  21593073.797                    21593083.063
 11  8 16  2 37  0.0000000  0  9G10G30G26G02G12G05G15G29G25
 124870715.484 7  97301992.24643  23762080.352                    23762087.781
 113762076.658 8  88645839.42645  21648202.609                    21648209.719
 123780342.686 7  96452271.36644  23554616.375                    23554625.047
 114015914.644 8  88843717.49646  21696482.844                    21696487.695
 113577984.354 8  88502370.047 7  21613167.508                    21613174.457
 107377455.592 8  83670893.976 8  20433229.258                    20433235.418
 128625102.029 6 100227394.268 6  24476546.359                    24476555.371
 117681168.833 7  91699663.969 7  22393980.273                    22393987.375
 113478809.842 8  88425125.355 7  21594301.336                    21594310.238
 11  8 16  2 37 30.0000000  0  9G10G30G26G02G12G05G15G29G25
 124976327.582 7  97384287.36943  23782177.813                    23782184.730
 113792692.481 8  88669695.91145  21654028.695                    21654035.883
 123685895.263 7  96378676.04344  23536644.258                    23536652.145
 114055892.689 7  88874869.23545  21704090.383                    21704095.219
 113645197.265 7  88554743.742 7  21625957.797                    21625964.723
 107407881.553 8  83694602.530 8  20439018.734                    20439025.289
 128530541.052 6 100153710.563 6  24458551.766                    24458561.242
 117600879.056 7  91637100.574 7  22378701.258                    22378708.855
 113485831.936 8  88430597.125 7  21595637.492                    21595646.430
 11  8 16  2 38  0.0000000  0  9G10G30G26G02G12G05G15G29G25
 125082076.919 7  97466689.49643  23802301.148                    23802307.910
 113823853.451 8  88693977.18146  21659958.422                    21659965.863
 123591543.655 7  96305155.37444  23518689.375                    23518697.070
 114095959.509 7  88906090.14445  21711715.016                    21711719.660
 113712810.682 8  88607429.509 7  21638824.133                    21638831.117
 107438810.002 8  83718702.643 8  20444904.492                    20444911.113
 128435874.045 6 100079944.188 6  24440536.664                    24440546.652
 117520691.571 7  91574616.869 7  22363442.391                    22363449.238
 113493425.013 8  88436513.820 7  21597082.203                    21597091.672
 11  8 16  2 38 30.0000000  0  9G10G30G26G02G12G05G15G29G25
 125187961.238 7  97549196.76543  23822450.477                    23822457.281
 113855557.921 8  88718681.96945  21665991.484                    21665998.914
 123497291.579 7  96231712.27044  23500753.719                    23500761.645
 114136115.246 7  88937380.33246  21719356.250                    21719361.063
 113780822.114 8  88660425.405 7  21651766.492                    21651773.512
 107470239.662 8  83743193.298 8  20450885.508                    20450891.551
 128341103.715 7 100006097.341 6  24422502.828                    24422512.082
 117440608.397 7  91512214.457 7  22348202.961                    22348210.086
 113501588.571 8  88442875.036 7  21598635.938                    21598645.258
 11  8 16  2 39  0.0000000  0  9G10G30G26G02G12G05G15G29G25
 125293977.597 6  97631806.95543  23842624.758                    23842631.543
 113887803.908 7  88743808.71245  21672127.898                    21672135.379
 123403142.495 7  96158349.40544  23482838.031                    23482845.730
 114176359.681 8  88968739.65046  21727014.516                    21727019.027
 113849228.687 8  88713729.221 7  21664783.773                    21664790.320
 107502168.536 8  83768072.954 8  20456961.078                    20456967.629
 128246232.407 6  99932171.764 6  24404449.789                    24404458.367
 117360631.425 7  91449894.789 7  22332983.555                    22332990.699
 113510321.732 8  88449680.110 7  21600297.898                    21600307.070
 11  8 16  2 39 30.0000000  0  9G10G30G26G02G12G05G15G29G25
 125400123.114 7  97714517.74943  23862822.898                    23862829.953
 113920589.060 8  88769355.58745  21678366.664                    21678374.051
 123309099.492 7  96085069.21844  23464941.438                    23464950.008
 114216692.376 7  89000167.73545  21734689.516                    21734694.250
 113918027.379 8  88767338.586 7  21677875.789                    21677882.664
 107534594.414 8  83793339.889 8  20463131.891                    20463137.676
 128151262.250 6  99858169.195 6  24386377.438                    24386386.434
 117280762.227 7  91387659.106 7  22317784.836                    22317791.930
 113519623.208 8  88456928.019 7  21602067.445                    21602076.977
 11  8 16  2 40  0.0000000  0  9G10G30G26G02G12G05G15G29G25
 125506395.766 6  97797327.60843  23883046.078                    23883053.297
 113953911.926 8  88795321.45845  21684707.922                    21684714.820
 123215166.491 7  96011874.72343  23447066.875                    23447074.672
 114257113.663 8  89031664.85846  21742381.648                    21742386.180
 113987215.929 8  88821251.739 7  21691041.906                    21691048.707
 107567516.120 8  83818993.179 8  20469396.367                    20469402.563
 128056196.563 6  99784092.171 6  24368286.477                    24368295.762
 117201003.220 7  91325509.285 7  22302607.297                    22302614.375
 113529492.698 8  88464618.541 7  21603945.859                    21603955.539
 11  8 16  2 40 30.0000000  0  9G10G30G26G02G12G05G15G29G25
 125612792.745 7  97880234.36143  23903293.227                    23903300.324
 113987770.419 8  88821704.69545  21691150.875                    21691158.270
 123121347.246 7  95938768.86943  23429213.180                    23429220.734
 114297623.304 8  89063230.81946  21750090.102                    21750094.539
 114056791.800 8  88875466.681 7  21704281.602                    21704288.824
 107600931.375 8  83845031.048 8  20475755.102                    20475760.922
 127961037.713 6  99709942.552 5  24350178.039                    24350187.469
 117121355.997 7  91263446.557 7  22287450.609                    22287457.629
 113539929.234 8  88472750.920 7  21605931.922                    21605941.094
 11  8 16  2 41  0.0000000  0  9G10G30G26G02G12G05G15G29G25
 125719311.529 6  97963236.01643  23923562.203                    23923570.109
 114022162.708 8  88848503.87945  21697695.188                    21697702.637
 123027645.216 6  95865754.32043  23411382.070                    23411389.957
 114338221.425 8  89094865.73045  21757815.914                    21757820.281
 114126752.210 8  88929981.285 7  21717594.570                    21717601.816
 107634838.636 8  83871452.305 8  20482207.375                    20482213.656
 127865788.260 6  99635722.348 6  24332052.461                    24332061.258
 117041822.761 8  91201472.659 7  22272316.289                    22272323.188
 113550931.971 8  88481324.483 7  21608025.445                    21608034.785
 11  8 16  2 41 30.0000000  0  9G10G30G26G02G12G05G15G29G25
 125825949.620 6  98046330.61143  23943855.531                    23943862.914
 114057086.607 8  88875717.31045  21704341.367                    21704348.602
 122934063.853 6  95792833.84643  23393574.242                    23393581.855
 114378907.561 8  89126569.22945  21765558.008                    21765562.352
 114197094.223 8  88984793.231 7  21730980.703                    21730987.414
 107669235.937 8  83898255.412 8  20488753.133                    20488759.598
 127770450.742 6  99561433.464 6  24313910.547                    24313919.441
 116962405.364 8  91139589.015 7  22257203.406                    22257210.297
 113562499.948 8  88490338.504 7  21610226.781                    21610235.961
 11  8 16  2 42  0.0000000  0  9G10G30G26G02G12G05G15G29G25
 125932703.615 6  98129515.52843  23964170.117                    23964176.949
 114092540.102 8  88903343.40445  21711087.953                    21711095.172
 122840606.745 6  95720010.18043  23375790.320                    23375797.305
 114419681.787 8  89158341.35545  21773317.180                    21773321.699
 114267814.786 8  89039900.156 7  21744438.133                    21744445.020
 107704121.162 8  83925438.711 8  20495391.477                    20495397.828
 127675027.985 6  99487078.171 5  24295752.602                    24295760.848
 116883105.967 7  91077797.321 7  22242113.500                    22242120.586
 113574632.113 8  88499792.158 7  21612535.414                    21612544.703
 11  8 16  2 42 30.0000000  0  9G10G30G26G02G12G05G15G29G25
 126039571.378 6  98212789.08843  23984506.227                    23984513.418
 114128521.106 7  88931380.54945  21717934.766                    21717942.227
 122747277.358 6  95647286.07343  23358029.805                    23358037.953
 114460543.860 7  89190181.94445  21781092.703                    21781097.570
 114338911.558 7  89095300.237 7  21757967.602                    21757974.406
 107739492.581 8  83953000.867 8  20502122.438                    20502128.875
 127579522.622 7  99412658.531 5  24277577.898                    24277586.379
 116803926.285 7  91016098.922 7  22227045.672                    22227053.078
 113587327.528 8  88509684.698 7  21614951.008                    21614960.453
 11  8 16  2 43  0.0000000  0  9G10G30G26G02G12G05G15G29G25
 126146550.514 6  98296149.48643  24004863.172                    24004870.195
 114165027.788 7  88959827.32145  21724881.625                    21724889.188
 122654079.484 7  95574664.39444  23340295.203                    23340303.711
 114501493.986 7  89222091.13645  21788885.516                    21788890.039
 114410381.888 7  89150991.394 7  21771567.852                    21771574.875
 107775348.498 8  83980940.563 8  20508945.531                    20508951.977
 127483937.212 7  99338176.489 6  24259389.297                    24259397.480
 116724868.656 7  90954495.619 7  22212001.609                    22212009.023
 113600585.453 8  88520015.558 7  21617474.367                    21617483.680
 11  8 16  2 43 30.0000000  0  9G10G30G26G02G12G05G15G29G25
 126253638.275 6  98379594.47843  24025241.414                    24025248.883
 114202057.650 7  88988681.76045  21731928.414                    21731935.910
 122561016.360 7  95502147.73944  23322585.531                    23322593.738
 114542531.768 8  89254068.64045  21796694.828                    21796699.316
 114482222.566 7  89206971.133 7  21785238.484                    21785245.453
 107811686.476 8  84009255.880 8  20515860.469                    20515866.590
 127388274.140 7  99263633.972 6  24241184.477                    24241193.590
 116645934.791 7  90892988.754 7  22196981.250                    22196987.949
 113614404.438 8  88530783.619 7  21620103.625                    21620113.344
 11  8 16  2 44  0.0000000  0  9G10G30G26G02G12G05G15G29G25
 126360832.065 6  98463122.08343  24045639.914                    24045647.172
 114239608.684 7  89017942.30945  21739074.352                    21739081.336
 122468091.686 7  95429738.95344  23304902.992                    23304910.906
 114583657.382 7  89286114.58445  21804520.336                    21804524.793
 114554430.568 7  89263237.105 7  21798979.125                    21798985.992
 107848504.659 8  84037945.380 8  20522866.539                    20522872.852
 127292536.352 7  99189033.218 6  24222966.227                    24222975.063
 116567126.544 7  90831579.772 7  22181984.281                    22181991.602
 113628783.514 8  88541988.098 7  21622840.492                    21622849.391
 11  8 16  2 44 30.0000000  0  9G10G30G26G02G12G05G15G29G25
 126468129.214 6  98546730.25843  24066058.203                    24066064.895
 114277678.972 7  89047607.47845  21746318.461                    21746326.258
 122375309.397 7  95357441.14644  23287247.180                    23287254.582
 114624870.752 8  89318228.90745  21812363.359                    21812368.230
 114627003.806 7  89319787.665 7  21812789.758                    21812796.328
 107885801.452 8  84067007.837 8  20529964.086                    20529970.273
 127196726.597 7  99114376.392 6  24204733.680                    24204742.980
 116488446.547 7  90770270.731 7  22167012.211                    22167019.035
 113643721.869 8  88553628.381 7  21625682.703                    21625692.059
 11  8 16  2 45  0.0000000  0  9G10G30G26G02G12G05G15G29G25
 126575527.147 6  98630416.96843  24086495.367                    24086502.391
 114316265.996 7  89077675.29945  21753661.234                    21753668.859
 122282672.524 7  95285256.62044  23269618.813                    23269626.160
 114666171.518 7  89350411.32745  21820222.344                    21820227.031
 114699938.957 7  89376620.256 7  21826668.313                    21826675.586
 107923574.481 8  84096441.369 8  20537152.102                    20537158.227
 127100847.098 7  99039665.238 6  24186489.039                    24186497.770
 116409896.517 7  90709062.975 7  22152064.664                    22152071.680
 113659218.058 8  88565703.338 7  21628631.359                    21628640.938
 11  8 16  2 45 30.0000000  0  9G10G30G26G02G12G05G15G29G25
 126683023.295 6  98714180.19443  24106951.031                    24106958.219
 114355367.834 7  89108144.26745  21761102.328                    21761109.707
 122190184.931 7  95213188.43344  23252019.086                    23252026.824
 114707560.069 7  89382662.15445  21828098.484                    21828102.875
 114773233.413 7  89433732.812 7  21840616.258                    21840623.039
 107961822.016 8  84126244.662 8  20544430.203                    20544436.664
 127004900.989 7  98964902.181 6  24168230.391                    24168239.609
 116331478.367 7  90647957.961 7  22137142.023                    22137148.895
 113675271.139 8  88578212.244 7  21631686.328                    21631695.727
 11  8 16  2 46  0.0000000  0  9G10G30G26G02G12G05G15G29G25
 126790615.682 6  98798018.43643  24127425.125                    24127432.563
 114394982.751 7  89139013.04445  21768640.391                    21768647.770
 122097850.826 7  95141239.87344  23234448.219                    23234455.898
 114749036.828 7  89414981.71345  21835991.141                    21835995.480
 114846885.196 7  89491123.813 7  21854631.750                    21854638.289
 108000542.789 8  84156416.705 8  20551798.750                    20551804.730
 126908891.403 6  98890089.660 6  24149959.953                    24149969.145
 116253194.542 7  90586957.612 7  22122245.000                    22122252.074
 113691880.603 8  88591154.690 7  21634847.008                    21634856.484
 11  8 16  2 46 30.0000000  0  9G10G30G26G02G12G05G15G29G25
 126898301.594 6  98881929.53543  24147917.516                    24147924.203
 114435108.252 7  89170279.67045  21776276.469                    21776283.469
 122005673.457 7  95069413.41744  23216906.805                    23216915.535
 114790601.339 8  89447369.65145  21843900.539                    21843905.324
 114920890.999 7  89548790.674 7  21868714.727                    21868721.480
 108039734.289 8  84186955.548 8  20559256.352                    20559262.629
 126812820.536 6  98815229.433 6  24131678.688                    24131687.574
 116175046.993 7  90526063.476 7  22107373.664                    22107381.020
 113709044.839 8  88604529.419 7  21638113.211                    21638122.965
 11  8 16  2 47  0.0000000  0  9G10G30G26G02G12G05G15G29G25
 127006078.464 6  98965911.53043  24168426.453                    24168433.859
 114475742.197 7  89201942.49545  21784008.711                    21784016.152
 121913656.555 7  94997712.02344  23199396.977                    23199404.902
 114832253.683 7  89479826.03545  21851826.664                    21851830.906
 114995247.590 7  89606730.879 7  21882863.813                    21882870.891
 108079394.587 7  84217859.691 8  20566803.641                    20566809.719
 126716691.241 6  98740323.646 6  24113385.398                    24113394.098
 116097038.078 7  90465277.341 7  22092529.258                    22092536.176
 113726762.801 8  88618335.631 7  21641484.875                    21641494.457
 11  8 16  2 47 30.0000000  0  9G10G30G26G02G12G05G15G29G25
 127113943.757 6  99049962.42743  24188952.422                    24188959.734
 114516882.085 8  89233999.56645  21791837.180                    21791844.777
 121821803.446 7  94926138.25744  23181917.172                    23181926.379
 114873993.665 7  89512350.70545  21859769.297                    21859773.844
 115069952.106 7  89664942.173 7  21897079.320                    21897086.500
 108119521.380 8  84249127.334 8  20574439.477                    20574445.621
 126620506.054 6  98665374.331 6  24095082.742                    24095091.316
 116019169.447 7  90404600.537 7  22077711.484                    22077718.270
 113745033.080 8  88632572.219 7  21644961.641                    21644971.020
 11  8 16  2 48  0.0000000  0  9G10G30G26G02G12G05G15G29G25
 127221894.812 6  99134080.10143  24209494.320                    24209501.922
 114558525.807 8  89266449.23045  21799762.070                    21799769.215
 121730117.724 7  94854694.89144  23164470.453                    23164478.172
 114915821.283 7  89544943.66245  21867729.125                    21867733.695
 115145001.964 7  89723422.563 7  21911361.695                    21911368.344
 108160112.758 8  84280756.993 8  20582163.977                    20582169.945
 126524267.901 6  98590383.696 6  24076769.211                    24076777.504
 115941443.218 7  90344034.688 7  22062920.781                    22062927.547
 113763854.449 8  88647238.232 7  21648543.086                    21648552.551
 11  8 16  2 48 30.0000000  0  9G10G30G26G02G12G05G15G29G25
 127329929.327 6  99218262.88243  24230052.617                    24230059.938
 114600670.913 8  89299289.57245  21807781.813                    21807789.020
 121638603.277 7  94783385.00444  23147055.945                    23147063.832
 114957736.680 8  89577605.02145  21875705.375                    21875709.809
 115220394.152 7  89782169.712 7  21925708.031                    21925714.828
 108201166.667 8  84312747.067 8  20589975.898                    20589982.184
 126427979.191 7  98515353.657 6  24058445.664                    24058453.691
 115863861.536 7  90283581.477 7  22048157.398                    22048164.207
 113783225.632 8  88662332.666 7  21652229.367                    21652238.504
 11  8 16  2 49  0.0000000  0  9G10G30G26G02G12G05G15G29G25
 127438044.436 6  99302508.44143  24250626.352                    24250633.688
 114643314.952 8  89332518.69945  21815896.555                    21815903.789
 121547263.325 7  94712211.06044  23129674.492                    23129682.563
 114999739.519 8  89610334.50745  21883698.141                    21883702.242
 115296125.615 8  89841181.247 7  21940119.367                    21940126.145
 108242680.568 8  84345095.571 8  20597875.633                    20597882.172
 126331642.934 7  98440286.527 5  24040113.273                    24040121.547
 115786426.286 7  90223242.375 7  22033421.852                    22033428.949
 113803145.163 8  88677854.374 7  21656020.094                    21656029.082
 11  8 16  2 49 30.0000000  0  9G10G30G26G02G12G05G15G29G25
 127546238.148 5  99386815.19242  24271214.859                    24271222.129
 114686455.784 7  89366134.93145  21824106.508                    21824113.902
 121456101.745 7  94641176.10444  23112326.648                    23112334.047
 115041830.191 8  89643132.44345  21891707.773                    21891712.289
 115372193.722 7  89900455.090 7  21954594.477                    21954601.832
 108284652.905 7  84377801.297 8  20605862.953                    20605868.816
 126235261.753 7  98365184.396 5  24021772.641                    24021780.199
 115709139.861 7  90163019.223 7  22018714.539                    22018721.301
 113823611.901 8  88693802.492 7  21659914.555                    21659924.172
 11  8 16  2 50  0.0000000  0  9G10G30G26G02G12G05G15G29G25
 127654507.809 6  99471181.17943  24291817.797                    24291825.266
 114730091.275 7  89400136.61545  21832409.797                    21832417.059
 121365122.454 7  94570283.19944  23095014.055                    23095021.988
 115084008.629 7  89675998.77845  21899733.898                    21899738.480
 115448595.646 7  89959989.044 7  21969133.578                    21969140.270
 108327081.720 8  84410862.724 8  20613936.828                    20613943.031
 126138838.563 7  98290049.499 5  24003424.227                    24003431.363
 115632004.235 7  90102913.593 7  22004035.758                    22004042.965
 113844624.736 8  88710176.121 7  21663912.914                    21663922.750
 11  8 16  2 50 30.0000000  0  9G10G30G26G02G12G05G15G29G25
 127762851.127 6  99555604.55143  24312435.352                    24312441.926
 114774218.886 7  89434521.78045  21840807.055                    21840814.324
 121274328.830 7  94499534.97944  23077736.305                    23077744.309
 115126274.918 7  89708933.55645  21907777.078                    21907781.684
 115525328.359 7  90019780.771 7  21983735.313                    21983741.746
 108369964.744 8  84444278.065 8  20622096.898                    20622103.488
 126042376.085 7  98214884.006 6  23985067.250                    23985075.695
 115555021.677 7  90042927.230 7  21989386.852                    21989393.664
 113866182.119 8  88726974.075 7  21668015.711                    21668025.016
 11  8 16  2 51  0.0000000  0  9G10G30G26G02G12G05G15G29G25
 127871265.147 6  99640083.00243  24333065.508                    24333073.355
 114818835.826 7  89469288.22445  21849297.008                    21849304.500
 121183724.230 7  94428934.03844  23060495.242                    23060502.754
 115168628.670 7  89741936.48045  21915836.820                    21915840.977
 115602388.520 7  90079827.642 7  21998398.891                    21998406.242
 108413299.341 8  84478045.303 8  20630343.305                    20630349.367
 125945877.132 7  98139690.119 6  23966704.273                    23966712.492
 115478194.058 7  89983061.594 7  21974766.773                    21974773.523
 113888282.299 8  88744195.002 7  21672221.414                    21672230.313
 11  8 16  2 51 30.0000000  0  9G10G30G26G02G12G05G15G29G25
 127979747.842 6  99724614.97443  24353709.070                    24353716.746
 114863940.199 7  89504434.49045  21857880.406                    21857887.793
 121093312.617 7  94358483.48045  23043290.242                    23043298.348
 115211070.275 7  89775007.87845  21923913.086                    21923917.859
 115679773.876 7  90140127.923 7  22013125.367                    22013131.676
 108457083.950 8  84512163.191 7  20638675.344                    20638681.629
 125849344.352 7  98064469.896 6  23948334.469                    23948342.945
 115401523.765 7  89923318.555 7  21960177.148                    21960183.645
 113910924.283 8  88761838.099 7  21676529.578                    21676538.828
 11  8 16  2 52  0.0000000  0  9G10G30G26G02G12G05G15G29G25
 128088296.896 6  99809198.67643  24374365.820                    24374372.781
 114909529.619 7  89539958.70945  21866555.836                    21866562.949
 121003097.870 7  94288186.34044  23026122.344                    23026130.605
 115253600.100 7  89808148.00645  21932006.203                    21932010.477
 115757481.621 7  90200679.402 7  22027912.398                    22027918.938
 108501316.586 7  84546630.187 8  20647092.742                    20647098.926
 125752780.553 6  97989225.508 6  23929958.898                    23929967.246
 115325013.024 7  89863699.840 7  21945617.773                    21945624.242
 113934106.772 8  88779902.373 7  21680941.219                    21680950.770
 11  8 16  2 52 30.0000000  0  9G10G30G26G02G12G05G15G29G25
 128196909.420 6  99893831.83743  24395034.086                    24395040.824
 114955601.135 7  89575858.60445  21875323.063                    21875329.988
 120913083.107 7  94218045.03344  23008993.516                    23009001.648
 115296217.688 7  89841356.51545  21940115.805                    21940120.660
 115835508.227 7  90261479.352 7  22042760.539                    22042767.043
 108545994.506 8  84581444.167 8  20655594.438                    20655600.625
 125656188.450 6  97913959.079 6  23911577.625                    23911586.277
 115248664.038 7  89804207.161 7  21931088.758                    21931095.559
 113957827.826 8  88798386.304 7  21685455.219                    21685464.594
 11  8 16  2 53  0.0000000  0  9G10G30G26G02G12G05G15G29G25
 128305583.531 6  99978512.95443  24415713.836                    24415720.898
 115002153.001 7  89612132.77245  21884181.398                    21884188.574
 120823272.643 7  94148062.92744  22991903.070                    22991910.930
 115338923.663 8  89874633.90945  21948242.883                    21948247.453
 115913851.238 7  90322525.846 7  22057668.836                    22057675.598
 108591116.109 7  84616603.863 8  20664180.656                    20664186.910
 125559571.168 6  97838673.041 6  23893191.773                    23893200.926
 115172478.631 7  89744841.958 7  21916590.953                    21916597.734
 113982086.589 8  88817289.237 7  21690071.359                    21690080.805
 11  8 16  2 53 30.0000000  0 10G10G30G26G02G12G05G15G29G21G25
 128414317.176 6 100063240.46243  24436405.188                    24436411.926
 115049182.731 7  89648779.32645  21893130.891                    21893137.949
 120733670.237 7  94078242.92344  22974851.984                    22974860.031
 115381718.074 7  89907980.20745  21956386.359                    21956390.641
 115992507.739 7  90383816.622 7  22072636.125                    22072642.566
 108636679.643 7  84652107.927 8  20672851.227                    20672857.484
 125462931.508 6  97763369.606 7  23874802.039                    23874810.961
 115096459.253 7  89685606.126 7  21902125.055                    21902131.957
 132290288.96616 103083401.50252  25174012.711                    25174019.758
 114006881.606 8  88836610.028 7  21694789.938                    21694799.105
 11  8 16  2 54  0.0000000  0 10G10G30G26G02G12G05G15G29G21G25
 128523107.171 6 100148011.89243  24457107.289                    24457114.047
 115096687.349 7  89685795.90945  21902170.266                    21902178.039
 120644278.988 7  94008587.49544  22957841.164                    22957849.379
 115424600.328 8  89941394.95945  21964546.688                    21964551.063
 116071474.469 7  90445349.141 7  22087663.148                    22087669.574
 108682682.114 7  84687954.020 8  20681605.367                    20681611.691
 125366272.428 6  97688050.994 6  23856407.680                    23856417.328
 115020607.570 7  89626500.970 7  21887690.938                    21887697.480
 132233224.529 6 103038935.90642  25163153.523                    25163161.461
 114032210.852 8  88856347.103 7  21699609.742                    21699619.008
 11  8 16  2 54 30.0000000  0 10G10G30G26G02G12G05G15G29G21G25
 128631951.668 6 100232825.78443  24477819.664                    24477826.645
 115144664.852 7  89723180.97745  21911300.352                    21911307.824
 120555103.198 7  93939099.90944  22940872.430                    22940879.281
 115467571.409 8  89974878.92545  21972723.813                    21972728.688
 116150749.089 7  90507121.572 7  22102748.539                    22102755.375
 108729121.736 7  84724140.745 8  20690442.367                    20690448.266
 125269596.666 6  97612719.365 6  23838011.141                    23838019.910
 114944926.789 7  89567528.976 7  21873289.289                    21873296.270
 132176172.363 6 102994479.65842  25152297.375                    25152305.152
 114058073.234 8  88876499.613 7  21704531.656                    21704540.563
 11  8 16  2 55  0.0000000  0 10G10G30G26G02G12G05G15G29G21G25
 128740847.590 6 100317679.74443  24498541.289                    24498549.453
 115193111.929 7  89760931.95245  21920519.531                    21920526.777
 120466145.423 7  93869782.20444  22923944.023                    22923951.480
 115510630.315 7  90008431.32245  21980917.117                    21980922.195
 116230327.476 7  90569130.698 7  22117891.945                    22117898.766
 108775995.484 8  84760665.752 8  20699362.203                    20699368.172
 125172906.485 6  97537376.484 6  23819611.555                    23819620.258
 114869417.944 7  89508690.955 7  21858920.367                    21858927.434
 132119130.920 5                  25141442.047
 114084466.470 8  88897065.767 7  21709553.891                    21709563.402
 11  8 16  2 55 30.0000000  0 10G10G30G26G02G12G05G15G29G21G25
 128849792.865 6 100402572.17242  24519272.773                    24519281.125
 115242026.533 8  89799047.22845  21929827.922                    21929835.105
 120377410.105 7  93800637.84744  22907058.539                    22907064.902
 115553777.666 7  90042052.63945  21989127.891                    21989133.031
 116310207.313 7  90631374.728 7  22133092.539                    22133099.426
 108823301.925 8  84797527.918 7  20708364.289                    20708370.398
 125076205.352 7  97462025.060 6  23801210.430                    23801218.574
 114794083.626 7  89449988.934 7  21844584.969                    21844591.941
 132062100.095 5                  25130588.820
 114111389.427 8  88918044.705 7  21714676.984                    21714686.402
 11  8 16  2 56  0.0000000  0 10G10G30G26G02G12G05G15G29G21G25
 128958785.489 6 100487501.46742  24540013.398                    24540020.957
 115291406.154 7  89837524.86845  21939223.977                    21939231.477
 120288901.001 7  93731669.75544  22890215.680                    22890222.004
 115597013.895 7  90075743.20945  21997355.375                    21997360.367
 116390385.846 7  90693851.501 7  22148350.023                    22148357.242
 108871039.031 8  84834725.671 8  20717448.242                    20717454.645
 124979495.959 7  97386667.197 6  23782806.688                    23782814.992
 114718925.938 8  89391424.543 7  21830282.633                    21830289.711
 132005079.252 6                  25119737.547
 114138840.551 8  88939435.191 7  21719900.703                    21719909.715
 11  8 16  2 56 30.0000000  0 10G10G30G26G02G12G05G15G29G21G25
 129067822.905 6 100572465.71342  24560763.375                    24560770.352
 115341248.143 7  89876362.79245  21948708.891                    21948715.934
 120200621.390 7  93662880.49144  22873416.273                    22873423.633
 115640338.890 7  90109502.94945  22005600.203                    22005604.938
 116470859.738 7  90756558.423 7  22163663.773                    22163670.238
 108919204.255 8  84872257.029 8  20726613.641                    20726620.367
 124882781.128 7  97311305.077 6  23764402.469                    23764410.219
 114643947.483 8  89332999.812 7  21816014.625                    21816021.699
 131948067.973 5                  25108889.992
 114166818.087 8  88961235.869 7  21725224.555                    21725233.871
 11  8 16  2 57  0.0000000  0 10G10G30G26G02G12G05G15G29G21G25
 129176902.814 5 100657463.02442  24581520.242                    24581527.926
 115391549.866 7  89915558.94145  21958280.930                    21958288.438
 120112575.254 7  93594273.17644  22856661.156                    22856669.051
 115683752.619 8  90143331.81645  22013861.664                    22013866.262
 116551626.432 7  90819493.502 7  22179033.336                    22179040.066
 108967795.115 8  84910120.038 8  20735860.586                    20735866.367
 124786063.655 6  97235940.901 6  23745997.742                    23746005.078
 114569150.144 7  89274716.202 7  21801781.211                    21801788.195
 131891065.397 5                  25098041.773
 114195320.352 8  88983445.426 7  21730648.281                    21730657.945
 11  8 16  2 57 30.0000000  0  9G30G26G02G12G05G15G29G21G25
 115442310.082 7  89955112.36545  21967940.258                    21967947.574
 120024767.591 7  93525851.69244  22839951.773                    22839960.047
 115727256.452 8  90177230.90745  22022140.273                    22022144.609
 116632683.969 7  90882655.209 7  22194457.891                    22194464.816
 109016811.193 7  84948314.396 8  20745187.820                    20745193.914
 124689347.937 6  97160578.097 5  23727593.344                    23727600.262
 114494537.611 8  89216576.596 7  21787582.625                    21787589.301
 131834072.668 5                  25087196.148
 114224347.057 8  89006063.643 7  21736172.328                    21736181.316
 11  8 16  2 58  0.0000000  0  9G30G26G02G12G05G15G29G21G25
 115493524.910 7  89995020.03345  21977686.344                    21977693.469
 119937200.688 7  93457617.80244  22823288.883                    22823296.727
 115770849.432 7  90211199.46745  22030435.680                    22030440.160
 116714027.993 7  90946040.157 7  22209937.320                    22209943.863
 109066248.624 8  84986837.073 8  20754595.688                    20754601.742
 124592635.342 6  97085217.729 6  23709189.391                    23709197.441
 114420110.717 7  89158581.647 7  21773419.914                    21773426.738
 131777087.758 5 102683500.43352  25076353.023                    25076360.469
 114253895.253 8  89029088.219 7  21741795.195                    21741804.125
 11  8 16  2 58 30.0000000  0  9G30G26G02G12G05G15G29G21G25
 115545191.486 7  90035279.71745  21987518.070                    21987525.012
 119849877.867 6  93389574.12944  22806671.578                    22806679.824
 115814531.452 7  90245237.40945  22038747.789                    22038752.207
 116795655.438 7  91009645.953 7  22225470.758                    22225477.277
 109116105.018 8  85025686.221 8  20764082.977                    20764089.184
 124495928.678 6  97009862.009 6  23690786.633                    23690794.883
 114345871.534 7  89100732.968 7  21759293.094                    21759299.563
 131720109.824 6 102639102.18543  25065510.492                    25065518.707
 114283962.903 8  89052517.553 7  21747516.484                    21747525.480
 11  8 16  2 59  0.0000000  0  9G30G26G02G12G05G15G29G21G25
 115597306.971 7  90075889.18645  21997435.578                    21997442.531
 119762802.983 7  93321723.64044  22790101.805                    22790109.371
 115858302.204 7  90279344.48945  22047077.195                    22047081.629
 116877562.940 7  91073469.977 7  22241057.234                    22241063.777
 109166377.863 8  85064859.867 8  20773649.406                    20773655.934
 124399230.732 6  96934513.087 6  23672385.195                    23672393.758
 114271821.997 8  89043032.056 7  21745201.563                    21745208.168
 131663138.416 6 102594708.97243  25054669.148                    25054677.207
 114314548.121 8  89076350.196 7  21753337.063                    21753346.207
 11  8 16  2 59 30.0000000  0  9G30G26G02G12G05G15G29G21G25
 115649869.014 7  90116846.63445  22007437.508                    22007445.160
 119675979.799 7  93254069.27244  22773579.883                    22773587.965
 115902162.543 7  90313521.38245  22055423.984                    22055428.176
 116959748.075 7  91137510.339 7  22256696.523                    22256702.703
 109217065.293 7  85104356.574 8  20783294.656                    20783300.867
 124302544.734 6  96859173.474 6  23653987.008                    23653994.684
 114197964.988 7  88985481.167 7  21731147.039                    21731153.887
 131606172.804 6 102550320.32443  25043828.586                    25043836.918
 114345649.522 8  89100585.062 7  21759255.328                    21759264.199
 11  8 16  3  0  0.0000000  0  9G30G26G02G12G05G15G29G21G25
 115702874.642 7  90158149.72245  22017524.281                    22017531.355
 119589411.600 7  93186613.60045  22757106.711                    22757114.051
 115946112.384 7  90347768.01045  22063786.766                    22063791.379
 117042207.254 7  91201764.243 7  22272387.977                    22272394.211
 109268164.801 8  85144174.372 8  20793018.828                    20793025.113
 124205873.197 7  96783845.109 6  23635590.773                    23635598.824
 114124301.987 8  88928081.452 7  21717128.930                    21717135.898
 131549212.556 6 102505935.84043  25032988.938                    25032997.594
 114377264.933 8  89125220.452 7  21765271.469                    21765280.816
 11  8 16  3  0 30.0000000  0  9G30G26G02G12G05G15G29G21G25
 115756321.836 7  90199796.88645  22027694.945                    22027702.051
 119503103.148 7  93119360.33445  22740682.727                    22740690.328
 115990151.893 7  90382084.50445  22072167.273                    22072172.168
 117124938.501 7  91266230.144 7  22288130.797                    22288137.605
 109319674.621 8  85184311.901 8  20802820.625                    20802826.848
 124109219.605 6  96708530.727 6  23617197.555                    23617205.957
 114050836.057 8  88870835.296 7  21703149.391                    21703156.191
 131492257.511 6 102461555.44443  25022151.352                    25022159.027
 114409393.220 8  89150255.486 7  21771384.992                    21771394.316
 11  8 16  3  1  0.0000000  0  9G30G26G02G12G05G15G29G21G25
 115810207.254 7  90241785.52945  22037948.773                    22037956.137
 119417056.902 7  93052311.34044  22724308.195                    22724316.051
 116034281.176 7  90416470.95645  22080565.117                    22080569.453
 117207937.910 7  91330905.007 7  22303925.273                    22303931.789
 109371591.703 7  85224766.770 7  20812700.594                    20812706.660
 124012586.322 7  96633232.149 6  23598809.773                    23598817.305
 113977568.919 8  88813744.044 7  21689206.867                    21689213.641
 131435306.845 6 102417178.45043  25011313.664                    25011321.488
 114442031.922 8  89175688.246 7  21777595.961                    21777605.445
 11  8 16  3  1 30.0000000  0  9G30G26G02G12G05G15G29G21G25
 115864528.181 7  90284113.53545  22048286.164                    22048293.191
 119331277.091 7  92985469.98344  22707984.953                    22707992.559
 116078500.257 7  90450927.39345  22088979.125                    22088984.043
 117291202.417 7  91395786.431 7  22319769.992                    22319776.559
 109423913.873 8  85265537.298 8  20822656.930                    20822663.234
 123915976.383 6  96557951.790 6  23580424.852                    23580432.699
 113904502.749 8  88756809.397 7  21675302.695                    21675309.637
 131378359.679 6 102372804.17043  25000477.398                    25000484.715
 114475179.233 8  89201517.317 7  21783904.055                    21783912.941
 11  8 16  3  2  0.0000000  0  9G30G26G02G12G05G15G29G21G25
 115919282.242 7  90326779.04845  22058705.438                    22058712.336
 119245767.567 7  92918839.22444  22691713.484                    22691720.473
 116122809.800 7  90485454.30945  22097411.391                    22097415.719
 117374729.418 7  91460872.396 7  22335664.430                    22335671.398
 109476639.459 8  85306622.169 8  20832690.023                    20832696.184
 123819393.026 6  96482692.126 6  23562045.898                    23562053.746
 113831640.391 8  88700033.553 7  21661437.578                    21661444.441
 131321415.884 6 102328432.50043  24989641.227                    24989648.320
 114508833.625 8  89227741.526 7  21790307.898                    21790317.199
 11  8 16  3  2 30.0000000  0  9G30G26G02G12G05G15G29G21G25
 115974466.533 7  90369779.79945  22069206.742                    22069213.926
 119160531.704 7  92852421.71744  22675493.531                    22675500.496
 116167209.590 7  90520051.54545  22105860.242                    22105864.805
 117458515.689 7  91526160.388 7  22351608.383                    22351615.078
 109529765.429 8  85348019.035 7  20842799.539                    20842805.766
 123722838.933 6  96407455.267 6  23543672.000                    23543680.230
 113758983.706 8  88643417.982 7  21647611.680                    21647618.277
 131264474.758 6 102284062.92444  24978805.625                    24978813.414
 114542993.018 8  89254359.232 7  21796808.570                    21796817.813
 11  8 16  3  3  0.0000000  0  9G30G26G02G12G05G15G29G21G25
 116030078.261 7  90413113.61645  22079788.906                    22079796.414
 119075573.168 7  92786220.30744  22659325.883                    22659333.926
 116211700.009 7  90554719.40345  22114326.188                    22114331.230
 117542558.202 7  91591648.048 7  22367601.492                    22367607.754
 109583289.730 8  85389726.283 7  20852985.258                    20852991.559
 123626317.173 7  96332243.586 6  23525304.219                    23525312.398
 113686534.982 8  88586964.467 7  21633824.609                    21633831.703
 131207535.740 6 102239694.98843  24967970.102                    24967977.781
 114577655.443 8  89281368.919 7  21803404.578                    21803413.738
 11  8 16  3  3 30.0000000  0  9G30G26G02G12G05G15G29G21G25
 116086115.024 7  90456778.62645  22090452.688                    22090460.066
 118990896.291 7  92720238.35444  22643212.945                    22643220.461
 116256281.375 7  90589458.12845  22122809.883                    22122815.105
 117626854.459 7  91657333.436 7  22383642.492                    22383648.723
 109637210.624 8  85431742.570 7  20863246.156                    20863252.070
 123529831.038 7  96257059.683 6  23506943.578                    23506951.242
 113614296.813 8  88530675.011 7  21620078.711                    21620085.488
 131150598.528 6 102195328.45044  24957135.531                    24957142.949
 114612819.412 8  89308769.414 7  21810095.547                    21810105.160
 11  8 16  3  4  0.0000000  0  9G30G26G02G12G05G15G29G21G25
 116142573.737 7  90500772.44645  22101195.961                    22101203.219
 118906504.170 7  92654478.30044  22627152.945                    22627160.969
 116300953.605 7  90624267.65845  22131310.625                    22131315.617
 117711400.956 7  91723213.813 7  22399730.953                    22399737.746
 109691525.265 7  85474065.672 7  20873582.008                    20873587.941
 123433383.278 7  96181905.665 6  23488590.977                    23488597.773
 113542271.363 8  88474551.311 7  21606372.609                    21606379.281
 131093662.381 6 102150962.75243  24946300.805                    24946307.969
 114648482.697 8  89336558.990 7  21816882.516                    21816891.961
 11  8 16  3  4 30.0000000  0  9G30G26G02G12G05G15G29G21G25
 116199451.817 7  90545093.02845  22112019.516                    22112026.777
 118822400.968 7  92588943.39444  22611148.523                    22611156.629
 116345717.262 7  90659148.42545  22139829.109                    22139833.207
 117796195.086 7  91789287.154 7  22415866.398                    22415873.406
 109746231.544 8  85516693.947 7  20883992.313                    20883997.969
 123336977.047 7  96106783.990 6  23470244.453                    23470251.945
 113470461.166 8  88418595.346 7  21592707.328                    21592713.891
 131036727.074 6 102106597.70443  24935465.984                    24935473.426
 114684643.468 8  89364736.214 7  21823763.141                    21823772.695
 11  8 16  3  5  0.0000000  0  9G30G26G02G12G05G15G29G21G25
 116256746.147 7  90589737.96645  22122922.500                    22122929.797
 118738589.796 7  92523636.04145  22595200.555                    22595207.961
 116390572.127 7  90694100.26245  22148365.047                    22148369.695
 117881233.014 7  91855550.467 7  22432048.789                    22432055.617
 109801326.375 8  85559624.987 7  20894476.250                    20894482.227
 123240614.936 7  96031696.717 6  23451907.758                    23451915.297
 113398867.756 8  88362808.308 7  21579083.656                    21579090.410
 130979791.377 6 102062232.35443  24924631.414                    24924638.988
 114721299.395 8  89393299.279 7  21830738.992                    21830748.273
 11  8 16  3  5 30.0000000  0  9G30G26G02G12G05G15G29G21G25
 116314454.015 7  90634705.14845  22133903.828                    22133910.996
 118655074.597 7  92458559.30945  22579307.992                    22579315.316
 116435518.537 7  90729123.44945  22156917.773                    22156922.453
 117966512.089 7  91922001.687 7  22448277.258                    22448283.887
 109856807.847 8  85602857.313 7  20905034.336                    20905040.305
 123144300.134 7  95956646.319 6  23433579.172                    23433586.484
 113327494.056 8  88307192.466 7  21565501.602                    21565508.625
 130922855.153 6 102017866.56643  24913796.602                    24913804.320
 114758448.670 8  89422246.769 7  21837808.195                    21837817.590
 11  8 16  3  6  0.0000000  0  9G30G26G02G12G05G15G29G21G25
 116372572.650 7  90679992.39545  22144963.477                    22144970.582
 118571859.063 7  92393716.08345  22563472.563                    22563479.910
 116480556.810 7  90764218.19945  22165488.555                    22165493.063
 118052029.191 7  91988638.387 7  22464550.539                    22464557.113
 109912673.932 8  85646389.331 7  20915664.898                    20915670.926
 123048035.718 7  95881635.179 6  23415261.000                    23415267.973
 113256342.251 8  88251749.532 7  21551961.859                    21551968.863
 130865917.988 6 101973500.02343  24902961.914                    24902969.113
 114796089.227 8  89451577.070 7  21844970.992                    21844980.180
 11  8 16  3  6 30.0000000  0  9G30G26G02G12G05G15G29G21G25
 116431098.943 7  90725597.30345  22156100.758                    22156107.910
 118488946.495 7  92329108.93145  22547694.711                    22547702.047
 116525687.309 8  90799384.82645  22174076.094                    22174080.574
 118137781.355 7  92055458.239 7  22480868.695                    22480875.676
 109968921.683 8  85690218.749 7  20926368.391                    20926374.633
 122951824.225 7  95806665.271 6  23396952.156                    23396959.262
 113185414.342 8  88196481.053 7  21538464.992                    21538471.809
 130808978.999 6 101929132.11043  24892126.563                    24892133.695
 114834218.860 8  89481288.464 7  21852226.672                    21852235.820
 11  8 16  3  7  0.0000000  0  9G30G26G02G12G05G15G29G21G25
 116490030.644 7  90771518.10745  22167314.898                    22167322.344
 118406341.391 7  92264741.35245  22531975.172                    22531982.848
 116570910.139 7  90834623.39145  22182682.375                    22182686.219
 118223766.302 7  92122459.489 7  22497231.328                    22497238.008
 110025549.332 8  85734344.200 7  20937144.258                    20937150.348
 122855669.281 6  95731739.439 6  23378654.461                    23378661.492
 113114713.137 8  88141389.237 7  21525010.516                    21525017.270
 130752038.118 6 101884762.69943  24881291.305                    24881298.688
 114872836.026 8  89511379.776 7  21859575.492                    21859584.949
 11  8 16  3  7 30.0000000  0  9G30G26G02G12G05G15G29G21G25
 116549364.533 7  90817752.31045  22178605.359                    22178613.203
 118324046.936 7  92200615.85545  22516314.992                    22516322.527
 116616225.482 7  90869934.05245  22191305.031                    22191309.309
 118309980.209 7  92189639.146 7  22513637.477                    22513643.691
 110082554.359 8  85778763.708 7  20947991.992                    20947997.777
 122759573.628 6  95656859.808 6  23360367.383                    23360375.164
 113044241.042 8  88086475.941 7  21511600.875                    21511607.168
 130695094.703 6 101840391.30442  24870454.563                    24870462.938
 114911938.339 8  89541849.109 7  21867016.359                    21867025.520
 11  8 16  3  8  0.0000000  0  9G30G26G02G12G05G15G29G21G25
 116609097.359 7  90864297.36545  22189972.766                    22189979.953
 118242066.543 7  92136735.08445  22500714.117                    22500722.176
 116661633.393 7  90905316.83845  22199946.461                    22199950.262
 118396419.379 7  92256994.334 7  22530085.789                    22530092.934
 110139933.741 8  85823474.923 7  20958910.852                    20958917.254
 122663540.063 7  95582028.563 6  23342092.695                    23342099.902
 112973999.567 8  88031742.357 7  21498233.719                    21498240.316
 130638147.756 6 101796017.15342  24859617.578                    24859625.453
 114951523.338 8  89572694.563 7  21874549.055                    21874558.285
 11  8 16  3  8 30.0000000  0  9G30G26G02G12G05G15G29G21G25
 116669226.749 7  90911151.44245  22201414.773                    22201422.004
 118160404.369 7  92073102.26745  22485174.938                    22485182.496
 116707134.493 8  90940772.23545  22208605.000                    22208609.215
 118483081.600 7  92324523.326 7  22546577.086                    22546583.891
 110197685.974 8  85868476.674 7  20969900.727                    20969906.902
 122567571.855 7  95507248.209 6  23323830.961                    23323838.582
 112903991.602 8  87977190.717 7  21484911.656                    21484917.859
 130581197.119 6 101751640.10442  24848780.406                    24848787.953
 114991589.341 8  89603914.832 7  21882173.305                    21882182.629
 11  8 16  3  9  0.0000000  0  9G30G26G02G12G05G15G29G21G25
 116729748.993 7  90958311.62345  22212931.773                    22212939.086
 118079063.011 7  92009719.41745  22469696.047                    22469703.258
 116752728.261 7  90976299.85945  22217280.938                    22217284.914
 118569963.102 7  92392223.177 7  22563110.344                    22563117.227
 110255807.243 8  85913765.977 7  20980961.023                    20980967.023
 122471671.443 7  95432520.736 6  23305581.469                    23305589.164
 112834218.659 8  87922822.216 7  21471633.938                    21471640.965
 130524241.798 6 101707259.45842  24837942.461                    24837949.902
 115032133.449 8  89635507.653 7  21889888.875                    21889897.824
 11  8 16  3  9 30.0000000  0  9G30G26G02G12G05G15G29G21G25
 116790662.189 7  91005776.44545  22224523.008                    22224530.328
 117998047.365 7  91946590.37845  22454279.609                    22454286.215
 116798415.979 8  91011900.67045  22225974.719                    22225979.586
 118657061.511 7  92460092.049 7  22579684.250                    22579691.133
 110314296.853 8  85959342.302 7  20992091.031                    20992096.902
 122375842.497 7  95357848.889 6  23287346.367                    23287353.613
 112764684.464 8  87868639.753 7  21458402.188                    21458408.656
 130467281.862 6 101662875.21742  24827103.117                    24827110.277
 115073154.492 8  89667472.091 7  21897694.992                    21897704.254
 11  8 16  3 10  0.0000000  0  9G30G26G02G12G05G15G29G21G25
 116851962.956 7  91053543.28445  22236188.266                    22236195.613
 117917360.585 7  91883717.60445  22438925.344                    22438932.555
 116844197.242 8  91047574.39245  22234686.852                    22234691.074
 118744373.539 7  92528127.374 7  22596299.273                    22596306.516
 110373151.656 8  86005203.200 7  21003290.422                    21003296.809
 122280088.081 7  95283235.143 6  23269124.250                    23269132.172
 112695390.524 8  87814644.491 7  21445216.047                    21445222.609
 130410316.684 6 101618486.84442  24816262.250                    24816270.113
 115114649.886 8  89699806.176 7  21905591.055                    21905600.625
 11  8 16  3 10 30.0000000  0  9G30G26G02G12G05G15G29G21G25
 116913647.969 7  91101609.52945  22247926.891                    22247933.488
 117837006.140 7  91821103.81044  22423634.297                    22423641.305
 116890072.173 8  91083321.09445  22243416.734                    22243420.914
 118831895.688 7  92596326.426 7  22612954.445                    22612960.789
 110432368.884 8  86051346.500 7  21014559.086                    21014565.570
 122184410.718 7  95208681.456 6  23250917.781                    23250925.484
 112626338.882 8  87760838.045 7  21432076.227                    21432082.695
 130353345.419 6 101574093.76843  24805421.180                    24805429.164
 115156617.051 8  89732507.858 7  21913577.203                    21913586.125
 11  8 16  3 11  0.0000000  0  9G30G26G02G12G05G15G29G21G25
 116975715.080 7  91149973.50745  22259737.813                    22259744.910
 117756988.261 7  91758752.23945  22408407.359                    22408413.926
 116936041.666 8  91119141.48345  22252164.266                    22252169.219
 118919625.872 7  92664687.587 7  22629648.641                    22629655.457
 110491946.831 8  86097770.873 7  21025896.867                    21025902.652
 122088814.230 7  95134190.776 6  23232726.141                    23232733.414
 112557532.833 8  87707222.967 7  21418982.688                    21418989.480
 130296368.028 6 101529695.86943  24794578.805                    24794586.695
 115199054.493 8  89765576.006 7  21921652.664                    21921661.965
 11  8 16  3 11 30.0000000  0  9G30G26G02G12G05G15G29G21G25
 117038160.642 7  91198632.38645  22271620.727                    22271627.711
 117677309.642 7  91696665.03545  22393245.031                    22393252.172
 116982105.514 7  91155035.39945  22260929.641                    22260934.684
 119007560.150 7  92733207.786 7  22646382.172                    22646389.105
 110551882.348 8  86144473.880 7  21037301.883                    21037308.297
 121993300.732 7  95059764.764 6  23214550.805                    23214557.816
 112488973.662 8  87653800.260 7  21405936.117                    21405942.777
 130239383.448 6 101485292.41643  24783735.289                    24783742.441
 115241959.261 8  89799008.288 7  21929817.242                    21929826.484
 11  8 16  3 12  0.0000000  0  9G30G26G02G12G05G15G29G21G25
 117100981.886 7  91247584.01245  22283575.352                    22283582.410
 117597974.455 7  91634845.45845  22378148.102                    22378155.258
 117028263.910 8  91191002.98645  22269713.211                    22269717.809
 119095695.690 7  92801884.818 7  22663153.930                    22663160.871
 110612173.479 8  86191453.987 7  21048775.055                    21048781.227
 121897873.679 7  94985406.116 6  23196391.070                    23196398.527
 112420663.869 8  87600571.887 7  21392937.156                    21392943.930
 130182391.459 6 101440883.15143  24772890.461                    24772897.211
 115285329.406 8  89832803.209 7  21938070.508                    21938080.016
 11  8 16  3 12 30.0000000  0  9G30G26G02G12G05G15G29G21G25
 117164175.885 7  91296826.08545  22295600.836                    22295608.227
 117518986.340 7  91573296.30945  22363117.164                    22363123.809
 117074517.301 8  91227044.58245  22278515.453                    22278519.965
 119184029.507 7  92870716.333 7  22679963.023                    22679970.051
 110672817.634 8  86238709.172 7  21060315.000                    21060321.680
 121802536.243 7  94911117.297 6  23178249.133                    23178256.391
 112352606.262 8  87547540.016 7  21379986.211                    21379992.777
 130125391.366 6 101396467.61943  24762043.406                    24762050.418
 115329162.619 8  89866958.963 7  21946411.180                    21946420.301
 11  8 16  3 13  0.0000000  0  9G30G26G02G12G05G15G29G21G25
 117227739.574 7  91346356.24545  22307696.227                    22307703.547
 117440348.847 7  91512020.39545  22348152.703                    22348159.871
 117120865.816 7  91263160.32345  22287335.320                    22287339.641
 119272558.422 7  92939699.898 7  22696809.289                    22696816.367
 110733812.390 7  86286237.555 7  21071922.227                    21071928.406
 121707291.180 7  94836900.467 6  23160124.289                    23160132.301
 112284803.011 8  87494706.332 7  21367083.633                    21367090.227
 130068382.925 6 101352045.53543  24751195.141                    24751201.695
 115373456.563 8  89901473.726 7  21954840.563                    21954849.656
 11  8 16  3 13 30.0000000  0  9G30G26G02G12G05G15G29G21G25
 117291669.945 7  91396172.11045  22319861.922                    22319868.902
 117362065.416 7  91451020.36545  22333255.484                    22333263.008
 117167309.918 7  91299350.53345  22296173.125                    22296177.738
 119361279.202 7  93008832.955 6  22713692.563                    22713699.359
 110795155.132 7  86334037.100 7  21083595.289                    21083601.379
 121612141.315 7  94762757.772 6  23142018.414                    23142025.258
 112217256.342 8  87442072.606 7  21354229.906                    21354236.789
 130011365.407 6 101307616.43243  24740345.156                    24740351.770
 115418208.932 7  89936345.705 7  21963356.453                    21963365.398
 11  8 16  3 14  0.0000000  0  9G30G26G02G12G05G15G29G21G25
 117355964.026 7  91446271.39645  22332096.406                    22332103.691
 117284139.778 7  91390299.11545  22318426.914                    22318434.168
 117213850.110 7  91335615.60945  22305029.297                    22305033.738
 119450188.909 7  93078113.217 7  22730611.555                    22730617.910
 110856843.588 8  86382106.037 7  21095333.969                    21095340.293
 121517090.223 7  94688692.065 6  23123930.203                    23123937.324
 112149968.581 8  87389640.612 7  21341425.406                    21341432.383
 129954338.153 6 101263179.72543  24729492.000                    24729499.762
 115463417.371 8  89971573.061 7  21971959.508                    21971968.805
 11  8 16  3 14 30.0000000  0  9G30G26G02G12G05G15G29G21G25
 117420618.799 7  91496651.73845  22344400.102                    22344407.523
 117206575.687 7  91329859.59445  22303666.953                    22303674.078
 117260486.053 7  91371955.32945  22313903.797                    22313908.453
 119539284.709 7  93147538.493 6  22747566.305                    22747573.020
 110918875.415 8  86430442.522 7  21107138.563                    21107144.734
 121422141.060 7  94614705.753 6  23105862.227                    23105869.313
 112082942.266 8  87337412.347 7  21328670.727                    21328677.109
 129897301.140 6 101218735.40343  24718639.023                    24718645.695
 115509079.626 8  90007154.038 7  21980648.563                    21980657.578
 11  8 16  3 15  0.0000000  0  9G30G26G02G12G05G15G29G21G25
 117485631.520 7  91547310.99845  22356772.164                    22356779.113
 117129376.822 7  91269704.68245  22288976.375                    22288983.523
 117307218.661 7  91408370.33745  22322796.680                    22322801.566
 119628563.441 7  93217106.329 7  22764554.906                    22764562.289
 110981248.450 8  86479044.885 7  21119007.492                    21119013.719
 121327297.017 7  94540801.377 6  23087814.086                    23087820.680
 112016179.964 8  87285389.804 7  21315966.328                    21315973.117
 129840253.758 6 101174283.03143  24707782.539                    24707790.227
 115555193.562 8  90043086.990 7  21989423.656                    21989432.824
